[[[{"header":{"parameterUnit":"kt","parameterCategory":2,"dx":1,"dy":1,"la1":29.587661999999998,"la2":31.0,"lo1":-88.76705300000003,"lo2":-86.6583820000003,"nx":115,"ny":88,"refTime":"2022-10-19T06:00:00:Z","depth":0,"parameterNumber":1,"parameterNumberName":"U-component_of_WINDS"},"data":[-11.4879,-11.4879,-11.4879,-11.4879,-11.4879,-11.4879,-11.4879,-11.4879,-11.4879,-11.4879,-11.4879,-11.4879,-11.4879,-11.4879,-11.4879,-11.4879,-11.4879,-11.4879,-11.4879,-11.4879,-11.4879,-11.4458,-11.2362,-10.7887,-10.2678,-9.9096,-9.6895,-9.6646,-9.6395,-9.6395,-9.6395,-9.6395,-9.6395,-9.6395,-9.6395,-9.6395,-9.6395,-9.6395,-9.6395,-9.6395,-9.6395,-9.6395,-9.6395,-9.6395,-9.6395,-9.6395,-9.6395,-9.6395,-9.6395,-9.6395,-9.6395,-9.6395,-9.6395,-9.6395,-9.6395,-9.6395,-9.6395,-9.6395,-9.6395,-9.6395,-9.6395,-9.6395,-9.6395,-9.6395,-9.6395,-9.6395,-9.6395,-9.6395,-9.6151,-9.5273,-9.4004,-9.332,-9.2344,-9.1124,-9.0538,-9.1466,-9.2783,-9.3955,-9.5029,-9.5809,-9.6298,-9.6346,-9.6395,-9.6395,-9.6395,-9.6395,-9.6395,-9.6395,-9.6395,-9.6395,-9.6395,-9.6395,-9.6395,-9.6395,-9.6395,-9.6395,-9.6395,-9.6395,-9.6395,-9.6395,-9.6395,-9.6395,-9.6395,-9.6395,-9.6395,-9.6395,-9.6395,-9.6395,-9.6395,-9.6395,-9.6395,-9.6395,-9.6395,-9.5719,-9.5166,-11.4879,-11.4879,-11.4879,-11.4879,-11.4879,-11.4879,-11.4879,-11.4879,-11.4879,-11.4879,-11.4879,-11.4879,-11.4879,-11.4879,-11.4879,-11.4879,-11.4879,-11.4879,-11.4879,-11.4879,-11.4774,-11.3279,-11.0615,-10.7321,-10.3623,-10.0334,-9.7593,-9.6646,-9.6395,-9.6395,-9.6395,-9.6395,-9.6395,-9.6395,-9.6395,-9.6395,-9.6395,-9.6395,-9.6395,-9.6395,-9.6395,-9.6395,-9.6395,-9.6395,-9.6395,-9.6395,-9.6395,-9.6395,-9.6395,-9.6395,-9.6395,-9.6395,-9.6395,-9.6395,-9.6395,-9.6395,-9.6395,-9.6395,-9.6395,-9.6395,-9.6395,-9.6395,-9.6395,-9.6395,-9.6395,-9.6395,-9.6395,-9.6395,-9.6395,-9.5614,-9.4052,-9.2881,-9.1758,-9.0685,-9.0636,-9.088,-9.2539,-9.415,-9.5175,-9.62,-9.6395,-9.6395,-9.6395,-9.6395,-9.6395,-9.6395,-9.6395,-9.6395,-9.6395,-9.6395,-9.6395,-9.6395,-9.6395,-9.6395,-9.6395,-9.6395,-9.6395,-9.6395,-9.6395,-9.6395,-9.6395,-9.6395,-9.6395,-9.6395,-9.6395,-9.6395,-9.6395,-9.6395,-9.6395,-9.6395,-9.6395,-9.6395,-9.6395,-9.6395,-9.6395,-11.4879,-11.4879,-11.4879,-11.4879,-11.4879,-11.4879,-11.4879,-11.4879,-11.4879,-11.4879,-11.4879,-11.4879,-11.4879,-11.4879,-11.4879,-11.4879,-11.4879,-11.4879,-11.4879,-11.4082,-11.3172,-11.1655,-10.8674,-10.5319,-10.2678,-10.0817,-9.8039,-9.6395,-9.6395,-9.6395,-9.6395,-9.6395,-9.6395,-9.6395,-9.6395,-9.6395,-9.6395,-9.6395,-9.6395,-9.6395,-9.6395,-9.6395,-9.6395,-9.6395,-9.6395,-9.6395,-9.6395,-9.6395,-9.6395,-9.6395,-9.6395,-9.6395,-9.6395,-9.6395,-9.6395,-9.6395,-9.6395,-9.6395,-9.6395,-9.6395,-9.6395,-9.6395,-9.6395,-9.6395,-9.6395,-9.6395,-9.6395,-9.6346,-9.6346,-9.5419,-9.3857,-9.2881,-9.1758,-9.0685,-9.0392,-9.1075,-9.2637,-9.4199,-9.537,-9.6249,-9.6395,-9.6395,-9.6395,-9.6395,-9.6395,-9.6395,-9.6395,-9.6395,-9.6395,-9.6395,-9.6395,-9.6395,-9.6395,-9.6395,-9.6395,-9.6395,-9.6395,-9.6395,-9.6395,-9.6395,-9.6395,-9.6395,-9.6395,-9.6395,-9.6395,-9.6395,-9.6395,-9.6395,-9.6395,-9.6395,-9.6395,-9.6395,-9.6395,-9.6395,-9.6395,-11.4879,-11.4879,-11.4879,-11.4879,-11.4879,-11.4879,-11.4879,-11.4879,-11.4879,-11.4879,-11.4879,-11.4879,-11.4879,-11.4879,-11.4879,-11.4879,-11.4879,-11.4879,-11.4879,-11.4082,-11.1872,-11.0285,-10.8112,-10.3975,-10.1058,-9.9412,-9.8039,-9.6395,-9.6395,-9.6395,-9.6395,-9.6395,-9.6395,-9.6395,-9.6395,-9.6395,-9.6395,-9.6395,-9.6395,-9.6395,-9.6395,-9.6395,-9.6395,-9.6395,-9.6395,-9.6395,-9.6395,-9.6395,-9.6395,-9.6395,-9.6395,-9.6395,-9.6395,-9.6395,-9.6395,-9.6395,-9.6395,-9.6395,-9.6395,-9.6395,-9.6395,-9.6395,-9.6395,-9.6395,-9.6395,-9.6395,-9.6395,-9.6298,-9.5809,-9.4736,-9.3613,-9.2881,-9.2051,-9.0977,-9.0099,-9.1466,-9.2881,-9.4248,-9.5565,-9.6053,-9.6346,-9.6395,-9.6395,-9.6395,-9.6395,-9.6395,-9.6395,-9.6395,-9.6395,-9.6395,-9.6395,-9.6395,-9.6395,-9.6395,-9.6395,-9.6395,-9.6395,-9.6395,-9.6395,-9.6395,-9.6395,-9.6395,-9.6395,-9.6395,-9.6395,-9.6395,-9.6395,-9.6395,-9.6395,-9.6395,-9.6395,-9.6395,-9.6395,-9.6395,-9.6395,-11.4879,-11.4879,-11.4879,-11.4879,-11.4879,-11.4879,-11.4879,-11.4879,-11.4879,-11.4879,-11.4879,-11.4879,-11.4879,-11.4879,-11.4879,-11.4879,-11.4879,-11.4879,-11.4774,-11.4563,-11.0944,-10.8112,-10.5665,-10.2678,-9.9534,-9.7544,-9.652,-9.6395,-9.6395,-9.6395,-9.6395,-9.6395,-9.6395,-9.6395,-9.6395,-9.6395,-9.6395,-9.6395,-9.6395,-9.6395,-9.6395,-9.6395,-9.6395,-9.6395,-9.6395,-9.6395,-9.6395,-9.6395,-9.6395,-9.6395,-9.6395,-9.6395,-9.6395,-9.6395,-9.6395,-9.6395,-9.6395,-9.6395,-9.6395,-9.6395,-9.6395,-9.6395,-9.6395,-9.6395,-9.6395,-9.6395,-9.6395,-9.6346,-9.5565,-9.4492,-9.3418,-9.2588,-9.1661,-9.0587,-9.0245,-9.1075,-9.2344,-9.3467,-9.4784,-9.5809,-9.6102,-9.6395,-9.6395,-9.6395,-9.6395,-9.6395,-9.6395,-9.6395,-9.6395,-9.6395,-9.6395,-9.6395,-9.6395,-9.6395,-9.6395,-9.6395,-9.6395,-9.6395,-9.6395,-9.6395,-9.6395,-9.6395,-9.6395,-9.6395,-9.6395,-9.6395,-9.6395,-9.6395,-9.6395,-9.6395,-9.6395,-9.6395,-9.6395,-9.6395,-9.6395,-11.4879,-11.4879,-11.4879,-11.4879,-11.4879,-11.4879,-11.4879,-11.4879,-11.4879,-11.4879,-11.4879,-11.4879,-11.4879,-11.4879,-11.4879,-11.4879,-11.4879,-11.4879,-11.3976,-11.247,-10.8674,-10.6125,-10.2915,-9.9778,-9.7791,-9.6971,-9.6395,-9.6395,-9.6395,-9.6395,-9.6395,-9.6395,-9.6395,-9.6395,-9.6395,-9.6395,-9.6395,-9.6395,-9.6395,-9.6395,-9.6395,-9.6395,-9.6395,-9.6395,-9.6395,-9.6395,-9.6395,-9.6395,-9.6395,-9.6395,-9.6395,-9.6395,-9.6395,-9.6395,-9.6395,-9.6395,-9.6395,-9.6395,-9.6395,-9.6395,-9.6395,-9.6395,-9.6395,-9.6395,-9.6395,-9.6395,-9.6395,-9.6151,-9.5273,-9.4345,-9.3271,-9.2198,-9.1124,-9.0148,-9.0441,-9.0733,-9.171,-9.2735,-9.3955,-9.5224,-9.5907,-9.6298,-9.6395,-9.6395,-9.6395,-9.6395,-9.6395,-9.6395,-9.6395,-9.6395,-9.6395,-9.6395,-9.6395,-9.6395,-9.6395,-9.6395,-9.6395,-9.6395,-9.6395,-9.6395,-9.6395,-9.6395,-9.6395,-9.6395,-9.6395,-9.6395,-9.6395,-9.6395,-9.6395,-9.6395,-9.6395,-9.6395,-9.6395,-9.6395,-9.6395,-11.4879,-11.4879,-11.4879,-11.4879,-11.4879,-11.4879,-11.4879,-11.4879,-11.4879,-11.4879,-11.4879,-11.4879,-11.4879,-11.4879,-11.4879,-11.4879,-11.4879,-11.4563,-11.3172,-11.0891,-10.8225,-10.4971,-10.1845,-9.8973,-9.6895,-9.6395,-9.6395,-9.6395,-9.6395,-9.6395,-9.6395,-9.6395,-9.6395,-9.6395,-9.6395,-9.6395,-9.6395,-9.6395,-9.6395,-9.6395,-9.6395,-9.6395,-9.6395,-9.6395,-9.6395,-9.6395,-9.6395,-9.6395,-9.6395,-9.6395,-9.6395,-9.6395,-9.6395,-9.6395,-9.6395,-9.6395,-9.6395,-9.6395,-9.6395,-9.6395,-9.6395,-9.6395,-9.6395,-9.6395,-9.6395,-9.6395,-9.6395,-9.5858,-9.5029,-9.415,-9.3125,-9.1856,-9.0636,-9.0148,-9.0148,-9.088,-9.2198,-9.3174,-9.4101,-9.5273,-9.6102,-9.6395,-9.6395,-9.6395,-9.6395,-9.6395,-9.6395,-9.6395,-9.6395,-9.6395,-9.6395,-9.6395,-9.6395,-9.6395,-9.6395,-9.6395,-9.6395,-9.6395,-9.6395,-9.6395,-9.6395,-9.6395,-9.6395,-9.6395,-9.6395,-9.6395,-9.6395,-9.6395,-9.6395,-9.6395,-9.6395,-9.6395,-9.6395,-9.6395,-9.6395,-11.4879,-11.4879,-11.4879,-11.4879,-11.4879,-11.4879,-11.4879,-11.4879,-11.4879,-11.4879,-11.4879,-11.4879,-11.4879,-11.4879,-11.4879,-11.4879,-11.4879,-11.4879,-11.3976,-11.2146,-10.7887,-10.5603,-10.2559,-9.8973,-9.6971,-9.6395,-9.6395,-9.6395,-9.6395,-9.6395,-9.6395,-9.6395,-9.6395,-9.6395,-9.6395,-9.6395,-9.6395,-9.6395,-9.6395,-9.6395,-9.6395,-9.6395,-9.6395,-9.6395,-9.6395,-9.6395,-9.6395,-9.6395,-9.6395,-9.6395,-9.6395,-9.6395,-9.6395,-9.6395,-9.6395,-9.6395,-9.6395,-9.6395,-9.6395,-9.6395,-9.6395,-9.6395,-9.6395,-9.6395,-9.6395,-9.6395,-9.6249,-9.5663,-9.4589,-9.376,-9.2881,-9.1514,-9.0245,-9.0197,-9.0099,-9.1075,-9.2442,-9.3564,-9.4443,-9.5175,-9.5956,-9.6395,-9.6395,-9.6395,-9.6395,-9.6395,-9.6395,-9.6395,-9.6395,-9.6395,-9.6395,-9.6395,-9.6395,-9.6395,-9.6395,-9.6395,-9.6395,-9.6395,-9.6395,-9.6395,-9.6395,-9.6395,-9.6395,-9.6395,-9.6395,-9.6395,-9.6395,-9.6395,-9.6395,-9.6395,-9.6395,-9.6395,-9.6395,-9.6395,-9.6395,-11.4879,-11.4879,-11.4879,-11.4879,-11.4879,-11.4879,-11.4879,-11.4879,-11.4879,-11.4879,-11.4879,-11.4879,-11.4879,-11.4879,-11.4879,-11.4879,-11.4879,-11.4774,-11.4082,-10.8617,-10.6462,-10.374,-10.0696,-9.7345,-9.652,-9.6395,-9.6395,-9.6395,-9.6395,-9.6395,-9.6395,-9.6395,-9.6395,-9.6395,-9.6395,-9.6395,-9.6395,-9.6395,-9.6395,-9.6395,-9.6395,-9.6395,-9.6395,-9.6395,-9.6395,-9.6395,-9.6395,-9.6395,-9.6395,-9.6395,-9.6395,-9.6395,-9.6395,-9.6395,-9.6395,-9.6395,-9.6395,-9.6395,-9.6395,-9.6395,-9.6395,-9.6395,-9.6395,-9.6395,-9.6395,-9.6395,-9.6102,-9.5273,-9.4004,-9.3027,-9.21,-9.1026,-9.0245,-9.0343,-9.0489,-9.1005,-9.2393,-9.3857,-9.4784,-9.5126,-9.5712,-9.6151,-9.6395,-9.6395,-9.6395,-9.6395,-9.6395,-9.6395,-9.6395,-9.6395,-9.6395,-9.6395,-9.6395,-9.6395,-9.6395,-9.6395,-9.6395,-9.6395,-9.6395,-9.6395,-9.6395,-9.6395,-9.6395,-9.6395,-9.6395,-9.6395,-9.6395,-9.6395,-9.6395,-9.6395,-9.6395,-9.6395,-9.6395,-9.6395,-9.6395,-11.4879,-11.4879,-11.4879,-11.4879,-11.4879,-11.4879,-11.4879,-11.4879,-11.4879,-11.4879,-11.4879,-11.4879,-11.4879,-11.4879,-11.4879,-11.4879,-11.4879,-11.4669,-11.2685,-10.7774,-10.6179,-10.2322,-9.9168,-9.7593,-9.6395,-9.6395,-9.6395,-9.6395,-9.6395,-9.6395,-9.6395,-9.6395,-9.6395,-9.6395,-9.6395,-9.6395,-9.6444,-9.6444,-9.6444,-9.6395,-9.6395,-9.6395,-9.6395,-9.6395,-9.6395,-9.6395,-9.6395,-9.6395,-9.6395,-9.6395,-9.6395,-9.6395,-9.6395,-9.6395,-9.6395,-9.6395,-9.6395,-9.6395,-9.6395,-9.6395,-9.6395,-9.6395,-9.6395,-9.6395,-9.6395,-9.6395,-9.5809,-9.4882,-9.3808,-9.2783,-9.171,-9.0685,-9.0538,-9.0636,-9.1075,-9.159,-9.2735,-9.415,-9.5077,-9.5419,-9.5712,-9.62,-9.6395,-9.6395,-9.6395,-9.6395,-9.6395,-9.6395,-9.6395,-9.6395,-9.6395,-9.6395,-9.6395,-9.6395,-9.6395,-9.6395,-9.6395,-9.6395,-9.6395,-9.6395,-9.6395,-9.6395,-9.6395,-9.6395,-9.6395,-9.6395,-9.6395,-9.6395,-9.6395,-9.6395,-9.6395,-9.6395,-9.6395,-9.6395,-9.6346,-11.4879,-11.4879,-11.4879,-11.4879,-11.4879,-11.4879,-11.4879,-11.4879,-11.4879,-11.4879,-11.4879,-11.4879,-11.4879,-11.4879,-11.4879,-11.4879,-11.4879,-11.4774,-11.2578,-10.9121,-10.6523,-10.374,-10.0455,-9.7791,-9.6395,-9.6395,-9.6395,-9.6395,-9.6395,-9.6395,-9.6395,-9.6395,-9.6395,-9.6395,-9.6395,-9.6444,-9.6493,-9.6493,-9.6542,-9.6493,-9.6444,-9.6395,-9.6395,-9.6395,-9.6395,-9.6395,-9.6395,-9.6395,-9.6395,-9.6395,-9.6395,-9.6395,-9.6395,-9.6395,-9.6395,-9.6395,-9.6395,-9.6395,-9.6395,-9.6395,-9.6395,-9.6395,-9.6395,-9.6395,-9.6395,-9.62,-9.5712,-9.4443,-9.3515,-9.2539,-9.171,-9.088,-9.1124,-9.1368,-9.1856,-9.2539,-9.3711,-9.5103,-9.5517,-9.5956,-9.6249,-9.6395,-9.6395,-9.6395,-9.6395,-9.6395,-9.6395,-9.6395,-9.6395,-9.6395,-9.6395,-9.6395,-9.6395,-9.6395,-9.6395,-9.6395,-9.6395,-9.6395,-9.6395,-9.6395,-9.6395,-9.6395,-9.6395,-9.6395,-9.6395,-9.6395,-9.6395,-9.652,-9.6395,-9.6395,-9.6395,-9.6395,-9.6395,-9.6395,-9.62,-11.4879,-11.4879,-11.4879,-11.4879,-11.4879,-11.4879,-11.4879,-11.4879,-11.4879,-11.4879,-11.4879,-11.4879,-11.4879,-11.4879,-11.4879,-11.4879,-11.4879,-11.4563,-11.1547,-10.8617,-10.5834,-10.2559,-9.9218,-9.6971,-9.6395,-9.6395,-9.6395,-9.6395,-9.6395,-9.6395,-9.6395,-9.6395,-9.6395,-9.6395,-9.659,-9.7078,-9.7518,-9.7518,-9.7469,-9.7274,-9.6444,-9.6395,-9.6395,-9.6395,-9.6395,-9.6395,-9.6395,-9.6395,-9.6395,-9.6395,-9.6395,-9.6395,-9.6395,-9.6395,-9.6395,-9.6395,-9.6395,-9.6395,-9.6395,-9.6395,-9.6395,-9.6395,-9.6395,-9.6395,-9.62,-9.5663,-9.498,-9.3808,-9.2832,-9.1954,-9.171,-9.1466,-9.171,-9.2539,-9.2979,-9.3564,-9.4687,-9.5419,-9.5956,-9.6298,-9.6346,-9.6395,-9.6395,-9.6395,-9.6395,-9.6395,-9.6395,-9.6395,-9.6395,-9.6395,-9.6395,-9.6395,-9.6395,-9.6395,-9.6395,-9.6395,-9.6395,-9.6395,-9.6395,-9.6395,-9.6395,-9.6395,-9.6395,-9.6395,-9.6395,-9.6395,-9.6646,-9.7096,-9.6895,-9.652,-9.6395,-9.6395,-9.6395,-9.6395,-9.6151,-11.4879,-11.4879,-11.4879,-11.4879,-11.4879,-11.4879,-11.4879,-11.4879,-11.4879,-11.4879,-11.4879,-11.4879,-11.4879,-11.4879,-11.4879,-11.4879,-11.4879,-11.4879,-11.1001,-10.7602,-10.5078,-10.1897,-9.8409,-9.652,-9.6395,-9.6395,-9.6395,-9.6395,-9.6395,-9.6395,-9.6395,-9.6395,-9.6395,-9.6395,-9.6737,-9.7322,-9.7811,-9.7957,-9.7859,-9.7469,-9.6639,-9.6395,-9.6395,-9.6395,-9.6395,-9.6395,-9.6395,-9.6395,-9.6395,-9.6395,-9.6395,-9.6395,-9.6395,-9.6395,-9.6395,-9.6395,-9.6395,-9.6395,-9.6395,-9.6395,-9.6395,-9.6395,-9.6395,-9.6395,-9.6346,-9.5468,-9.4345,-9.3418,-9.2637,-9.2149,-9.1905,-9.2051,-9.2637,-9.3564,-9.4296,-9.4784,-9.5419,-9.5907,-9.6346,-9.6346,-9.6395,-9.6395,-9.6395,-9.6395,-9.6395,-9.6395,-9.6395,-9.6395,-9.6395,-9.6395,-9.6395,-9.6395,-9.6395,-9.6395,-9.6395,-9.6395,-9.6395,-9.6395,-9.6395,-9.6395,-9.6395,-9.652,-9.722,-9.652,-9.6395,-9.6646,-9.6971,-9.7593,-9.7469,-9.6771,-9.6395,-9.6895,-9.6646,-9.6395,-9.5907,-11.4879,-11.4879,-11.4879,-11.4879,-11.4879,-11.4879,-11.4879,-11.4879,-11.4879,-11.4879,-11.4879,-11.4937,-11.4996,-11.517,-11.5403,-11.5577,-11.5286,-11.4843,-11.1062,-10.7593,-10.5078,-10.1538,-9.8286,-9.6395,-9.6395,-9.6395,-9.6395,-9.6395,-9.6395,-9.6395,-9.6395,-9.6395,-9.6395,-9.6444,-9.6932,-9.7859,-9.8396,-9.8738,-9.8396,-9.7762,-9.6786,-9.6395,-9.6395,-9.6395,-9.6395,-9.6395,-9.6395,-9.6395,-9.6395,-9.6395,-9.6395,-9.6395,-9.6395,-9.6395,-9.6395,-9.6395,-9.6395,-9.6395,-9.6395,-9.6395,-9.6395,-9.6395,-9.6395,-9.6395,-9.6346,-9.5419,-9.4443,-9.3564,-9.3076,-9.2637,-9.2588,-9.2686,-9.3711,-9.454,-9.5126,-9.5565,-9.5907,-9.6346,-9.6395,-9.6395,-9.6395,-9.6395,-9.6395,-9.6395,-9.6395,-9.6395,-9.6395,-9.6395,-9.6395,-9.652,-9.6395,-9.6771,-9.6771,-9.6971,-9.6971,-9.7593,-9.8605,-9.8728,-9.9341,-9.8851,-9.8039,-9.8039,-9.9218,-9.8851,-9.9585,-9.8039,-9.7345,-9.9656,-10.0385,-9.8039,-9.7469,-9.9096,-9.9463,-9.9707,-9.8665,-11.4879,-11.4879,-11.4879,-11.4879,-11.4879,-11.4879,-11.4879,-11.4879,-11.4879,-11.4879,-11.4879,-11.4996,-11.5519,-11.6275,-11.7148,-11.7497,-11.7398,-11.4295,-11.0562,-10.698,-10.3623,-10.0295,-9.7741,-9.6444,-9.6444,-9.6395,-9.6395,-9.6395,-9.6395,-9.6395,-9.6395,-9.6395,-9.6395,-9.6786,-9.7615,-9.8591,-9.9519,-10.0007,-9.9519,-9.8201,-9.6737,-9.6395,-9.6395,-9.6395,-9.6395,-9.6395,-9.6395,-9.6395,-9.6395,-9.6395,-9.6395,-9.6395,-9.6395,-9.6395,-9.6395,-9.6395,-9.6395,-9.6395,-9.6395,-9.6395,-9.6395,-9.6395,-9.6395,-9.6395,-9.6249,-9.5468,-9.454,-9.415,-9.3662,-9.3613,-9.3857,-9.4101,-9.4882,-9.5419,-9.5858,-9.6102,-9.6346,-9.6395,-9.6395,-9.6395,-9.6395,-9.6395,-9.62,-9.6298,-9.6395,-9.6395,-9.6395,-9.6395,-9.652,-9.6646,-9.6971,-9.7791,-9.8359,-9.9534,-9.9656,-10.0142,-10.0938,-10.1726,-10.3033,-10.3151,-10.273,-10.2493,-10.1778,-10.273,-10.3857,-10.2678,-10.1178,-10.2797,-10.4209,-10.2612,-10.159,-10.2374,-10.273,-10.3675,-10.3032,-11.4879,-11.4879,-11.4879,-11.4879,-11.4879,-11.4879,-11.4879,-11.4879,-11.4879,-11.4879,-11.4996,-11.5403,-11.6101,-11.6915,-11.8195,-11.8835,-11.7948,-11.4769,-11.1213,-10.7974,-10.4435,-10.0673,-9.7757,-9.7078,-9.6688,-9.659,-9.6395,-9.6493,-9.6395,-9.6395,-9.6395,-9.6395,-9.6444,-9.6932,-9.7908,-9.908,-10.0202,-10.069,-10.0153,-9.8591,-9.6981,-9.6395,-9.6395,-9.6395,-9.6395,-9.6395,-9.6395,-9.6395,-9.6395,-9.6395,-9.6395,-9.6395,-9.6395,-9.6395,-9.6395,-9.6395,-9.6395,-9.6395,-9.6395,-9.6395,-9.6395,-9.6395,-9.6395,-9.6346,-9.62,-9.5468,-9.4687,-9.4199,-9.3857,-9.4101,-9.4589,-9.5224,-9.5809,-9.6102,-9.6249,-9.6395,-9.6395,-9.6395,-9.6395,-9.6395,-9.6395,-9.5956,-9.5614,-9.6107,-9.6775,-9.7074,-9.7492,-9.8127,-9.8493,-9.8355,-9.8851,-9.9362,-10.0835,-10.2203,-10.2441,-10.3151,-10.4273,-10.4326,-10.5603,-10.6064,-10.6348,-10.6118,-10.4845,-10.5078,-10.6179,-10.6408,-10.5895,-10.624,-10.6751,-10.6294,-10.5888,-10.4962,-10.4379,-10.5372,-10.5754,-11.4879,-11.4879,-11.4879,-11.4669,-11.4294,-11.4188,-11.4082,-11.3657,-11.387,-11.4246,-11.3358,-11.5196,-11.578,-11.6144,-11.7289,-11.8688,-11.7917,-11.5169,-11.1667,-10.8958,-10.4929,-10.0879,-9.8309,-9.8103,-9.7615,-9.6542,-9.659,-9.6542,-9.6444,-9.6395,-9.6395,-9.6395,-9.6493,-9.6932,-9.8006,-9.9128,-10.0202,-10.0885,-10.0202,-9.8787,-9.7225,-9.659,-9.6444,-9.6395,-9.6395,-9.6395,-9.6395,-9.6395,-9.6395,-9.6395,-9.6395,-9.6395,-9.6395,-9.6395,-9.6395,-9.6395,-9.6395,-9.6395,-9.6395,-9.6395,-9.6395,-9.6395,-9.6151,-9.62,-9.5761,-9.5029,-9.415,-9.332,-9.4345,-9.5029,-9.5321,-9.5858,-9.6249,-9.6395,-9.6395,-9.6395,-9.6395,-9.6395,-9.6395,-9.6395,-9.6395,-9.5858,-9.5448,-9.626,-9.7296,-9.7999,-9.8803,-10.0316,-10.1309,-10.155,-10.1845,-10.2785,-10.3912,-10.4748,-10.5256,-10.6751,-10.7207,-10.6523,-10.7434,-10.8112,-10.8729,-10.9176,-10.7942,-10.7829,-10.7774,-10.8225,-10.9121,-10.9455,-10.9121,-10.9176,-10.9399,-10.828,-10.6691,-10.6816,-10.7616,-11.4879,-11.4879,-11.4879,-11.3386,-11.1381,-11.1163,-10.9954,-10.8337,-11.0175,-11.0456,-10.9316,-11.1683,-11.2968,-11.3034,-11.5264,-11.8401,-12.1126,-11.4435,-11.1859,-10.9529,-10.4307,-10.0106,-9.872,-9.8543,-9.8347,-9.6932,-9.7127,-9.7225,-9.659,-9.6395,-9.6395,-9.6395,-9.6395,-9.6932,-9.8006,-9.9128,-10.0202,-10.0641,-10.0251,-9.9616,-9.864,-9.742,-9.6395,-9.6395,-9.6395,-9.6395,-9.6395,-9.6395,-9.6395,-9.6395,-9.6395,-9.6395,-9.6395,-9.6395,-9.6395,-9.6395,-9.6395,-9.6395,-9.6395,-9.6395,-9.6395,-9.62,-9.5614,-9.5224,-9.4882,-9.4345,-9.3808,-9.454,-9.537,-9.5956,-9.5956,-9.6249,-9.6395,-9.6395,-9.6395,-9.6395,-9.6395,-9.6395,-9.6395,-9.6395,-9.6395,-9.6183,-9.5889,-9.6598,-9.8738,-9.9504,-10.0424,-10.1994,-10.3652,-10.4108,-10.473,-10.5771,-10.695,-10.7613,-10.8729,-11.0285,-11.0065,-10.951,-11.0065,-11.0781,-11.1438,-11.2038,-11.247,-11.2254,-11.1872,-11.111,-11.2793,-11.3599,-11.2578,-11.2146,-11.2793,-11.2578,-11.1381,-11.0937,-11.01,-11.4879,-11.4879,-11.4879,-11.3065,-11.0506,-11.0285,-10.878,-10.6934,-10.8024,-10.8562,-10.9308,-11.187,-11.3499,-11.4324,-11.7198,-12.0169,-12.0343,-11.5187,-11.2259,-11.0436,-10.4915,-10.0641,-9.9909,-9.9568,-9.8591,-9.7762,-9.7615,-9.742,-9.6493,-9.6395,-9.6395,-9.6395,-9.6395,-9.6932,-9.8006,-9.9031,-9.9958,-10.0397,-10.0446,-9.9958,-9.8738,-9.7908,-9.6834,-9.659,-9.6395,-9.6395,-9.6395,-9.6395,-9.6395,-9.6395,-9.6395,-9.6395,-9.6395,-9.6395,-9.6395,-9.6395,-9.6395,-9.6395,-9.6395,-9.6395,-9.6151,-9.5712,-9.5175,-9.4638,-9.4004,-9.3662,-9.3711,-9.4687,-9.5712,-9.6395,-9.6395,-9.6395,-9.6395,-9.6395,-9.6395,-9.6395,-9.6395,-9.6395,-9.6395,-9.6395,-9.7025,-9.7334,-9.6846,-9.8273,-10.0018,-10.1214,-10.2049,-10.3833,-10.5757,-10.6505,-10.7239,-10.8609,-11.0466,-11.1305,-11.2254,-11.3065,-11.2958,-11.285,-11.3172,-11.3657,-11.4082,-11.3763,-11.4352,-11.4879,-11.4879,-11.387,-11.4774,-11.4774,-11.4774,-11.4669,-11.4294,-11.413,-11.4494,-11.4181,-11.2511,-11.4879,-11.4879,-11.4879,-11.2857,-10.9955,-10.9733,-10.8187,-10.6418,-10.6405,-10.7161,-10.8035,-11.2472,-11.409,-11.5224,-11.937,-12.154,-11.9941,-11.5674,-11.2591,-11.148,-10.5594,-10.1618,-10.0544,-9.9909,-9.9031,-9.825,-9.7957,-9.742,-9.6639,-9.6395,-9.6395,-9.6395,-9.6395,-9.6737,-9.7713,-9.8738,-9.9324,-9.947,-10.0153,-9.9763,-9.8591,-9.7859,-9.742,-9.6493,-9.6395,-9.6395,-9.6395,-9.6395,-9.6395,-9.6395,-9.6395,-9.6395,-9.6395,-9.6395,-9.6395,-9.6395,-9.6395,-9.6395,-9.6346,-9.6249,-9.5614,-9.5029,-9.454,-9.3955,-9.3271,-9.3076,-9.3467,-9.4443,-9.5321,-9.62,-9.6346,-9.6395,-9.6395,-9.6395,-9.6395,-9.6395,-9.6395,-9.652,-9.6646,-9.7742,-9.8283,-9.8754,-9.9516,-10.061,-10.1757,-10.2361,-10.4148,-10.6375,-10.7269,-10.7871,-10.8815,-11.0763,-11.3018,-11.389,-11.4588,-11.453,-11.46,-11.4062,-11.4226,-11.4705,-11.4879,-11.4879,-11.4879,-11.4879,-11.4879,-11.4879,-11.4879,-11.4879,-11.4879,-11.4879,-11.4879,-11.4716,-11.4298,-11.3716,-11.2669,-11.4879,-11.4879,-11.4879,-11.2169,-10.8107,-10.7813,-10.5315,-10.1858,-10.3565,-10.4428,-10.3847,-10.8921,-11.1449,-11.0985,-11.5913,-11.8322,-11.7619,-11.4648,-11.2998,-11.1852,-10.5285,-10.167,-10.03,-9.9616,-9.8964,-9.8103,-9.7859,-9.7371,-9.6639,-9.6395,-9.6395,-9.6395,-9.6395,-9.659,-9.6883,-9.7713,-9.8347,-9.8494,-9.9519,-9.947,-9.825,-9.8055,-9.7567,-9.6737,-9.6493,-9.6395,-9.6395,-9.6395,-9.6395,-9.6395,-9.6395,-9.6395,-9.6395,-9.6395,-9.6395,-9.6395,-9.6298,-9.6249,-9.6102,-9.5517,-9.4931,-9.4833,-9.4004,-9.293,-9.2393,-9.2588,-9.3174,-9.3808,-9.4687,-9.5663,-9.6298,-9.6395,-9.6395,-9.6395,-9.6395,-9.6395,-9.6395,-9.6395,-9.7791,-9.9261,-9.9759,-10.0563,-10.1552,-10.2796,-10.3146,-10.3895,-10.6596,-10.8476,-10.833,-10.862,-10.9241,-11.0706,-11.2087,-11.3076,-11.3425,-11.3483,-11.4181,-11.4088,-11.4204,-11.4588,-11.4879,-11.4879,-11.4879,-11.4879,-11.4879,-11.4879,-11.4879,-11.4879,-11.4879,-11.4879,-11.4647,-11.4007,-11.3541,-11.3134,-11.168,-11.4879,-11.4879,-11.4879,-11.2006,-10.7797,-10.7202,-10.478,-10.1757,-10.3853,-10.4126,-10.3784,-10.8978,-11.1232,-11.0964,-11.525,-11.8728,-11.948,-11.8495,-11.6198,-11.1604,-10.5695,-10.1603,-10.0544,-9.9062,-9.8802,-9.9331,-9.8134,-9.7058,-9.6542,-9.6395,-9.6395,-9.6395,-9.6395,-9.6395,-9.6542,-9.7518,-9.7664,-9.7664,-9.9226,-9.9665,-9.8445,-9.8494,-9.8347,-9.7469,-9.6688,-9.6395,-9.6395,-9.6395,-9.6395,-9.6395,-9.6395,-9.6395,-9.6395,-9.6395,-9.6395,-9.6298,-9.5956,-9.5565,-9.5321,-9.4589,-9.3711,-9.3125,-9.2686,-9.1639,-9.1368,-9.2246,-9.2979,-9.3467,-9.4589,-9.5809,-9.6346,-9.6395,-9.6395,-9.6395,-9.6395,-9.6395,-9.6395,-9.6395,-9.7544,-10.0028,-10.0997,-10.1971,-10.3615,-10.5161,-10.5582,-10.524,-10.7909,-10.8008,-10.7957,-10.8481,-10.9121,-10.9702,-11.104,-11.1913,-11.2204,-11.2611,-11.3251,-11.3832,-11.4181,-11.4705,-11.4879,-11.4879,-11.4879,-11.4879,-11.4879,-11.4879,-11.4879,-11.4821,-11.4821,-11.4356,-11.3716,-11.3076,-11.2436,-11.168,-11.0459,-11.3336,-11.387,-11.3459,-11.1014,-10.794,-10.7134,-10.5022,-10.1964,-10.5093,-10.5083,-10.4662,-10.9762,-11.2452,-11.2875,-11.5968,-11.948,-12.2049,-12.1882,-11.9653,-11.3257,-10.6571,-10.2964,-10.1487,-9.9239,-9.9008,-9.9736,-9.8039,-9.7217,-9.7145,-9.7096,-9.6597,-9.7096,-9.7096,-9.6395,-9.6493,-9.7176,-9.7176,-9.7078,-9.9324,-9.9714,-9.8494,-9.8982,-9.9031,-9.7957,-9.6932,-9.6444,-9.6395,-9.6395,-9.7096,-9.7915,-9.8113,-9.8086,-9.8328,-9.7715,-9.7197,-9.6604,-9.5473,-9.4443,-9.4248,-9.3467,-9.2442,-9.1905,-9.1639,-9.1152,-9.0538,-9.2344,-9.3418,-9.3857,-9.5175,-9.62,-9.6395,-9.6395,-9.6395,-9.6395,-9.6395,-9.6646,-9.742,-9.7914,-9.9806,-10.1857,-10.2797,-10.356,-10.6615,-10.7223,-10.7073,-10.7179,-10.7318,-10.7318,-10.7667,-10.8132,-10.8423,-10.8539,-10.9702,-11.0633,-11.0866,-11.1098,-11.2204,-11.3309,-11.4181,-11.4879,-11.4879,-11.4879,-11.4879,-11.4879,-11.4821,-11.4879,-11.4879,-11.4763,-11.4065,-11.3425,-11.2785,-11.1913,-11.104,-11.0168,-10.9279,-10.8225,-11.0562,-10.8869,-10.839,-10.8517,-10.6883,-10.5019,-10.3641,-10.6106,-10.5738,-10.4943,-10.9888,-11.2875,-11.2998,-11.6381,-11.9424,-12.2615,-12.2728,-12.0113,-11.5352,-10.9255,-10.4934,-10.4228,-10.1778,-10.0781,-10.0984,-9.8957,-9.8784,-9.8682,-9.7345,-9.7915,-9.8605,-9.7345,-9.652,-9.6493,-9.6542,-9.6542,-9.6834,-9.8738,-9.908,-9.8494,-9.8884,-9.8933,-9.7957,-9.6981,-9.6444,-9.6395,-9.6646,-9.8751,-10.4326,-10.2084,-10.1173,-10.2149,-10.0161,-9.8738,-9.7264,-9.4917,-9.332,-9.3174,-9.2393,-9.1542,-9.1514,-9.1395,-9.1395,-9.1758,-9.3027,-9.4296,-9.4394,-9.5663,-9.6298,-9.6395,-9.6395,-9.6395,-9.6395,-9.6646,-9.7915,-10.006,-10.2091,-10.4221,-10.6963,-10.5352,-10.6037,-10.748,-10.8149,-10.7318,-10.7318,-10.7318,-10.7318,-10.7492,-10.7725,-10.7783,-10.7841,-10.8539,-10.9353,-10.947,-10.9644,-11.1273,-11.2727,-11.3658,-11.4414,-11.4414,-11.4705,-11.4821,-11.4705,-11.4414,-11.4356,-11.4414,-11.389,-11.3192,-11.2494,-11.1622,-11.0633,-10.9702,-10.9046,-10.8697,-11.0175,-11.285,-11.2112,-11.1683,-11.1394,-10.873,-10.6892,-10.6156,-10.7135,-10.6877,-10.6877,-11.0767,-11.3854,-11.561,-11.6974,-11.9424,-12.2333,-12.2728,-12.0744,-11.6987,-11.176,-10.949,-10.8145,-10.3387,-10.2128,-10.3256,-10.1035,-9.9448,-9.8286,-9.7096,-9.7096,-9.8063,-9.6971,-9.6395,-9.6395,-9.6395,-9.6395,-9.6688,-9.7811,-9.8494,-9.8055,-9.8494,-9.8347,-9.7957,-9.6981,-9.6395,-9.6395,-9.6395,-9.8514,-10.2001,-10.2374,-10.1819,-10.2364,-9.9966,-9.8185,-9.7542,-9.4163,-9.2246,-9.2051,-9.127,-9.0733,-9.0685,-9.0685,-9.0977,-9.1758,-9.2881,-9.4248,-9.4784,-9.5809,-9.6298,-9.6395,-9.6395,-9.6395,-9.6597,-9.8039,-10.0079,-10.239,-10.3478,-10.4915,-10.6128,-10.5975,-10.5793,-10.872,-10.8074,-10.7434,-10.7318,-10.7318,-10.7318,-10.7318,-10.7318,-10.7376,-10.7434,-10.7899,-10.819,-10.8365,-10.8946,-11.0284,-11.1506,-11.2553,-11.3483,-11.3832,-11.4356,-11.453,-11.4588,-11.4065,-11.36,-11.3192,-11.2727,-11.2029,-11.1215,-11.0459,-10.9528,-10.8655,-10.7783,-10.7783,-11.0835,-11.3608,-11.3428,-11.3527,-11.3242,-11.0026,-10.8567,-10.9026,-10.913,-10.9256,-10.971,-11.2575,-11.537,-11.7445,-11.7563,-11.9424,-12.1995,-12.2728,-12.1086,-11.8615,-11.472,-11.2897,-11.1539,-10.5431,-10.2757,-10.3781,-10.1165,-9.9348,-9.7949,-9.626,-9.663,-9.8155,-9.7173,-9.6053,-9.6395,-9.6395,-9.6395,-9.6542,-9.7469,-9.8006,-9.7957,-9.7811,-9.7615,-9.7547,-9.7023,-9.6334,-9.5641,-9.6949,-9.9262,-10.1723,-10.2455,-10.3285,-10.3832,-10.1416,-9.9352,-9.7853,-9.4535,-9.2068,-9.1263,-9.0489,-9.0099,-9.005,-9.0148,-9.0489,-9.1514,-9.2539,-9.3613,-9.4687,-9.5761,-9.6395,-9.6395,-9.6395,-9.6395,-9.6797,-9.9139,-10.1969,-10.4022,-10.487,-10.5747,-10.6784,-10.618,-10.6526,-10.7867,-10.7841,-10.7318,-10.7318,-10.7318,-10.7318,-10.7318,-10.7318,-10.7318,-10.7318,-10.7318,-10.7318,-10.7492,-10.8306,-10.9179,-11.0459,-11.1389,-11.2262,-11.2843,-11.3425,-11.389,-11.3949,-11.2785,-11.2436,-11.2029,-11.1389,-11.0633,-10.9819,-10.9179,-10.8597,-10.7667,-10.7318,-10.7376,-10.7774,-11.0233,-10.9951,-11.1584,-11.335,-10.98,-10.9813,-11.2029,-11.2099,-11.2045,-11.2959,-11.5215,-11.7104,-11.7568,-11.7755,-11.9256,-12.2162,-12.2325,-12.1814,-11.9935,-11.5961,-11.2406,-11.1908,-10.6989,-10.4066,-10.2766,-10.0051,-9.9601,-10.079,-9.6469,-9.6671,-10.1539,-9.7779,-9.5569,-9.6852,-9.6548,-9.685,-9.7147,-9.7757,-9.8122,-9.7869,-9.7261,-9.6771,-9.6624,-9.7116,-9.6469,-9.5516,-9.9089,-10.167,-10.2121,-10.4592,-10.6495,-10.7735,-10.5897,-10.2131,-9.879,-9.5833,-9.3235,-9.0916,-9.0518,-9.0352,-9.005,-9.0148,-9.0489,-9.1612,-9.2637,-9.3613,-9.4687,-9.5565,-9.62,-9.6151,-9.6352,-9.6601,-9.6876,-10.0204,-10.3213,-10.5897,-10.77,-10.8169,-10.8418,-10.795,-10.7336,-10.7353,-10.7492,-10.7318,-10.7318,-10.7318,-10.7318,-10.7318,-10.7318,-10.7318,-10.7318,-10.7318,-10.7318,-10.7318,-10.8016,-10.8423,-10.947,-11.0168,-11.0866,-11.1447,-11.2087,-11.2669,-11.1913,-11.1098,-11.1098,-11.0808,-10.9993,-10.9179,-10.8714,-10.8248,-10.7608,-10.7318,-10.7318,-10.7318,-11.0395,-11.3015,-11.2894,-11.3909,-11.5151,-11.1925,-11.2017,-11.3933,-11.1542,-11.201,-11.4233,-11.5024,-11.6242,-11.7998,-11.8334,-11.9061,-12.012,-12.0231,-12.0231,-11.9494,-11.6949,-11.4651,-11.1909,-11.0781,-10.8823,-10.5362,-10.3669,-10.2787,-10.1786,-9.8136,-9.811,-10.1359,-9.8638,-9.7534,-9.9673,-9.9841,-9.9841,-9.9893,-10.019,-9.957,-9.8328,-9.916,-9.8903,-9.7482,-9.7482,-9.7956,-9.9018,-10.2844,-10.4399,-10.3457,-10.5388,-10.7165,-10.7677,-10.5379,-10.2985,-10.108,-9.8578,-9.5736,-9.3146,-9.2627,-9.2105,-9.0499,-9.0636,-9.1466,-9.2344,-9.2783,-9.3613,-9.4443,-9.4835,-9.4345,-9.4713,-9.588,-9.794,-9.9608,-10.2663,-10.5142,-10.6316,-10.8194,-10.8905,-10.8132,-10.7608,-10.7376,-10.7318,-10.7318,-10.7318,-10.7318,-10.7318,-10.7318,-10.7318,-10.7318,-10.7318,-10.7318,-10.7318,-10.7318,-10.7318,-10.755,-10.7899,-10.8248,-10.8714,-10.9237,-10.9412,-10.9935,-11.0517,-10.9761,-10.9237,-10.9179,-10.9353,-10.8539,-10.8132,-10.7899,-10.7608,-10.7318,-10.7318,-10.7318,-10.7318,-11.29,-11.4832,-11.5286,-11.581,-11.5897,-11.3586,-11.3817,-11.5395,-11.2017,-11.2758,-11.5903,-11.5734,-11.6568,-11.845,-11.8776,-11.8835,-11.866,-11.7031,-11.6799,-11.7206,-11.6217,-11.4109,-11.2185,-11.2197,-11.0478,-10.7171,-10.5892,-10.4248,-10.198,-9.9216,-9.9645,-10.1531,-9.9796,-9.9781,-10.1557,-10.184,-10.184,-10.184,-10.184,-10.1054,-9.9351,-10.0511,-10.0411,-9.8663,-9.9029,-10.0606,-10.3388,-10.5038,-10.5357,-10.4551,-10.6214,-10.7318,-10.7063,-10.5458,-10.4031,-10.2952,-10.097,-9.8739,-9.6178,-9.5514,-9.445,-9.2205,-9.1992,-9.2433,-9.2171,-9.3132,-9.4342,-9.4938,-9.5724,-9.5847,-9.6201,-9.7788,-9.9773,-10.2034,-10.4942,-10.667,-10.6914,-10.7842,-10.8149,-10.7434,-10.7318,-10.7318,-10.7318,-10.7318,-10.7318,-10.7318,-10.7318,-10.7318,-10.7318,-10.7318,-10.7318,-10.7318,-10.7318,-10.7318,-10.7318,-10.7434,-10.6852,-10.6387,-10.6794,-10.7259,-10.7027,-10.7201,-10.7725,-10.7667,-10.7259,-10.7201,-10.7492,-10.7434,-10.7318,-10.7085,-10.7259,-10.7318,-10.7318,-10.7318,-10.7318,-11.4716,-11.4821,-11.6217,-11.5694,-11.4573,-11.3692,-11.4708,-11.6011,-11.4266,-11.4998,-11.7729,-11.8276,-11.7877,-11.8544,-11.8137,-11.8486,-11.7497,-11.3774,-11.296,-11.453,-11.1622,-11.0532,-11.0922,-10.9253,-10.7934,-10.7346,-10.4563,-10.3223,-10.3081,-10.0508,-10.0837,-10.3418,-10.1709,-10.1052,-10.2014,-10.2353,-10.2182,-10.2296,-10.2463,-10.2018,-10.1791,-10.127,-10.084,-10.0514,-10.2061,-10.4166,-10.6842,-10.4753,-10.4797,-10.6767,-10.7259,-10.7259,-10.7259,-10.7063,-10.5957,-10.3827,-10.3054,-10.1493,-9.9007,-9.8578,-9.7332,-9.4898,-9.4328,-9.3665,-9.2623,-9.4232,-9.607,-9.667,-9.8795,-10.1013,-10.0848,-10.1577,-10.2361,-10.32,-10.5613,-10.723,-10.7254,-10.7376,-10.7318,-10.7318,-10.7318,-10.7318,-10.7318,-10.7318,-10.7318,-10.7318,-10.7318,-10.7318,-10.7318,-10.7318,-10.7318,-10.7318,-10.7318,-10.7085,-10.7143,-10.7085,-10.5631,-10.4467,-10.4816,-10.4758,-10.4409,-10.4642,-10.5224,-10.5398,-10.4991,-10.5398,-10.5689,-10.6329,-10.6212,-10.6154,-10.7027,-10.7259,-10.7143,-10.7085,-10.7143,-11.3076,-11.2378,-11.2669,-11.2611,-11.2275,-11.1977,-11.3283,-11.5249,-11.3879,-11.4793,-11.6924,-11.6508,-11.6159,-11.6043,-11.5286,-11.4879,-11.453,-11.2262,-11.1389,-11.2087,-11.0982,-11.0575,-11.0691,-10.9353,-10.8697,-10.8323,-10.6717,-10.5857,-10.5558,-10.3054,-10.3382,-10.603,-10.3567,-10.3215,-10.5265,-10.5527,-10.5527,-10.5583,-10.5583,-10.4495,-10.313,-10.4149,-10.4186,-10.2833,-10.4563,-10.6412,-10.7161,-10.6412,-10.6412,-10.7161,-10.7318,-10.7318,-10.7318,-10.7318,-10.6866,-10.6114,-10.5857,-10.4639,-10.2069,-10.1548,-10.0338,-9.755,-9.7801,-9.8108,-9.7218,-9.809,-9.8694,-9.881,-9.9697,-9.9596,-10.0247,-10.3291,-10.5549,-10.5987,-10.6767,-10.7259,-10.7318,-10.7318,-10.7318,-10.7318,-10.7318,-10.7318,-10.7318,-10.7318,-10.7318,-10.7318,-10.7318,-10.7318,-10.7318,-10.7318,-10.7318,-10.7259,-10.7201,-10.6736,-10.598,-10.5165,-10.3828,-10.2839,-10.2781,-10.2083,-10.1675,-10.2257,-10.2664,-10.2839,-10.3071,-10.3537,-10.4118,-10.4875,-10.4933,-10.4642,-10.5398,-10.6465,-10.6717,-10.6756,-10.7145,-11.1738,-11.0982,-11.0982,-11.0749,-11.04,-11.0808,-11.168,-11.2843,-11.2902,-11.3949,-11.517,-11.5112,-11.4879,-11.4763,-11.2611,-11.1855,-11.2029,-11.04,-11.011,-11.0866,-11.0051,-10.9935,-11.0168,-10.9063,-10.8481,-10.8423,-10.7667,-10.7318,-10.7063,-10.5558,-10.5558,-10.6767,-10.5458,-10.5458,-10.6964,-10.7318,-10.7318,-10.7318,-10.7318,-10.6412,-10.4955,-10.6313,-10.6511,-10.4797,-10.6412,-10.7318,-10.7318,-10.7318,-10.7318,-10.7318,-10.7318,-10.7318,-10.7318,-10.7318,-10.7318,-10.7318,-10.7318,-10.6511,-10.4898,-10.4595,-10.326,-10.0604,-10.0889,-10.0787,-10.0085,-10.0626,-10.1271,-10.1375,-10.1354,-10.1757,-10.2427,-10.4942,-10.7318,-10.7259,-10.7259,-10.7318,-10.7318,-10.7318,-10.7318,-10.7318,-10.7318,-10.7318,-10.7318,-10.7318,-10.7318,-10.7318,-10.7318,-10.7318,-10.7259,-10.6794,-10.6503,-10.6561,-10.6212,-10.5456,-10.4177,-10.313,-10.2315,-10.1385,-10.0803,-10.0396,-10.0163,-10.0803,-10.1036,-10.1268,-10.1326,-10.1675,-10.185,-10.2606,-10.3711,-10.3595,-10.4235,-10.5162,-10.5805,-10.6054,-10.6735,-11.0924,-11.0866,-11.0808,-11.0051,-10.9179,-11.0226,-11.0168,-10.9761,-11.1738,-11.2785,-11.3134,-11.4065,-11.4647,-11.4298,-11.0982,-10.9877,-11.0517,-10.8539,-10.8655,-11.0226,-10.8423,-10.7957,-10.8946,-10.7899,-10.7318,-10.7434,-10.7318,-10.7318,-10.7318,-10.7161,-10.7318,-10.7318,-10.7161,-10.7161,-10.7318,-10.7318,-10.7318,-10.7318,-10.7318,-10.7259,-10.7161,-10.7161,-10.7259,-10.7063,-10.7259,-10.7318,-10.7318,-10.7318,-10.7318,-10.7318,-10.7318,-10.7318,-10.7318,-10.7318,-10.7318,-10.7318,-10.7318,-10.7259,-10.7161,-10.7063,-10.5957,-10.3725,-10.3269,-10.2124,-10.0396,-10.2027,-10.3223,-10.3213,-10.5314,-10.661,-10.6709,-10.6964,-10.7259,-10.7318,-10.7318,-10.7318,-10.7318,-10.7318,-10.7318,-10.7318,-10.7318,-10.7318,-10.7318,-10.7318,-10.7259,-10.7085,-10.7143,-10.6969,-10.6678,-10.5922,-10.5398,-10.5049,-10.4351,-10.2955,-10.1734,-10.1385,-10.0861,-10.0279,-9.9989,-9.964,-9.9581,-9.9581,-9.964,-9.9756,-10.0047,-10.0163,-9.993,-10.057,-10.1885,-10.2839,-10.3479,-10.4162,-10.4767,-10.5264,-10.5959,-10.9745,-10.9528,-10.8655,-10.8132,-10.7841,-10.819,-10.8655,-10.9295,-10.9877,-11.0749,-11.1506,-11.1913,-11.2029,-11.1796,-11.011,-10.9353,-10.947,-10.8016,-10.7667,-10.8132,-10.7608,-10.7492,-10.7725,-10.7434,-10.7318,-10.7318,-10.7318,-10.7318,-10.7318,-10.7318,-10.7318,-10.7318,-10.7318,-10.7318,-10.7318,-10.7318,-10.7318,-10.7318,-10.7318,-10.7318,-10.7318,-10.7318,-10.7318,-10.7318,-10.7318,-10.7318,-10.7318,-10.7318,-10.7318,-10.7318,-10.7318,-10.7318,-10.7318,-10.7318,-10.7318,-10.7318,-10.7318,-10.7318,-10.7318,-10.7318,-10.6964,-10.6313,-10.6057,-10.5758,-10.52,-10.5658,-10.6114,-10.6114,-10.6866,-10.7318,-10.7318,-10.7318,-10.7318,-10.7318,-10.7318,-10.7318,-10.7318,-10.7318,-10.7318,-10.7318,-10.7201,-10.7318,-10.7259,-10.7143,-10.6794,-10.6038,-10.5863,-10.5631,-10.4642,-10.4235,-10.3886,-10.3886,-10.3595,-10.2432,-10.057,-10.0163,-10.0047,-9.9581,-9.9581,-9.9581,-9.9581,-9.9581,-9.9581,-10.0817,-9.9887,-9.9763,-10.0487,-10.0153,-10.0696,-10.1768,-10.2794,-10.3518,-10.3784,-10.5213,-10.5906,-10.8423,-10.8306,-10.7608,-10.7318,-10.7318,-10.7318,-10.7725,-10.8481,-10.8946,-10.9586,-11.0168,-10.9702,-10.947,-10.947,-10.8772,-10.8423,-10.8365,-10.7608,-10.7318,-10.7318,-10.7318,-10.7318,-10.7318,-10.7318,-10.7318,-10.7318,-10.7318,-10.7318,-10.7318,-10.7318,-10.7318,-10.7318,-10.7318,-10.7318,-10.7318,-10.7318,-10.7318,-10.7318,-10.7318,-10.7318,-10.7318,-10.7318,-10.7318,-10.7318,-10.7318,-10.7318,-10.7318,-10.7318,-10.7318,-10.7318,-10.7318,-10.7318,-10.7318,-10.7318,-10.7318,-10.7318,-10.7318,-10.7318,-10.7318,-10.7318,-10.7318,-10.7318,-10.7318,-10.7318,-10.7318,-10.7318,-10.7318,-10.7318,-10.7259,-10.7318,-10.7318,-10.7318,-10.7318,-10.7318,-10.7318,-10.7318,-10.7318,-10.7318,-10.7318,-10.7259,-10.6852,-10.6503,-10.6445,-10.6038,-10.5398,-10.4816,-10.4584,-10.4351,-10.3595,-10.2897,-10.2664,-10.2548,-10.2083,-10.1152,-10.0047,-9.9581,-9.9581,-9.9581,-9.9581,-10.0158,-10.0549,-10.0907,-10.1291,-10.2285,-10.2485,-10.2485,-10.1963,-10.2257,-10.2404,-10.3058,-10.3961,-10.3538,-10.3017,-10.4292,-10.4764,-10.7318,-10.7318,-10.7318,-10.7318,-10.7318,-10.7318,-10.7318,-10.7492,-10.8481,-10.9104,-10.8888,-10.7783,-10.7376,-10.7318,-10.7376,-10.7376,-10.7318,-10.7318,-10.7318,-10.7318,-10.7318,-10.7318,-10.7318,-10.7318,-10.7318,-10.7318,-10.7318,-10.7318,-10.7318,-10.7318,-10.7318,-10.7318,-10.7318,-10.7318,-10.7318,-10.7318,-10.7318,-10.7318,-10.7318,-10.7318,-10.7318,-10.7318,-10.7318,-10.7318,-10.7318,-10.7318,-10.7318,-10.7318,-10.7318,-10.7318,-10.7318,-10.7318,-10.7318,-10.7318,-10.7318,-10.7318,-10.7318,-10.7318,-10.7318,-10.7318,-10.7318,-10.7318,-10.7318,-10.7318,-10.7318,-10.7201,-10.7085,-10.7027,-10.7085,-10.7027,-10.7085,-10.7201,-10.7201,-10.7027,-10.6969,-10.7027,-10.6794,-10.691,-10.6969,-10.691,-10.5747,-10.5224,-10.5049,-10.4351,-10.3595,-10.3595,-10.342,-10.3013,-10.2606,-10.185,-10.1326,-10.1094,-10.0454,-9.9698,-9.964,-9.9581,-9.9581,-9.9581,-9.9581,-10.0158,-10.138,-10.2198,-10.3259,-10.3624,-10.5089,-10.5007,-10.5314,-10.5739,-10.5291,-10.4391,-10.4018,-10.3765,-10.4324,-10.4343,-10.386,-10.7318,-10.7318,-10.7318,-10.7318,-10.7318,-10.7318,-10.7318,-10.7318,-10.755,-10.7725,-10.7667,-10.7434,-10.7318,-10.7318,-10.7318,-10.7318,-10.7318,-10.7318,-10.7318,-10.7318,-10.7318,-10.7318,-10.7318,-10.7318,-10.7318,-10.7318,-10.7318,-10.7318,-10.7318,-10.7318,-10.7318,-10.7318,-10.7318,-10.7318,-10.7318,-10.7318,-10.7318,-10.7318,-10.7318,-10.7318,-10.7318,-10.7318,-10.7318,-10.7318,-10.7318,-10.7318,-10.7318,-10.7318,-10.7318,-10.7318,-10.7318,-10.7318,-10.7318,-10.7318,-10.7318,-10.7318,-10.7318,-10.7318,-10.7318,-10.7318,-10.7318,-10.7318,-10.7318,-10.7259,-10.7201,-10.6387,-10.5805,-10.5805,-10.5689,-10.5747,-10.5863,-10.6561,-10.6852,-10.5922,-10.5805,-10.5456,-10.4467,-10.4293,-10.4235,-10.4235,-10.4002,-10.3828,-10.3769,-10.3537,-10.3246,-10.3071,-10.249,-10.1501,-10.0628,-10.0221,-9.9989,-9.993,-9.9756,-9.9581,-9.9581,-9.9581,-9.9672,-9.9581,-9.9614,-10.0162,-10.0729,-10.2051,-10.3113,-10.3742,-10.4349,-10.4841,-10.4574,-10.3748,-10.3205,-10.344,-10.3128,-10.2552,-10.296,-10.3654,-10.4367,-10.7318,-10.7318,-10.7318,-10.7318,-10.7318,-10.7318,-10.7318,-10.7318,-10.7318,-10.7318,-10.7318,-10.7318,-10.7318,-10.7318,-10.7318,-10.7318,-10.7318,-10.7318,-10.7318,-10.7318,-10.7318,-10.7318,-10.7318,-10.7318,-10.7318,-10.7318,-10.7318,-10.7318,-10.7318,-10.7318,-10.7318,-10.7318,-10.7318,-10.7318,-10.7318,-10.7318,-10.7318,-10.7318,-10.7899,-10.8132,-10.8132,-10.8132,-10.819,-10.8132,-10.755,-10.7318,-10.7318,-10.7318,-10.7318,-10.7318,-10.7318,-10.7318,-10.7318,-10.7318,-10.7318,-10.7318,-10.7318,-10.7318,-10.7318,-10.7318,-10.7318,-10.7318,-10.7318,-10.6561,-10.4758,-10.4002,-10.3362,-10.2781,-10.2722,-10.2955,-10.3537,-10.4177,-10.4584,-10.4467,-10.4467,-10.4177,-10.3479,-10.3362,-10.3362,-10.3304,-10.2897,-10.249,-10.249,-10.1966,-10.1617,-10.1559,-10.1094,-10.0396,-9.9698,-9.9581,-9.9581,-9.9581,-9.9581,-9.9581,-9.9581,-10.028,-10.0937,-10.1025,-10.1284,-10.1901,-10.3048,-10.3202,-10.4246,-10.513,-10.5691,-10.5924,-10.6009,-10.5233,-10.485,-10.4659,-10.4276,-10.3765,-10.3638,-10.3975,-10.4455,-10.7318,-10.7318,-10.7318,-10.7318,-10.7318,-10.7318,-10.7318,-10.7318,-10.7318,-10.7318,-10.7318,-10.7318,-10.7318,-10.7318,-10.7318,-10.7318,-10.7318,-10.7318,-10.7318,-10.7318,-10.7318,-10.7318,-10.7318,-10.7318,-10.7318,-10.7318,-10.7318,-10.7318,-10.7318,-10.7318,-10.7318,-10.7318,-10.7318,-10.7318,-10.7318,-10.7318,-10.7318,-10.7318,-10.8365,-10.8946,-10.9046,-10.8946,-10.9004,-10.9221,-10.7957,-10.7376,-10.755,-10.7376,-10.7318,-10.755,-10.7376,-10.7318,-10.7259,-10.7085,-10.691,-10.6736,-10.6736,-10.6736,-10.6736,-10.6736,-10.6736,-10.6736,-10.6736,-10.5165,-10.1559,-10.1036,-10.0454,-9.9465,-9.9407,-9.9756,-10.0803,-10.1326,-10.2024,-10.2664,-10.3049,-10.3013,-10.2722,-10.2664,-10.2664,-10.2606,-10.185,-10.121,-10.1152,-10.0338,-9.9814,-9.9698,-9.9814,-9.964,-9.9581,-9.9796,-9.9887,-9.9672,-9.9581,-9.9556,-9.9838,-10.1347,-10.2091,-10.263,-10.3038,-10.359,-10.5,-10.5006,-10.54,-10.7271,-10.735,-10.7565,-10.7702,-10.7844,-10.7044,-10.6776,-10.599,-10.5471,-10.527,-10.4618,-10.403,-10.7318,-10.7318,-10.7318,-10.7318,-10.7318,-10.7318,-10.7318,-10.7318,0.0,0.0,0.0,-10.7318,-10.7318,-10.7318,-10.7318,-10.7318,-10.7318,-10.7318,-10.7318,-10.7318,-10.7318,-10.7318,-10.7318,-10.7318,-10.7318,-10.7318,-10.7318,-10.7318,-10.7318,-10.7318,-10.7318,-10.7318,-10.7318,-10.7318,-10.7318,-10.7318,-10.7318,-10.7318,-10.7492,-10.7608,-10.7608,-10.7608,-10.8132,-10.9221,-10.7957,-10.7783,-10.8871,-10.7841,-10.7783,-10.8772,-10.7841,-10.7318,-10.7259,-10.6271,-10.5224,-10.4177,-10.406,-10.406,-10.406,-10.406,-10.406,-10.406,-10.406,-10.2897,-10.0105,-9.8851,-9.8154,-9.7921,-9.7921,-9.7979,-9.8212,-10.0163,-10.1152,-10.0338,-10.1152,-10.1326,-10.0396,-10.0221,-10.0371,-10.0221,-10.0196,-9.993,-9.993,-9.9756,-9.9581,-9.9581,-9.9705,-9.9581,-9.9705,-10.0877,-10.1173,-9.9712,-9.9414,-9.9721,-10.0395,-10.1009,-10.1225,-10.203,-10.2173,-10.2161,-10.2722,-10.3893,-10.5016,-10.562,-10.6098,-10.6392,-10.6397,-10.5674,-10.4819,-10.4753,-10.4556,-10.4359,-10.4359,-10.4161,-10.403,-10.7318,0.0,-10.7318,-10.7318,0.0,-10.7318,-10.7318,-10.7318,-10.7318,-10.7318,-10.7318,-10.7318,-10.7318,-10.7318,-10.7318,-10.7318,-10.7318,-10.7318,-10.7318,-10.7318,-10.7318,-10.7318,-10.7318,-10.7318,-10.7318,-10.7318,-10.7318,-10.7318,-10.7318,-10.7318,-10.7318,-10.7318,-10.7318,-10.7608,-10.8248,-10.7608,-10.7318,-10.7318,-10.7899,-10.8248,-10.8248,-10.8248,-10.8539,-10.9121,-10.7957,0.0,0.0,0.0,0.0,0.0,0.0,0.0,0.0,0.0,0.0,-10.342,-10.3362,-10.3362,-10.3362,-10.3362,-10.313,-10.249,-10.2432,-10.1326,-9.8677,-9.6848,-9.5742,-9.5684,-9.5103,-9.4957,-9.5684,-9.6848,-9.7604,-9.7662,-9.8185,-9.836,-9.8015,-9.9197,-9.9727,-9.8953,-10.0137,-10.0669,-9.9705,-9.9581,-9.9977,-10.1025,-10.1203,-10.1203,-10.1232,-10.067,-9.9903,-9.8715,-9.8872,-9.9298,-9.9747,-10.116,-10.3082,-10.3301,-10.3643,-10.392,-10.3928,-10.4266,-10.4443,-10.4512,-10.4806,-10.5082,-10.5016,-10.449,-10.403,-10.403,-10.403,-10.403,-10.403,-10.403,-10.403,-10.7318,-10.7318,-10.7318,-10.7318,-10.7259,-10.7027,-10.691,-10.691,-10.6678,-10.6503,-10.6561,-10.6561,-10.6561,-10.6561,-10.6561,-10.6561,-10.6561,-10.6561,-10.6561,-10.6503,-10.6561,-10.6503,-10.6561,-10.6561,-10.6561,-10.6561,-10.6561,-10.6561,-10.6561,-10.6561,-10.6561,-10.6561,-10.6503,-10.7027,-10.7957,0.0,0.0,0.0,-10.7725,-10.8132,-10.8074,-10.8173,-10.819,-10.8423,-10.7201,0.0,-10.5456,-10.5107,-10.4584,-10.3769,-10.3479,0.0,0.0,0.0,0.0,0.0,0.0,0.0,0.0,0.0,0.0,0.0,-10.086,-9.9514,-9.6909,-9.5299,-9.4735,-9.5334,-9.3049,-9.2363,-9.4272,-9.4166,-9.4374,-9.5364,-9.6004,-9.6381,-9.6468,-9.9121,-10.0517,-9.8987,-10.1267,-10.2443,-10.1144,-10.0817,-10.1497,-10.3174,-10.3088,-10.2992,-10.3147,-10.0999,-9.9066,-9.84,-9.9111,-9.9431,-9.9474,-10.2341,-10.4212,-10.4832,-10.5316,-10.5539,-10.5408,-10.4687,-10.3964,-10.403,-10.403,-10.403,-10.403,-10.403,-10.403,-10.403,-10.403,-10.3898,-10.3635,-10.3504,-10.3504,-10.7318,-10.7318,-10.7318,-10.7318,-10.7201,-10.6096,-10.5631,-10.5514,-10.4409,-10.3886,-10.3886,-10.3886,-10.3886,-10.3886,-10.3886,-10.3886,-10.3886,-10.3886,-10.3886,-10.3886,-10.3886,-10.3886,-10.3886,-10.3828,-10.3886,-10.3886,-10.3886,-10.3886,-10.3886,-10.3886,-10.3886,-10.3886,-10.3886,-10.3944,-10.4118,-10.3944,-10.4467,-10.5573,-10.4584,-10.4118,-10.4118,-10.4118,-10.4642,-10.5747,-10.4584,-10.4351,-10.5282,-10.4235,-10.4118,-10.4991,-10.4002,-10.3362,-10.3362,-10.2315,-10.1511,0.0,-10.1001,0.0,0.0,0.0,0.0,0.0,0.0,0.0,0.0,-9.54,-9.7916,-10.0913,-9.4535,-9.1976,-9.622,-9.4981,-9.3939,-9.42,-9.6643,-9.8416,-9.8439,-10.0224,-10.198,-10.3035,-10.3524,-10.4242,-10.4761,-10.5295,-10.5295,-10.5274,-10.4054,-10.3342,-10.4308,-10.3983,-10.2737,-10.1327,-10.1283,-10.1028,-10.1951,-10.2654,-10.341,-10.4085,-10.4358,-10.4293,-10.4359,-10.4161,-10.403,-10.403,-10.403,-10.403,-10.403,-10.403,-10.403,-10.403,-10.3898,-10.3372,-10.232,-10.1991,-10.1531,-10.7318,-10.7318,-10.7318,-10.6445,-10.5107,-10.4526,-10.4293,-10.4235,-10.3748,-10.3362,-10.3362,-10.3362,-10.3362,-10.3362,-10.3362,-10.3362,-10.3362,-10.3362,-10.3362,-10.3362,-10.3362,-10.3362,-10.3362,-10.3362,-10.3362,-10.3362,-10.3362,-10.3362,-10.3362,-10.3362,-10.3362,-10.3362,-10.3362,-10.3013,-10.2373,-10.2315,-10.2606,-10.3188,-10.3304,-10.3362,-10.3362,-10.3362,-10.3653,-10.4235,-10.3711,-10.3304,-10.3188,-10.2664,-10.2257,-10.2141,-10.1559,-10.0919,-10.0221,-10.0756,-10.0049,0.0,0.0,0.0,0.0,0.0,0.0,0.0,0.0,0.0,0.0,0.0,-9.7714,-9.7084,-9.2167,-9.0601,-9.4685,-9.4039,-9.342,-9.3674,-9.6449,-9.7686,-9.6,-9.8998,-10.0697,-9.9367,-10.1652,-10.3148,-10.255,-10.3155,-10.4064,-10.5295,-10.4675,-10.4251,-10.4702,-10.3219,-10.1879,-10.0825,-10.005,-10.0123,-10.1596,-10.2723,-10.3554,-10.3898,-10.403,-10.403,-10.403,-10.403,-10.403,-10.403,-10.403,-10.403,-10.403,-10.403,-10.403,-10.3832,-10.2715,-10.1399,-10.061,-10.0479,-10.0413,-10.6329,-10.6426,-10.7524,-10.6536,-10.4243,-10.3891,-10.346,-10.2897,-10.2606,-10.249,-10.249,-10.249,-10.2806,-10.3304,-10.3798,-10.3975,-10.3774,-10.348,-10.2992,-10.249,-10.249,-10.249,-10.2432,-10.249,-10.249,-10.249,-10.2781,-10.2781,-10.249,-10.2781,-10.2897,-10.2991,-10.3202,-10.2835,-10.1804,-10.213,-10.1914,-10.1036,-10.1966,-10.2432,-10.249,-10.2199,-10.2024,-10.2024,-10.1734,-10.1268,-10.057,-10.057,-10.0105,-9.9174,-9.951,-9.9194,-9.7993,-9.9744,0.0,0.0,0.0,0.0,0.0,0.0,0.0,0.0,0.0,-9.8874,-9.9173,0.0,-9.7966,0.0,-9.0541,-9.022,-9.3787,-9.3434,0.0,0.0,-9.6765,-9.7818,-9.5546,-9.8706,-10.0164,-9.7779,-10.044,-10.2072,-10.0731,-10.1853,-10.2955,-10.3518,-10.3673,-10.3802,-10.4124,-10.1873,-10.0489,-10.0815,-10.0194,-9.9933,-10.1543,-10.2972,-10.3964,-10.403,-10.403,-10.403,-10.403,-10.403,-10.403,-10.403,-10.3767,-10.3438,-10.3438,-10.3109,-10.2912,-10.278,-10.1202,-9.943,-9.9035,-9.9032,-9.8901,-10.3711,-10.3973,-10.8025,-10.8342,-10.6447,-10.5127,-10.3546,-10.1559,-10.0396,-9.9872,-9.9872,-9.9872,-10.1023,-10.3019,-10.5023,0.0,-10.4791,-10.3473,-10.1765,-9.9872,-9.9872,-9.9872,-9.9872,-9.9872,-9.9872,-9.9872,-10.1036,-10.0977,-9.993,-10.1036,-10.1617,-10.1652,-10.2566,-10.2898,-10.2812,-10.3981,-10.3042,-9.9756,-9.9814,-9.9872,-9.9872,-9.8619,-9.7979,-9.8127,-9.6964,-9.6994,-9.7805,-9.7953,-9.7805,-9.7778,-9.96,-9.9999,-9.8823,0.0,0.0,0.0,0.0,0.0,0.0,0.0,0.0,0.0,0.0,0.0,0.0,0.0,0.0,0.0,-9.2093,0.0,-9.5527,-9.4059,0.0,0.0,0.0,-10.0517,-10.0326,-10.1072,-10.2061,-10.3175,0.0,0.0,-10.3437,-10.4877,-10.4355,-10.0487,-9.9962,-10.0422,-10.1733,-10.167,-10.1997,-10.3238,-10.3503,-10.3569,-10.3503,-10.3767,-10.403,-10.403,-10.403,-10.403,-10.403,-10.3964,-10.3964,-10.3898,-10.278,-10.186,-10.186,-10.0742,-9.9887,-9.9887,-9.9624,-9.9032,-9.7848,-9.752,-9.7191,-10.456,-10.5203,-10.69,-10.715,-10.6396,-10.5843,-10.4328,-10.221,-10.0903,-10.0281,-10.0193,-9.9449,-10.0733,-10.3488,-10.3438,0.0,0.0,0.0,-10.1029,-9.9093,-9.9093,-9.8459,-9.7344,-9.7255,-9.7255,-9.7255,-9.7778,-9.7778,-9.7255,-9.7778,-10.008,-10.3924,0.0,0.0,-10.5882,-10.451,-10.2938,-10.1556,-10.019,-9.9581,-9.9581,-10.0287,-10.0975,-10.1407,-10.0097,-9.953,-10.0075,-10.0075,-10.0075,-10.0075,-10.0814,-10.0321,0.0,0.0,0.0,0.0,0.0,0.0,0.0,0.0,0.0,0.0,0.0,-9.5107,-9.5808,0.0,0.0,0.0,-9.475,-9.5092,-9.5495,-9.5357,0.0,0.0,0.0,0.0,0.0,0.0,0.0,-10.2517,-10.1334,-10.0676,-10.1202,-10.1005,-10.0216,-9.844,-9.8966,-9.9693,-10.0218,0.0,-10.186,-10.2517,-10.3372,-10.403,-10.403,-10.403,-10.403,-10.403,-10.403,-10.403,-10.3964,-10.3175,-10.2649,-10.2452,-10.1399,-10.035,-10.0413,-9.8506,-9.6928,-9.6928,-9.6994,-9.6796,-9.627,-9.6073,-9.5941,-10.5933,0.0,0.0,0.0,0.0,-10.5992,-10.4466,-10.2409,-10.1581,-10.1073,-10.0907,-9.9958,0.0,0.0,0.0,0.0,0.0,0.0,-10.0683,-9.8772,-9.8165,-9.7183,-9.583,-9.583,-9.583,-9.583,-9.6238,-9.6442,-9.6668,-9.6499,-9.9591,-10.5442,0.0,0.0,0.0,0.0,-10.3611,-10.2993,-10.0606,-9.955,-10.0165,-10.1686,-10.2608,-10.2844,-10.0981,-10.0159,-10.0454,-10.0531,-10.0718,-10.109,-10.1319,0.0,0.0,0.0,0.0,0.0,0.0,0.0,0.0,0.0,0.0,0.0,0.0,0.0,0.0,0.0,0.0,0.0,0.0,0.0,-9.3968,-9.4528,-9.5819,0.0,0.0,0.0,0.0,0.0,0.0,0.0,0.0,0.0,-9.9492,-9.8309,-9.7191,0.0,0.0,-9.8506,-9.8901,-10.015,-10.1202,-10.1597,-10.2978,0.0,-10.403,-10.403,-10.403,-10.403,-10.403,-10.3832,-10.3438,-10.2057,-10.1071,-10.1071,-9.9887,-9.8835,-9.8309,-9.6836,-9.5937,-9.5805,-9.5805,-9.5805,-9.5746,-9.5457,-9.5284,0.0,0.0,0.0,0.0,0.0,0.0,0.0,0.0,-10.1694,-10.1694,0.0,-10.157,0.0,0.0,0.0,0.0,0.0,-10.3512,0.0,0.0,-9.6953,-9.5917,-9.5859,-9.5859,-9.583,-9.5888,-9.6994,-9.7872,-9.8508,-9.8103,0.0,0.0,0.0,0.0,0.0,0.0,-10.5428,-10.3926,-10.0548,-9.9655,-10.1441,-10.1678,-10.1214,-10.0064,-9.7454,-9.6708,-9.7739,-9.7863,-9.8421,-9.994,-10.0467,0.0,0.0,0.0,0.0,0.0,0.0,0.0,0.0,0.0,0.0,0.0,0.0,0.0,0.0,0.0,0.0,0.0,0.0,0.0,0.0,-9.0616,0.0,0.0,0.0,0.0,0.0,0.0,0.0,0.0,0.0,0.0,-9.9423,-9.8243,-9.6862,-9.5481,0.0,0.0,0.0,0.0,-10.015,-10.1465,-10.2978,-10.403,-10.403,-10.403,-10.3964,-10.3964,0.0,0.0,-10.2055,-10.0545,-9.9624,-9.9624,-9.844,-9.6994,-9.5739,-9.6443,-9.709,-9.7145,-9.7145,-9.7145,-9.7034,-9.6319,-9.5457,0.0,0.0,0.0,0.0,0.0,0.0,0.0,0.0,0.0,-10.2449,0.0,-10.1562,0.0,0.0,0.0,0.0,0.0,0.0,0.0,0.0,-9.9408,-9.8413,-9.7223,-9.7283,-9.7283,0.0,-9.763,-9.7735,0.0,0.0,0.0,0.0,0.0,0.0,0.0,0.0,-10.6591,-10.5868,-10.1586,-9.9551,-10.0191,-10.0748,-10.034,-9.9084,-9.9463,-9.9887,-10.0271,-10.0203,-10.0981,0.0,0.0,0.0,0.0,0.0,0.0,0.0,0.0,0.0,0.0,0.0,0.0,0.0,0.0,0.0,0.0,0.0,0.0,0.0,0.0,0.0,0.0,0.0,-9.194,0.0,0.0,0.0,0.0,0.0,0.0,0.0,0.0,0.0,-9.9568,-9.7526,-9.581,-9.535,-9.5284,-9.5415,-9.5941,0.0,0.0,0.0,0.0,0.0,0.0,0.0,-10.2773,-10.3775,-10.3092,-10.2591,-10.2914,-10.1066,-9.9553,-9.9553,0.0,0.0,-9.7653,-9.8269,-9.8584,-9.8584,-9.8584,-9.8584,-9.8584,-9.8216,-9.791,0.0,0.0,0.0,0.0,0.0,0.0,0.0,0.0,0.0,-10.2991,-10.2336,0.0,0.0,0.0,0.0,0.0,0.0,0.0,0.0,0.0,0.0,0.0,-9.6522,-9.6459,0.0,0.0,0.0,0.0,0.0,0.0,0.0,0.0,0.0,0.0,0.0,0.0,-10.5894,-10.5813,-10.1562,-9.9304,-9.9518,-10.01,-9.9817,-9.8849,-9.9775,-10.0479,-10.0939,0.0,0.0,0.0,0.0,0.0,0.0,0.0,0.0,0.0,0.0,0.0,0.0,0.0,0.0,0.0,0.0,0.0,0.0,0.0,0.0,0.0,0.0,0.0,0.0,0.0,-9.0484,0.0,0.0,0.0,0.0,0.0,0.0,0.0,0.0,0.0,0.0,0.0,-9.6452,-9.5988,-9.5517,-9.5284,-9.5284,-9.7322,-9.8769,0.0,0.0,0.0,0.0,0.0,0.0,0.0,0.0,0.0,0.0,0.0,0.0,0.0,0.0,-9.7213,-9.8998,-9.9703,-9.9999,-9.9999,0.0,0.0,0.0,0.0,0.0,0.0,0.0,0.0,0.0,0.0,0.0,0.0,0.0,0.0,0.0,-10.1597,0.0,0.0,-9.9693,0.0,0.0,0.0,0.0,0.0,0.0,0.0,0.0,0.0,0.0,0.0,0.0,0.0,0.0,0.0,0.0,0.0,0.0,0.0,0.0,0.0,0.0,-10.3384,-10.3964,-10.0471,-9.8919,-9.9435,-9.943,-9.943,-9.9298,-9.8112,-9.8046,-9.9489,0.0,0.0,0.0,0.0,0.0,0.0,0.0,0.0,0.0,0.0,0.0,0.0,0.0,0.0,0.0,0.0,0.0,0.0,0.0,0.0,0.0,0.0,0.0,0.0,0.0,0.0,-8.7042,-8.9224,-9.1988,0.0,0.0,0.0,0.0,0.0,0.0,0.0,0.0,0.0,-9.7525,-9.6155,-9.5344,-9.541,-9.6655,-9.7642,-9.7454,-9.9884,-10.1266,-9.9887,-10.0676,-10.1639,0.0,0.0,0.0,0.0,0.0,0.0,0.0,0.0,0.0,0.0,0.0,0.0,0.0,0.0,0.0,0.0,0.0,0.0,0.0,0.0,0.0,0.0,0.0,0.0,0.0,0.0,0.0,0.0,0.0,0.0,0.0,0.0,0.0,0.0,0.0,0.0,0.0,0.0,0.0,0.0,0.0,0.0,0.0,0.0,0.0,0.0,0.0,0.0,0.0,0.0,0.0,0.0,0.0,0.0,-10.2717,-10.3964,-9.9903,-9.7875,-9.8046,-9.7059,-9.6533,-9.6533,-9.6139,-9.701,0.0,0.0,0.0,0.0,0.0,0.0,0.0,0.0,0.0,0.0,0.0,0.0,0.0,0.0,0.0,0.0,0.0,0.0,0.0,0.0,0.0,0.0,0.0,0.0,0.0,0.0,0.0,0.0,-8.798,-8.8623,-9.0272,0.0,0.0,0.0,0.0,0.0,0.0,0.0,0.0,0.0,0.0,-9.7053,-9.8238,-9.9578,-9.9768,-9.7703,-10.0679,-10.2442,-9.9943,-9.9032,-9.8994,-10.0001,0.0,0.0,0.0,0.0,0.0,0.0,0.0,0.0,0.0,0.0,0.0,0.0,0.0,0.0,0.0,0.0,0.0,0.0,0.0,0.0,0.0,0.0,0.0,0.0,0.0,0.0,0.0,0.0,0.0,0.0,0.0,0.0,0.0,0.0,0.0,0.0,0.0,0.0,0.0,0.0,0.0,0.0,0.0,0.0,0.0,0.0,0.0,0.0,0.0,0.0,0.0,0.0,0.0,-10.1334,-10.2254,-9.9032,-9.7059,-9.6533,-9.5678,-9.5284,-9.5284,-9.5284,-9.6909,0.0,0.0,0.0,0.0,0.0,0.0,0.0,0.0,0.0,0.0,0.0,0.0,0.0,0.0,0.0,0.0,0.0,0.0,0.0,0.0,0.0,0.0,0.0,0.0,0.0,0.0,0.0,0.0,-8.7938,-8.7992,-8.9156,0.0,0.0,0.0,0.0,0.0,0.0,0.0,0.0,0.0,0.0,-9.7593,-9.8592,-9.9468,0.0,0.0,-9.8901,-10.0373,-9.7501,-9.6796,-9.7188,-9.9102,-9.8683,0.0,0.0,0.0,0.0,0.0,0.0,0.0,0.0,0.0,0.0,0.0,0.0,0.0,0.0,0.0,0.0,0.0,0.0,0.0,0.0,0.0,0.0,0.0,0.0,0.0,0.0,0.0,0.0,0.0,0.0,0.0,0.0,0.0,0.0,0.0,0.0,0.0,0.0,0.0,0.0,0.0,0.0,0.0,0.0,0.0,0.0,0.0,0.0,0.0,0.0,0.0,0.0,-9.9295,-9.9298,-9.798,-9.6599,-9.535,-9.5284,-9.5284,-9.5284,-9.5284,-9.7366,0.0,0.0,0.0,0.0,0.0,0.0,0.0,0.0,0.0,0.0,0.0,0.0,0.0,0.0,0.0,0.0,0.0,0.0,0.0,0.0,0.0,0.0,0.0,0.0,0.0,0.0,0.0,0.0,0.0,0.0,0.0,0.0,0.0,0.0,0.0,0.0,0.0,0.0,0.0,0.0,0.0,-9.7176,-9.7054,-9.7244,-9.6397,0.0,-9.5547,-9.6397,-9.3968,-9.4534,-9.6128,-9.8895,0.0,0.0,0.0,0.0,0.0,0.0,0.0,0.0,0.0,0.0,0.0,0.0,0.0,0.0,0.0,0.0,0.0,0.0,0.0,0.0,0.0,0.0,0.0,0.0,0.0,0.0,0.0,0.0,0.0,0.0,0.0,0.0,0.0,0.0,0.0,0.0,0.0,0.0,0.0,0.0,0.0,0.0,0.0,0.0,0.0,0.0,0.0,0.0,0.0,0.0,0.0,0.0,0.0,0.0,-9.7848,-9.6533,-9.5613,-9.5284,-9.5284,-9.5284,-9.5284,-9.5284,0.0,0.0,0.0,0.0,0.0,0.0,0.0,0.0,0.0,0.0,0.0,0.0,0.0,0.0,0.0,0.0,0.0,0.0,0.0,0.0,0.0,0.0,0.0,0.0,0.0,0.0,0.0,-9.1624,0.0,0.0,0.0,0.0,0.0,0.0,0.0,0.0,0.0,0.0,0.0,0.0,0.0,0.0,-9.6842,-9.5896,-9.7588,-9.795,0.0,0.0,-9.8724,-9.7898,-9.6328,-9.6085,0.0,0.0,0.0,0.0,0.0,0.0,0.0,0.0,0.0,0.0,0.0,0.0,0.0,0.0,0.0,0.0,0.0,0.0,0.0,0.0,0.0,0.0,0.0,0.0,0.0,0.0,0.0,0.0,0.0,0.0,0.0,0.0,0.0,0.0,0.0,0.0,0.0,0.0,0.0,0.0,0.0,0.0,0.0,0.0,0.0,0.0,0.0,0.0,0.0,0.0,0.0,0.0,0.0,0.0,-9.752,-9.8239,-9.7586,-9.6585,-9.5344,-9.5284,-9.5517,-9.6088,-9.6088,-9.8096,0.0,0.0,0.0,0.0,0.0,0.0,0.0,0.0,0.0,0.0,0.0,0.0,0.0,0.0,0.0,0.0,0.0,0.0,0.0,0.0,0.0,0.0,0.0,0.0,0.0,0.0,0.0,0.0,0.0,0.0,0.0,0.0,0.0,0.0,0.0,0.0,0.0,0.0,0.0,0.0,0.0,0.0,-9.6074,-9.7489,0.0,0.0,0.0,-9.7376,-9.6671,0.0,0.0,0.0,0.0,0.0,0.0,0.0,0.0,0.0,0.0,0.0,0.0,0.0,0.0,0.0,0.0,0.0,0.0,0.0,0.0,0.0,0.0,0.0,0.0,0.0,0.0,0.0,0.0,0.0,0.0,0.0,0.0,0.0,0.0,0.0,0.0,0.0,0.0,0.0,0.0,0.0,0.0,0.0,0.0,0.0,0.0,0.0,0.0,0.0,0.0,0.0,0.0,0.0,0.0,0.0,0.0,0.0,-9.9536,-9.9278,-9.7941,-9.547,-9.5398,-9.6039,-9.7145,-9.7366,-9.9236,0.0,0.0,0.0,0.0,0.0,0.0,0.0,0.0,0.0,0.0,0.0,0.0,0.0,0.0,0.0,0.0,0.0,0.0,0.0,0.0,0.0,0.0,0.0,0.0,0.0,0.0,0.0,0.0,0.0,0.0,0.0,0.0,0.0,0.0,0.0,0.0,0.0,0.0,0.0,0.0,0.0,-9.3741,-9.6166,-9.6619,-9.6904,0.0,0.0,-9.4947,-9.4064,-9.3758,0.0,0.0,0.0,0.0,0.0,0.0,0.0,0.0,0.0,0.0,0.0,0.0,0.0,0.0,0.0,0.0,0.0,0.0,0.0,0.0,0.0,0.0,0.0,0.0,0.0,0.0,0.0,0.0,0.0,0.0,0.0,0.0,0.0,0.0,0.0,0.0,0.0,0.0,0.0,0.0,0.0,0.0,0.0,0.0,0.0,0.0,0.0,0.0,0.0,0.0,0.0,0.0,0.0,0.0,0.0,0.0,-9.9483,-9.7409,-9.5906,-9.5344,-9.6262,-9.6923,-9.7201,-9.8269,-9.9792,0.0,0.0,0.0,0.0,0.0,0.0,0.0,0.0,0.0,0.0,0.0,0.0,0.0,0.0,0.0,0.0,0.0,0.0,0.0,0.0,0.0,0.0,0.0,0.0,0.0,0.0,0.0,0.0,0.0,0.0,0.0,0.0,0.0,0.0,0.0,0.0,0.0,0.0,0.0,0.0,0.0,-9.2602,-9.218,-9.2924,0.0,0.0,0.0,0.0,-9.9147,-9.8563,0.0,0.0,0.0,0.0,0.0,0.0,0.0,0.0,0.0,0.0,0.0,0.0,0.0,0.0,0.0,0.0,0.0,0.0,0.0,0.0,0.0,0.0,0.0,0.0,0.0,0.0,0.0,0.0,0.0,0.0,0.0,0.0,0.0,0.0,0.0,0.0,0.0,0.0,0.0,0.0,0.0,0.0,0.0,0.0,0.0,0.0,0.0,0.0,0.0,0.0,0.0,0.0,0.0,0.0,0.0,0.0,-9.8626,-9.7785,-9.6994,-9.6204,-9.6878,-9.7789,-9.9082,-9.9139,-9.981,0.0,0.0,0.0,0.0,0.0,0.0,0.0,0.0,0.0,0.0,0.0,0.0,0.0,0.0,0.0,0.0,0.0,0.0,0.0,0.0,0.0,0.0,0.0,0.0,0.0,0.0,0.0,0.0,0.0,0.0,0.0,0.0,0.0,0.0,0.0,0.0,0.0,0.0,0.0,0.0,-9.2722,-9.2417,-9.1792,0.0,0.0,0.0,0.0,0.0,0.0,-9.8552,-9.9126,0.0,0.0,0.0,0.0,0.0,0.0,0.0,0.0,0.0,0.0,0.0,0.0,0.0,0.0,0.0,0.0,0.0,0.0,0.0,0.0,0.0,0.0,0.0,0.0,0.0,0.0,0.0,0.0,0.0,0.0,0.0,0.0,0.0,0.0,0.0,0.0,0.0,0.0,0.0,0.0,0.0,0.0,0.0,0.0,0.0,0.0,0.0,0.0,0.0,0.0,0.0,0.0,0.0,0.0,0.0,-9.885,-9.9624,-9.925,-9.7585,-9.7735,-9.8861,-10.074,-9.9864,-9.9585,-10.0138,0.0,0.0,0.0,0.0,0.0,0.0,0.0,0.0,0.0,0.0,0.0,0.0,0.0,0.0,0.0,0.0,0.0,0.0,0.0,0.0,0.0,0.0,0.0,0.0,0.0,0.0,0.0,0.0,0.0,0.0,0.0,0.0,0.0,0.0,0.0,0.0,0.0,0.0,0.0,-9.2724,-9.284,0.0,0.0,0.0,0.0,0.0,0.0,0.0,0.0,-9.9311,0.0,0.0,0.0,0.0,0.0,0.0,0.0,0.0,0.0,0.0,0.0,0.0,0.0,0.0,0.0,0.0,0.0,0.0,0.0,0.0,0.0,0.0,0.0,0.0,0.0,0.0,0.0,0.0,0.0,0.0,0.0,0.0,0.0,0.0,0.0,0.0,0.0,0.0,0.0,0.0,0.0,0.0,0.0,0.0,0.0,0.0,0.0,0.0,0.0,0.0,0.0,0.0,0.0,0.0,0.0,0.0,-10.2521,-10.0559,-9.9118,-10.0096,-10.0253,-9.9314,-10.0293,-9.9591,-9.722,0.0,0.0,0.0,0.0,0.0,0.0,0.0,0.0,0.0,0.0,0.0,0.0,0.0,0.0,0.0,0.0,0.0,0.0,0.0,0.0,0.0,0.0,0.0,0.0,0.0,0.0,0.0,0.0,0.0,0.0,0.0,0.0,0.0,0.0,0.0,0.0,0.0,0.0,-9.3728,-9.2901,0.0,0.0,0.0,0.0,0.0,0.0,0.0,0.0,-10.1575,0.0,0.0,0.0,0.0,0.0,0.0,0.0,0.0,0.0,0.0,0.0,0.0,0.0,0.0,0.0,0.0,0.0,0.0,0.0,0.0,0.0,0.0,0.0,0.0,0.0,0.0,0.0,0.0,0.0,0.0,0.0,0.0,0.0,0.0,0.0,0.0,0.0,0.0,0.0,0.0,0.0,0.0,0.0,0.0,0.0,0.0,0.0,0.0,0.0,0.0,0.0,0.0,0.0,0.0,0.0,0.0,0.0,0.0,-10.0463,-10.0407,-10.0975,-10.0868,-10.0067,-9.9154,-9.7467,0.0,0.0,0.0,0.0,0.0,0.0,0.0,0.0,0.0,0.0,0.0,0.0,0.0,0.0,0.0,0.0,0.0,0.0,0.0,0.0,0.0,0.0,0.0,0.0,0.0,0.0,0.0,0.0,0.0,0.0,0.0,0.0,0.0,0.0,0.0,0.0,0.0,0.0,0.0,0.0,0.0,0.0,0.0,0.0,0.0,0.0,0.0,0.0,0.0,0.0,0.0,0.0,0.0,0.0,0.0,0.0,0.0,0.0,0.0,0.0,0.0,0.0,0.0,0.0,0.0,0.0,0.0,0.0,0.0,0.0,0.0,0.0,0.0,0.0,0.0,0.0,0.0,0.0,0.0,0.0,0.0,0.0,0.0,0.0,0.0,0.0,0.0,0.0,0.0,0.0,0.0,0.0,0.0,0.0,0.0,0.0,0.0,0.0,0.0,0.0,0.0,0.0,0.0,0.0,0.0,0.0,0.0,0.0,-10.1368,-10.1731,-10.1379,-10.1042,-10.0606,-9.8219,-9.5968,0.0,0.0,0.0,0.0,0.0,0.0,0.0,0.0,0.0,0.0,0.0,0.0,0.0,0.0,0.0,0.0,0.0,0.0,0.0,0.0,0.0,0.0,0.0,0.0,0.0,0.0,0.0,0.0,0.0,0.0,0.0,0.0,0.0,0.0,0.0,0.0,0.0,0.0,0.0,0.0,0.0,0.0,0.0,0.0,0.0,0.0,0.0,0.0,-9.7577,0.0,0.0,0.0,0.0,0.0,0.0,0.0,0.0,0.0,0.0,0.0,0.0,0.0,0.0,0.0,0.0,0.0,0.0,0.0,0.0,0.0,0.0,0.0,0.0,0.0,0.0,0.0,0.0,0.0,0.0,0.0,0.0,0.0,0.0,0.0,0.0,0.0,0.0,0.0,0.0,0.0,0.0,0.0,0.0,0.0,0.0,0.0,0.0,0.0,0.0,0.0,0.0,0.0,0.0,0.0,0.0,0.0,0.0,0.0,-10.5874,-10.3254,-10.1799,-10.0415,-9.9037,-9.868,-9.7039,0.0,0.0,0.0,0.0,0.0,0.0,0.0,0.0,0.0,0.0,0.0,0.0,0.0,0.0,0.0,0.0,0.0,0.0,0.0,0.0,0.0,0.0,0.0,0.0,0.0,0.0,0.0,0.0,0.0,0.0,0.0,0.0,0.0,0.0,0.0,0.0,0.0,0.0,0.0,0.0,0.0,0.0,0.0,0.0,0.0,0.0,0.0,0.0,0.0,0.0,0.0,0.0,0.0,0.0,0.0,0.0,0.0,0.0,0.0,0.0,0.0,0.0,0.0,0.0,0.0,0.0,0.0,0.0,0.0,0.0,0.0,0.0,0.0,0.0,0.0,0.0,0.0,0.0,0.0,0.0,0.0,0.0,0.0,0.0,0.0,0.0,0.0,0.0,0.0,0.0,0.0,0.0,0.0,0.0,0.0,0.0,0.0,0.0,0.0,0.0,0.0,0.0,0.0,0.0,0.0,0.0,0.0,0.0,-10.4317,-10.2105,-10.1391,-10.0749,-10.0107,-9.7396,-9.5255,0.0,0.0,0.0,0.0,0.0,0.0,0.0,0.0,0.0,0.0,0.0,0.0,0.0,0.0,0.0,0.0,0.0,0.0,0.0,0.0,0.0,0.0,0.0,0.0,0.0,0.0,0.0,0.0,0.0,0.0,0.0,0.0,0.0,0.0,0.0,0.0,0.0,0.0,0.0,0.0,0.0,0.0,0.0,0.0,0.0,0.0,0.0,0.0,0.0,0.0,0.0,0.0,0.0,0.0,0.0,0.0,0.0,0.0,0.0,0.0,0.0,0.0,0.0,0.0,0.0,0.0,0.0,0.0,0.0,0.0,0.0,0.0,0.0,0.0,0.0,0.0,0.0,0.0,0.0,0.0,0.0,0.0,0.0,0.0,0.0,0.0,0.0,0.0,0.0,0.0,0.0,0.0,0.0,0.0,0.0,0.0,0.0,0.0,0.0,0.0,0.0,0.0,0.0,0.0,0.0,0.0,0.0,0.0,0.0,-10.2247,-10.0678,-9.9861,-9.975,-9.6397,-9.4541,0.0,0.0,0.0,0.0,0.0,0.0,0.0,0.0,0.0,0.0,0.0,0.0,0.0,0.0,0.0,0.0,0.0,0.0,0.0,0.0,0.0,0.0,0.0,0.0,0.0,0.0,0.0,0.0,0.0,0.0,0.0,0.0,0.0,0.0,0.0,0.0,0.0,0.0,0.0,0.0,0.0,0.0,0.0,0.0,0.0,0.0,0.0,0.0,0.0,0.0,0.0,0.0,0.0,0.0,0.0,0.0,0.0,0.0,0.0,0.0,0.0,0.0,0.0,0.0,0.0,0.0,0.0,0.0,0.0,0.0,0.0,0.0,0.0,0.0,0.0,0.0,0.0,0.0,0.0,0.0,0.0,0.0,0.0,0.0,0.0,0.0,0.0,0.0,0.0,0.0,0.0,0.0,0.0,0.0,0.0,0.0,0.0,0.0,0.0,0.0,0.0,0.0,0.0,0.0,0.0,0.0,0.0,0.0,0.0,-10.5458,-9.9718,-9.6792,-9.6792,-9.6435,-9.6292,0.0,0.0,0.0,0.0,0.0,0.0,0.0,0.0,0.0,0.0,0.0,0.0,0.0,0.0,0.0,0.0,0.0,0.0,0.0,0.0,0.0,0.0,0.0,0.0,0.0,0.0,0.0,0.0,0.0,0.0,0.0,0.0,0.0,0.0,0.0,0.0,0.0,0.0,0.0,0.0,0.0,0.0,0.0,0.0,0.0,0.0,0.0,0.0,0.0,0.0,0.0,0.0,0.0,0.0,0.0,0.0,0.0,0.0,0.0,0.0,0.0,0.0,0.0,0.0,0.0,0.0,0.0,0.0,0.0,0.0,0.0,0.0,0.0,0.0,0.0,0.0,0.0,0.0,0.0,0.0,0.0,0.0,0.0,0.0,0.0,0.0,0.0,0.0,0.0,0.0,0.0,0.0,0.0,0.0,0.0,0.0,0.0,0.0,0.0,0.0,0.0,0.0,0.0,0.0,0.0,0.0,0.0,0.0,0.0,-10.5458,-10.1534,-9.9361,-9.9361,-9.7434,-9.6435,-9.6402,0.0,0.0,0.0,0.0,0.0,0.0,0.0,0.0,0.0,0.0,0.0,0.0,0.0,0.0,0.0,0.0,0.0,0.0,0.0,0.0,0.0,0.0,0.0,0.0,0.0,0.0,0.0,0.0,0.0,0.0,0.0,0.0,0.0,0.0,0.0,0.0,0.0,0.0,0.0,0.0,0.0,0.0,0.0,0.0,0.0,0.0,0.0,0.0,0.0,0.0,0.0,0.0,0.0,0.0,0.0,0.0,0.0,0.0,0.0,0.0,0.0,0.0,0.0,0.0,0.0,0.0,0.0,0.0,0.0,0.0,0.0,0.0,0.0,0.0,0.0,0.0,0.0,0.0,0.0,0.0,0.0,0.0,0.0,0.0,0.0,0.0,0.0,0.0,0.0,0.0,0.0,0.0,0.0,0.0,0.0,0.0,0.0,0.0,0.0,0.0,0.0,0.0,0.0,0.0,0.0,0.0,0.0,0.0,-10.346,-10.0464,-9.9108,-9.9576,-9.7506,-9.6515,0.0,0.0,0.0,0.0,0.0,0.0,0.0,0.0,0.0,0.0,0.0,0.0,0.0,0.0,0.0,0.0,0.0,0.0,0.0,0.0,0.0,0.0,0.0,0.0,0.0,0.0,0.0,0.0,0.0,0.0,0.0,0.0,0.0,0.0,0.0,0.0,0.0,0.0,0.0,0.0,0.0,0.0,0.0,0.0,0.0,0.0,0.0,0.0,0.0,0.0,0.0,0.0,0.0,0.0,0.0,0.0,0.0,0.0,0.0,0.0,0.0,0.0,0.0,0.0,0.0,0.0,0.0,0.0,0.0,0.0,0.0,0.0,0.0,0.0,0.0,0.0,0.0,0.0,0.0,0.0,0.0,0.0,0.0,0.0,0.0,0.0,0.0,0.0,0.0,0.0,0.0,0.0,0.0,0.0,0.0,0.0,0.0,0.0,0.0,0.0,0.0,0.0,0.0,0.0,0.0,0.0,0.0,0.0,-10.1962,-9.9037,-9.604,-9.5398,-9.6435,-9.6616,-9.6741,0.0,0.0,0.0,0.0,0.0,0.0,0.0,0.0,0.0,0.0,0.0,0.0,0.0,0.0,0.0,0.0,0.0,0.0,0.0,0.0,0.0,0.0,0.0,0.0,0.0,0.0,0.0,0.0,0.0,0.0,0.0,0.0,0.0,0.0,0.0,0.0,0.0,0.0,0.0,0.0,0.0,0.0,0.0,0.0,0.0,0.0,0.0,0.0,0.0,0.0,0.0,0.0,0.0,0.0,0.0,0.0,0.0,0.0,0.0,0.0,0.0,0.0,0.0,0.0,0.0,0.0,0.0,0.0,0.0,0.0,0.0,0.0,0.0,0.0,0.0,0.0,0.0,0.0,0.0,0.0,0.0,0.0,0.0,0.0,0.0,0.0,0.0,0.0,0.0,0.0,0.0,0.0,0.0,0.0,0.0,0.0,0.0,0.0,0.0,0.0,0.0,0.0,0.0,0.0,0.0,0.0,0.0,0.0,0.0,-10.346,0.0,-10.1106,0.0,-9.897,-9.8792,0.0,0.0,0.0,0.0,0.0,0.0,0.0,0.0,0.0,0.0,0.0,0.0,0.0,0.0,0.0,0.0,0.0,0.0,0.0,0.0,0.0,0.0,0.0,0.0,0.0,0.0,0.0,0.0,0.0,0.0,0.0,0.0,0.0,0.0,0.0,0.0,0.0,0.0,0.0,0.0,0.0,0.0,0.0,0.0,0.0,0.0,0.0,0.0,0.0,0.0,0.0,0.0,0.0,0.0,0.0,0.0,0.0,0.0,0.0,0.0,0.0,0.0,0.0,0.0,0.0,0.0,0.0,0.0,0.0,0.0,0.0,0.0,0.0,0.0,0.0,0.0,0.0,0.0,0.0,0.0,0.0,0.0,0.0,0.0,0.0,0.0,0.0,0.0,0.0,0.0,0.0,0.0,0.0,0.0,0.0,0.0,0.0,0.0,0.0,0.0,0.0,0.0,0.0,0.0,0.0,0.0,0.0,0.0,0.0,-10.2319,-10.239,-10.1391,-9.9615,-10.0812,-10.0797,0.0,0.0,0.0,0.0,0.0,0.0,0.0,0.0,0.0,0.0,0.0,0.0,0.0,0.0,0.0,0.0,0.0,0.0,0.0,0.0,0.0,0.0,0.0,0.0,0.0,0.0,0.0,0.0,0.0,0.0,0.0,0.0,0.0,0.0,0.0,0.0,0.0,0.0,0.0,0.0,0.0,0.0,0.0,0.0,0.0,0.0,0.0,0.0,0.0,0.0,0.0,0.0,0.0,0.0,0.0,0.0,0.0,0.0,0.0,0.0,0.0,0.0,0.0,0.0,0.0,0.0,0.0,0.0,0.0,0.0,0.0,0.0,0.0,0.0,0.0,0.0,0.0,0.0,0.0,0.0,0.0,0.0,0.0,0.0,0.0,0.0,0.0,0.0,0.0,0.0,0.0,0.0,0.0,0.0,0.0,0.0,0.0,0.0,0.0,0.0,0.0,0.0,0.0,0.0,0.0,0.0,0.0,0.0,0.0,0.0,-9.6649,-9.6649,-9.6863,-10.1786,-10.2733,0.0,0.0,0.0,0.0,0.0,0.0,0.0,0.0,0.0,0.0,0.0,0.0,0.0,0.0,0.0,0.0,0.0,0.0,0.0,0.0,0.0,0.0,0.0,0.0,0.0,0.0,0.0,0.0,0.0,0.0,0.0,0.0,0.0,0.0,0.0,0.0,0.0,0.0,0.0,0.0,0.0,0.0,0.0,0.0,0.0,0.0,0.0,0.0,0.0,0.0,0.0,0.0,0.0,0.0,0.0,0.0,0.0,0.0,0.0,0.0,0.0,0.0,0.0,0.0,0.0,0.0,0.0,0.0,0.0,0.0,0.0,0.0,0.0,0.0,0.0,0.0,0.0,0.0,0.0,0.0,0.0,0.0,0.0,0.0,0.0,0.0,0.0,0.0,0.0,0.0,0.0,0.0,0.0,0.0,0.0,0.0,0.0,0.0,0.0,0.0,0.0,0.0,0.0,0.0,0.0,0.0,0.0,0.0,0.0,0.0,-9.8109,-9.8609,-9.9758,-10.0668,-10.0599,-9.9505,0.0,0.0,0.0,0.0,0.0,0.0,0.0,0.0,0.0,0.0,0.0,0.0,0.0,0.0,0.0,0.0,0.0,0.0,0.0,0.0,0.0,0.0,0.0,0.0,0.0,0.0,0.0,0.0,0.0,0.0,0.0,0.0,0.0,0.0,0.0,0.0,0.0,0.0,0.0,0.0,0.0,0.0,0.0,0.0,0.0,0.0,0.0,0.0,0.0,0.0,0.0,0.0,0.0,0.0,0.0,0.0,0.0,0.0,0.0,0.0,0.0,0.0,0.0,0.0,0.0,0.0,0.0,0.0,0.0,0.0,0.0,0.0,0.0,0.0,0.0,0.0,0.0,0.0,0.0,0.0,0.0,0.0,0.0,0.0,0.0,0.0,0.0,0.0,0.0,0.0,0.0,0.0,0.0,0.0,0.0,0.0,0.0,0.0,0.0,0.0,0.0,0.0,0.0,0.0,0.0,0.0,0.0,0.0,0.0,0.0,-9.818,-9.9147,-9.9254,-9.9302,0.0,0.0,0.0,0.0,0.0,0.0,0.0,0.0,0.0,0.0,0.0,0.0,0.0,0.0,0.0,0.0,0.0,0.0,0.0,0.0,0.0,0.0,0.0,0.0,0.0,0.0,0.0,0.0,0.0,0.0,0.0,0.0,0.0,0.0,0.0,0.0,0.0,0.0,0.0,0.0,0.0,0.0,0.0,0.0,0.0,0.0,0.0,0.0,0.0,0.0,0.0,0.0,0.0,0.0,0.0,0.0,0.0,0.0,0.0,0.0,0.0,0.0,0.0,0.0,0.0,0.0,0.0,0.0,0.0,0.0,0.0,0.0,0.0,0.0,0.0,0.0,0.0,0.0,0.0,0.0,0.0,0.0,0.0,0.0,0.0,0.0,0.0,0.0,0.0,0.0,0.0,0.0,0.0,0.0,0.0,0.0,0.0,0.0,0.0,0.0,0.0,0.0,0.0,0.0,0.0,0.0,0.0,0.0,0.0,0.0,0.0,-9.6649,-9.6649,-9.8302,0.0,-9.8779,0.0,0.0,0.0,0.0,0.0,0.0,0.0,0.0,0.0,0.0,0.0,0.0,0.0,0.0,0.0,0.0,0.0,0.0,0.0,0.0,0.0,0.0,0.0,0.0,0.0,0.0,0.0,0.0,0.0,0.0,0.0,0.0,0.0,0.0,0.0,0.0,0.0,0.0,0.0,0.0,0.0,0.0,0.0,0.0,0.0,0.0,0.0,0.0,0.0,0.0,0.0,0.0,0.0,0.0,0.0,0.0,0.0,0.0,0.0,0.0,0.0,0.0,0.0,0.0,0.0,0.0,0.0,0.0,0.0,0.0,0.0,0.0,0.0,0.0,0.0,0.0,0.0,0.0,0.0,0.0,0.0,0.0,0.0,0.0,0.0,0.0,0.0,0.0,0.0,0.0,0.0,0.0,0.0,0.0,0.0,0.0,0.0,0.0,0.0,0.0,0.0,0.0,0.0,0.0,0.0,0.0,0.0,0.0,0.0,0.0,0.0,0.0,-10.0914,-10.1417,-9.9586,0.0,0.0,0.0,0.0,0.0,0.0,0.0,0.0,0.0,0.0,0.0,0.0,0.0,0.0,0.0,0.0,0.0,0.0,0.0,0.0,0.0,0.0,0.0,0.0,0.0,0.0,0.0,0.0,0.0,0.0,0.0,0.0,0.0,0.0,0.0,0.0,0.0,0.0,0.0,0.0,0.0,0.0,0.0,0.0,0.0,0.0,0.0,0.0,0.0,0.0,0.0,0.0,0.0,0.0,0.0,0.0,0.0,0.0,0.0,0.0,0.0,0.0,0.0,0.0,0.0,0.0,0.0,0.0,0.0,0.0,0.0,0.0,0.0,0.0,0.0,0.0,0.0,0.0,0.0,0.0,0.0,0.0,0.0,0.0,0.0,0.0,0.0,0.0,0.0,0.0,0.0,0.0,0.0,0.0,0.0,0.0,0.0,0.0,0.0,0.0,0.0,0.0,0.0,0.0,0.0,0.0,0.0,0.0,0.0,0.0,-9.8612,-9.7139,-10.0462,-10.0893,-9.7724,0.0,0.0,0.0,0.0,0.0,0.0,0.0,0.0,0.0,0.0,0.0,0.0,0.0,0.0,0.0,0.0,0.0,0.0,0.0,0.0,0.0,0.0,0.0,0.0,0.0,0.0,0.0,0.0,0.0,0.0,0.0,0.0,0.0,0.0,0.0,0.0,0.0,0.0,0.0,0.0,0.0,0.0,0.0,0.0,0.0,0.0,0.0,0.0,0.0,0.0,0.0,0.0,0.0,0.0,0.0,0.0,0.0,0.0,0.0,0.0,0.0,0.0,0.0,0.0,0.0,0.0,0.0,0.0,0.0,0.0,0.0,0.0,0.0,0.0,0.0,0.0,0.0,0.0,0.0,0.0,0.0,0.0,0.0,0.0,0.0,0.0,0.0,0.0,0.0,0.0,0.0,0.0,0.0,0.0,0.0,0.0,0.0,0.0,0.0,0.0,0.0,0.0,0.0,0.0,0.0,0.0,0.0,0.0,0.0,0.0,0.0,0.0,0.0,0.0,-9.6258,0.0,0.0,0.0,0.0,0.0,0.0,0.0,0.0,0.0,0.0,0.0,0.0,0.0,0.0,0.0,0.0,0.0,0.0,0.0,0.0,0.0,0.0,0.0,0.0,0.0,0.0,0.0,0.0,0.0,0.0,0.0,0.0,0.0,0.0,0.0,0.0,0.0,0.0,0.0,0.0,0.0,0.0,0.0,0.0,0.0,0.0,0.0,0.0,0.0,0.0,0.0,0.0,0.0,0.0,0.0,0.0,0.0,0.0,0.0,0.0,0.0,0.0,0.0,0.0,0.0,0.0,0.0,0.0,0.0,0.0,0.0,0.0,0.0,0.0,0.0,0.0,0.0,0.0,0.0,0.0,0.0,0.0,0.0,0.0,0.0,0.0,0.0,0.0,0.0,0.0,0.0,0.0,0.0,0.0,0.0,0.0,0.0,0.0,0.0,0.0,0.0,0.0,0.0,0.0,0.0,0.0,0.0,0.0,0.0,0.0,0.0,0.0,0.0,0.0,0.0,0.0,0.0,0.0,0.0,0.0,0.0,0.0,0.0,0.0,0.0,0.0,0.0,0.0,0.0,0.0,0.0,0.0,0.0,0.0,0.0,0.0,0.0,0.0,0.0,0.0,0.0,0.0,0.0,0.0,0.0,0.0,0.0,0.0,0.0,0.0,0.0,0.0,0.0,0.0,0.0,0.0,0.0,0.0,0.0,0.0,0.0,0.0,0.0,0.0,0.0,0.0,0.0,0.0,0.0,0.0,0.0,0.0,0.0,0.0,0.0,0.0,0.0,0.0,0.0,0.0,0.0,0.0,0.0,0.0,0.0,0.0,0.0,0.0,0.0,0.0,0.0,0.0,0.0,0.0,0.0,0.0,0.0,0.0,0.0,0.0,0.0,0.0,0.0,0.0,0.0,0.0,0.0,0.0,0.0,0.0,0.0,0.0,0.0,0.0,0.0,0.0,0.0,0.0,0.0,0.0,0.0,0.0,0.0,0.0,0.0,0.0,0.0,0.0,0.0,0.0,0.0,0.0,0.0,0.0,0.0,0.0,0.0,0.0,0.0,0.0,0.0,0.0,0.0,0.0,0.0,0.0,0.0,0.0,0.0,0.0,0.0,0.0,0.0,0.0,0.0,0.0,0.0,0.0,0.0,0.0,0.0,0.0,0.0,0.0,0.0,0.0,0.0,0.0,0.0,0.0,0.0,0.0,0.0,0.0,0.0,0.0,0.0,0.0,0.0,0.0,0.0,0.0,0.0,0.0,0.0,0.0,0.0,0.0,0.0,0.0,0.0,0.0,0.0,0.0,0.0,0.0,0.0,0.0,0.0,0.0,0.0,0.0,0.0,0.0,0.0,0.0,0.0,0.0,0.0,0.0,0.0,0.0,0.0,0.0,0.0,0.0,0.0,0.0,0.0,0.0,0.0,0.0,0.0,0.0,0.0,0.0,0.0,0.0,0.0,0.0,0.0,0.0,0.0,0.0,0.0,0.0,0.0,0.0,0.0,0.0,0.0,0.0,0.0,0.0,0.0,0.0,0.0,0.0,0.0,0.0,0.0,0.0,0.0,0.0,0.0,0.0,0.0,0.0,0.0,0.0,0.0,0.0,0.0,0.0,0.0,0.0,0.0,0.0,0.0,0.0,0.0,0.0,0.0,0.0,0.0,0.0,0.0,0.0,0.0,0.0,0.0,0.0,0.0,0.0,0.0,0.0,0.0,0.0,0.0,0.0,0.0,0.0,0.0,0.0,0.0,0.0,0.0,0.0,0.0,0.0,0.0,0.0,0.0,0.0,0.0,0.0,0.0,0.0,0.0,0.0,0.0,0.0,0.0,0.0,0.0,0.0,0.0,0.0,0.0,0.0,0.0,0.0,0.0,0.0,0.0,0.0,0.0,0.0,0.0,0.0,0.0,0.0,0.0,0.0,0.0,0.0,0.0,0.0,0.0,0.0,0.0,0.0,0.0,0.0,0.0,0.0,0.0,0.0,0.0,0.0,0.0,0.0,0.0,0.0,0.0,0.0,0.0,0.0,0.0,0.0,0.0,0.0,0.0,0.0,0.0,0.0,0.0,0.0,0.0,0.0,0.0,0.0,0.0,0.0,0.0,0.0,0.0,0.0,0.0,0.0,0.0,0.0,0.0,0.0,0.0,0.0,0.0,0.0,0.0,0.0,0.0,0.0,0.0,0.0,0.0,0.0,0.0,0.0,0.0,0.0,0.0,0.0,0.0,0.0,0.0,0.0,0.0,0.0,0.0,0.0,0.0,0.0,0.0,0.0,0.0,0.0,0.0,0.0,0.0,0.0,0.0,0.0,0.0,0.0,0.0,0.0,0.0,0.0,0.0,0.0,0.0,0.0,0.0,0.0,0.0,0.0,0.0,0.0,0.0,0.0,0.0,0.0,0.0,0.0,0.0,0.0,0.0,0.0,0.0,0.0,0.0,0.0,0.0,0.0,0.0,0.0,0.0,0.0,0.0,0.0,0.0,0.0,0.0,0.0,0.0,0.0,0.0,0.0,0.0,0.0,0.0,0.0,0.0,0.0,0.0,0.0,0.0,0.0,0.0,0.0,0.0,0.0,0.0,0.0,0.0,0.0,0.0,0.0,0.0,0.0,0.0,0.0,0.0,0.0,0.0,0.0,0.0,0.0,0.0,0.0,0.0,0.0,0.0,0.0,0.0,0.0,0.0,0.0,0.0,0.0,0.0,0.0,0.0,0.0,0.0,0.0,0.0,0.0,0.0,0.0,0.0,0.0,0.0,0.0,0.0,0.0,0.0,0.0,0.0,0.0,0.0,0.0,0.0,0.0,0.0,0.0,0.0,0.0,0.0,0.0,0.0,0.0,0.0,0.0,0.0,0.0,0.0,0.0,0.0,0.0,0.0,0.0,0.0,0.0,0.0,0.0,0.0,0.0,0.0,0.0,0.0,0.0,0.0,0.0,0.0,0.0,0.0,0.0,0.0,0.0,0.0,0.0,0.0,0.0,0.0,0.0,0.0,0.0,0.0,0.0,0.0,0.0,0.0,0.0,0.0,0.0,0.0,0.0,0.0,0.0,0.0,0.0,0.0,0.0,0.0,0.0,0.0,0.0,0.0,0.0,0.0,0.0,0.0,0.0,0.0,0.0,0.0,0.0,0.0,0.0,0.0,0.0,0.0,0.0,0.0,0.0,0.0,0.0,0.0,0.0,0.0,0.0,0.0,0.0,0.0,0.0,0.0,0.0,0.0,0.0,0.0,0.0,0.0,0.0,0.0,0.0,0.0,0.0,0.0,0.0,0.0,0.0,0.0,0.0,0.0,0.0,0.0,0.0,0.0,0.0,0.0,0.0,0.0,0.0,0.0,0.0,0.0,0.0,0.0,0.0,0.0,0.0,0.0,0.0,0.0,0.0,0.0,0.0,0.0,0.0,0.0,0.0,0.0,0.0,0.0,0.0,0.0,0.0,0.0,0.0,0.0,0.0,0.0,0.0,0.0,0.0,0.0,0.0,0.0,0.0,0.0,0.0,0.0,0.0,0.0,0.0,0.0,0.0,0.0,0.0,0.0,0.0,0.0,0.0,0.0,0.0,0.0,0.0,0.0,0.0,0.0,0.0,0.0,0.0,0.0,0.0,0.0,0.0,0.0,0.0,0.0,0.0,0.0,0.0,0.0,0.0,0.0,0.0,0.0,0.0,0.0,0.0,0.0,0.0,0.0,0.0,0.0,0.0,0.0,0.0,0.0,0.0,0.0,0.0,0.0,0.0,0.0,0.0,0.0,0.0,0.0,0.0,0.0,0.0,0.0,0.0,0.0,0.0,0.0,0.0,0.0,0.0,0.0,0.0,0.0,0.0,0.0,0.0,0.0,0.0,0.0,0.0,0.0,0.0,0.0,0.0,0.0,0.0,0.0,0.0,0.0,0.0,0.0,0.0,0.0,0.0,0.0,0.0,0.0,0.0,0.0,0.0,0.0,0.0,0.0,0.0,0.0,0.0,0.0,0.0,0.0,0.0,0.0,0.0,0.0,0.0,0.0,0.0,0.0,0.0,0.0,0.0,0.0,0.0,0.0,0.0,0.0,0.0,0.0,0.0,0.0,0.0,0.0,0.0,0.0,0.0,0.0,0.0,0.0,0.0,0.0,0.0,0.0,0.0,0.0,0.0,0.0,0.0,0.0,0.0,0.0,0.0,0.0,0.0,0.0,0.0,0.0,0.0,0.0,0.0,0.0,0.0,0.0,0.0,0.0,0.0,0.0,0.0,0.0,0.0,0.0,0.0,0.0,0.0,0.0,0.0,0.0,0.0,0.0,0.0,0.0,0.0,0.0,0.0,0.0,0.0,0.0,0.0,0.0,0.0,0.0,0.0,0.0,0.0,0.0,0.0,0.0,0.0]}],[{"header":{"parameterUnit":"kt","parameterCategory":2,"dx":1,"dy":1,"la1":29.587661999999998,"la2":31.0,"lo1":-88.76705300000003,"lo2":-86.6583820000003,"nx":115,"ny":88,"refTime":"2022-10-19T06:00:00:Z","depth":0,"parameterNumber":2,"parameterNumberName":"V-component_of_WINDS"},"data":[9.6395,9.6395,9.6395,9.6395,9.6395,9.6395,9.6395,9.6395,9.6395,9.6395,9.6395,9.6395,9.6395,9.6395,9.6395,9.6395,9.6395,9.6395,9.6395,9.6395,9.6395,9.6895,9.8973,10.3505,10.8674,11.2254,11.4458,11.4669,11.4879,11.4879,11.4879,11.4879,11.4879,11.4879,11.4879,11.4879,11.4879,11.4879,11.4879,11.4879,11.4879,11.4879,11.4879,11.4879,11.4879,11.4879,11.4879,11.4879,11.4879,11.4879,11.4879,11.4879,11.4879,11.4879,11.4879,11.4879,11.4879,11.4879,11.4879,11.4879,11.4879,11.4879,11.4879,11.4879,11.4879,11.4879,11.4879,11.4879,11.4588,11.3541,11.2029,11.1215,11.0051,10.8597,10.7899,10.9004,11.0575,11.1971,11.3251,11.4181,11.4763,11.4821,11.4879,11.4879,11.4879,11.4879,11.4879,11.4879,11.4879,11.4879,11.4879,11.4879,11.4879,11.4879,11.4879,11.4879,11.4879,11.4879,11.4879,11.4879,11.4879,11.4879,11.4879,11.4879,11.4879,11.4879,11.4879,11.4879,11.4879,11.4879,11.4879,11.4879,11.4879,11.5345,11.5703,9.6395,9.6395,9.6395,9.6395,9.6395,9.6395,9.6395,9.6395,9.6395,9.6395,9.6395,9.6395,9.6395,9.6395,9.6395,9.6395,9.6395,9.6395,9.6395,9.6395,9.652,9.8039,10.0696,10.4092,10.7774,11.0944,11.3763,11.4669,11.4879,11.4879,11.4879,11.4879,11.4879,11.4879,11.4879,11.4879,11.4879,11.4879,11.4879,11.4879,11.4879,11.4879,11.4879,11.4879,11.4879,11.4879,11.4879,11.4879,11.4879,11.4879,11.4879,11.4879,11.4879,11.4879,11.4879,11.4879,11.4879,11.4879,11.4879,11.4879,11.4879,11.4879,11.4879,11.4879,11.4879,11.4879,11.4879,11.4879,11.4879,11.3949,11.2087,11.0691,10.9353,10.8074,10.8016,10.8306,11.0284,11.2204,11.3425,11.4647,11.4879,11.4879,11.4879,11.4879,11.4879,11.4879,11.4879,11.4879,11.4879,11.4879,11.4879,11.4879,11.4879,11.4879,11.4879,11.4879,11.4879,11.4879,11.4879,11.4879,11.4879,11.4879,11.4879,11.4879,11.4879,11.4879,11.4879,11.4879,11.4879,11.4879,11.4879,11.4879,11.4879,11.4879,11.4879,9.6395,9.6395,9.6395,9.6395,9.6395,9.6395,9.6395,9.6395,9.6395,9.6395,9.6395,9.6395,9.6395,9.6395,9.6395,9.6395,9.6395,9.6395,9.6395,9.722,9.8162,9.9656,10.2678,10.601,10.8674,11.0506,11.3279,11.4879,11.4879,11.4879,11.4879,11.4879,11.4879,11.4879,11.4879,11.4879,11.4879,11.4879,11.4879,11.4879,11.4879,11.4879,11.4879,11.4879,11.4879,11.4879,11.4879,11.4879,11.4879,11.4879,11.4879,11.4879,11.4879,11.4879,11.4879,11.4879,11.4879,11.4879,11.4879,11.4879,11.4879,11.4879,11.4879,11.4879,11.4879,11.4879,11.4879,11.4821,11.4821,11.3716,11.1855,11.0691,10.9353,10.8074,10.7725,10.8539,11.04,11.2262,11.3658,11.4705,11.4879,11.4879,11.4879,11.4879,11.4879,11.4879,11.4879,11.4879,11.4879,11.4879,11.4879,11.4879,11.4879,11.4879,11.4879,11.4879,11.4879,11.4879,11.4879,11.4879,11.4879,11.4879,11.4879,11.4879,11.4879,11.4879,11.4879,11.4879,11.4879,11.4879,11.4879,11.4879,11.4879,11.4879,11.4879,9.6395,9.6395,9.6395,9.6395,9.6395,9.6395,9.6395,9.6395,9.6395,9.6395,9.6395,9.6395,9.6395,9.6395,9.6395,9.6395,9.6395,9.6395,9.6395,9.722,9.9412,10.1058,10.3269,10.7434,11.0285,11.1872,11.3279,11.4879,11.4879,11.4879,11.4879,11.4879,11.4879,11.4879,11.4879,11.4879,11.4879,11.4879,11.4879,11.4879,11.4879,11.4879,11.4879,11.4879,11.4879,11.4879,11.4879,11.4879,11.4879,11.4879,11.4879,11.4879,11.4879,11.4879,11.4879,11.4879,11.4879,11.4879,11.4879,11.4879,11.4879,11.4879,11.4879,11.4879,11.4879,11.4879,11.4879,11.4763,11.4181,11.2902,11.1564,11.0691,10.9702,10.8423,10.7376,10.9004,11.0691,11.232,11.389,11.4472,11.4821,11.4879,11.4879,11.4879,11.4879,11.4879,11.4879,11.4879,11.4879,11.4879,11.4879,11.4879,11.4879,11.4879,11.4879,11.4879,11.4879,11.4879,11.4879,11.4879,11.4879,11.4879,11.4879,11.4879,11.4879,11.4879,11.4879,11.4879,11.4879,11.4879,11.4879,11.4879,11.4879,11.4879,11.4879,9.6395,9.6395,9.6395,9.6395,9.6395,9.6395,9.6395,9.6395,9.6395,9.6395,9.6395,9.6395,9.6395,9.6395,9.6395,9.6395,9.6395,9.6395,9.652,9.6771,10.0334,10.3269,10.5665,10.8674,11.1764,11.3706,11.4774,11.4879,11.4879,11.4879,11.4879,11.4879,11.4879,11.4879,11.4879,11.4879,11.4879,11.4879,11.4879,11.4879,11.4879,11.4879,11.4879,11.4879,11.4879,11.4879,11.4879,11.4879,11.4879,11.4879,11.4879,11.4879,11.4879,11.4879,11.4879,11.4879,11.4879,11.4879,11.4879,11.4879,11.4879,11.4879,11.4879,11.4879,11.4879,11.4879,11.4879,11.4821,11.389,11.2611,11.1331,11.0342,10.9237,10.7957,10.755,10.8539,11.0051,11.1389,11.296,11.4181,11.453,11.4879,11.4879,11.4879,11.4879,11.4879,11.4879,11.4879,11.4879,11.4879,11.4879,11.4879,11.4879,11.4879,11.4879,11.4879,11.4879,11.4879,11.4879,11.4879,11.4879,11.4879,11.4879,11.4879,11.4879,11.4879,11.4879,11.4879,11.4879,11.4879,11.4879,11.4879,11.4879,11.4879,11.4879,9.6395,9.6395,9.6395,9.6395,9.6395,9.6395,9.6395,9.6395,9.6395,9.6395,9.6395,9.6395,9.6395,9.6395,9.6395,9.6395,9.6395,9.6395,9.7345,9.8851,10.2678,10.5203,10.845,11.1547,11.3493,11.4294,11.4879,11.4879,11.4879,11.4879,11.4879,11.4879,11.4879,11.4879,11.4879,11.4879,11.4879,11.4879,11.4879,11.4879,11.4879,11.4879,11.4879,11.4879,11.4879,11.4879,11.4879,11.4879,11.4879,11.4879,11.4879,11.4879,11.4879,11.4879,11.4879,11.4879,11.4879,11.4879,11.4879,11.4879,11.4879,11.4879,11.4879,11.4879,11.4879,11.4879,11.4879,11.4588,11.3541,11.2436,11.1157,10.9877,10.8597,10.7434,10.7783,10.8132,10.9295,11.0517,11.1971,11.3483,11.4298,11.4763,11.4879,11.4879,11.4879,11.4879,11.4879,11.4879,11.4879,11.4879,11.4879,11.4879,11.4879,11.4879,11.4879,11.4879,11.4879,11.4879,11.4879,11.4879,11.4879,11.4879,11.4879,11.4879,11.4879,11.4879,11.4879,11.4879,11.4879,11.4879,11.4879,11.4879,11.4879,11.4879,11.4879,9.6395,9.6395,9.6395,9.6395,9.6395,9.6395,9.6395,9.6395,9.6395,9.6395,9.6395,9.6395,9.6395,9.6395,9.6395,9.6395,9.6395,9.6771,9.8162,10.0506,10.3151,10.6354,10.9455,11.2362,11.4458,11.4879,11.4879,11.4879,11.4879,11.4879,11.4879,11.4879,11.4879,11.4879,11.4879,11.4879,11.4879,11.4879,11.4879,11.4879,11.4879,11.4879,11.4879,11.4879,11.4879,11.4879,11.4879,11.4879,11.4879,11.4879,11.4879,11.4879,11.4879,11.4879,11.4879,11.4879,11.4879,11.4879,11.4879,11.4879,11.4879,11.4879,11.4879,11.4879,11.4879,11.4879,11.4879,11.4239,11.3251,11.2204,11.0982,10.947,10.8016,10.7434,10.7434,10.8306,10.9877,11.104,11.2145,11.3541,11.453,11.4879,11.4879,11.4879,11.4879,11.4879,11.4879,11.4879,11.4879,11.4879,11.4879,11.4879,11.4879,11.4879,11.4879,11.4879,11.4879,11.4879,11.4879,11.4879,11.4879,11.4879,11.4879,11.4879,11.4879,11.4879,11.4879,11.4879,11.4879,11.4879,11.4879,11.4879,11.4879,11.4879,11.4879,9.6395,9.6395,9.6395,9.6395,9.6395,9.6395,9.6395,9.6395,9.6395,9.6395,9.6395,9.6395,9.6395,9.6395,9.6395,9.6395,9.6395,9.6395,9.7345,9.9218,10.3505,10.5834,10.8786,11.2362,11.4294,11.4879,11.4879,11.4879,11.4879,11.4879,11.4879,11.4879,11.4879,11.4879,11.4879,11.4879,11.4879,11.4879,11.4879,11.4879,11.4879,11.4879,11.4879,11.4879,11.4879,11.4879,11.4879,11.4879,11.4879,11.4879,11.4879,11.4879,11.4879,11.4879,11.4879,11.4879,11.4879,11.4879,11.4879,11.4879,11.4879,11.4879,11.4879,11.4879,11.4879,11.4879,11.4705,11.4007,11.2727,11.1738,11.0691,10.9063,10.755,10.7492,10.7376,10.8539,11.0168,11.1506,11.2553,11.3425,11.4356,11.4879,11.4879,11.4879,11.4879,11.4879,11.4879,11.4879,11.4879,11.4879,11.4879,11.4879,11.4879,11.4879,11.4879,11.4879,11.4879,11.4879,11.4879,11.4879,11.4879,11.4879,11.4879,11.4879,11.4879,11.4879,11.4879,11.4879,11.4879,11.4879,11.4879,11.4879,11.4879,11.4879,11.4879,9.6395,9.6395,9.6395,9.6395,9.6395,9.6395,9.6395,9.6395,9.6395,9.6395,9.6395,9.6395,9.6395,9.6395,9.6395,9.6395,9.6395,9.652,9.722,10.2849,10.5078,10.7661,11.0615,11.3976,11.4774,11.4879,11.4879,11.4879,11.4879,11.4879,11.4879,11.4879,11.4879,11.4879,11.4879,11.4879,11.4879,11.4879,11.4879,11.4879,11.4879,11.4879,11.4879,11.4879,11.4879,11.4879,11.4879,11.4879,11.4879,11.4879,11.4879,11.4879,11.4879,11.4879,11.4879,11.4879,11.4879,11.4879,11.4879,11.4879,11.4879,11.4879,11.4879,11.4879,11.4879,11.4879,11.453,11.3541,11.2029,11.0866,10.9761,10.8481,10.755,10.7667,10.7841,10.8697,11.011,11.1855,11.296,11.3367,11.4065,11.4588,11.4879,11.4879,11.4879,11.4879,11.4879,11.4879,11.4879,11.4879,11.4879,11.4879,11.4879,11.4879,11.4879,11.4879,11.4879,11.4879,11.4879,11.4879,11.4879,11.4879,11.4879,11.4879,11.4879,11.4879,11.4879,11.4879,11.4879,11.4879,11.4879,11.4879,11.4879,11.4879,11.4879,9.6395,9.6395,9.6395,9.6395,9.6395,9.6395,9.6395,9.6395,9.6395,9.6395,9.6395,9.6395,9.6395,9.6395,9.6395,9.6395,9.6395,9.6646,9.8605,10.3623,10.5256,10.9009,11.2089,11.3763,11.4879,11.4879,11.4879,11.4879,11.4879,11.4879,11.4879,11.4879,11.4879,11.4879,11.4879,11.4879,11.4937,11.4937,11.4937,11.4879,11.4879,11.4879,11.4879,11.4879,11.4879,11.4879,11.4879,11.4879,11.4879,11.4879,11.4879,11.4879,11.4879,11.4879,11.4879,11.4879,11.4879,11.4879,11.4879,11.4879,11.4879,11.4879,11.4879,11.4879,11.4879,11.4879,11.4181,11.3076,11.1796,11.0575,10.9295,10.8074,10.7899,10.8016,10.8539,10.9395,11.0517,11.2204,11.3309,11.3716,11.4065,11.4647,11.4879,11.4879,11.4879,11.4879,11.4879,11.4879,11.4879,11.4879,11.4879,11.4879,11.4879,11.4879,11.4879,11.4879,11.4879,11.4879,11.4879,11.4879,11.4879,11.4879,11.4879,11.4879,11.4879,11.4879,11.4879,11.4879,11.4879,11.4879,11.4879,11.4879,11.4879,11.4879,11.4821,9.6395,9.6395,9.6395,9.6395,9.6395,9.6395,9.6395,9.6395,9.6395,9.6395,9.6395,9.6395,9.6395,9.6395,9.6395,9.6395,9.6395,9.652,9.8728,10.2203,10.4908,10.7661,11.0835,11.3493,11.4879,11.4879,11.4879,11.4879,11.4879,11.4879,11.4879,11.4879,11.4879,11.4879,11.4879,11.4937,11.4996,11.4996,11.5054,11.4996,11.4937,11.4879,11.4879,11.4879,11.4879,11.4879,11.4879,11.4879,11.4879,11.4879,11.4879,11.4879,11.4879,11.4879,11.4879,11.4879,11.4879,11.4879,11.4879,11.4879,11.4879,11.4879,11.4879,11.4879,11.4879,11.4647,11.4065,11.2553,11.1447,11.0284,10.9295,10.8306,10.8597,10.8888,10.947,11.0284,11.168,11.3089,11.3832,11.4356,11.4705,11.4879,11.4879,11.4879,11.4879,11.4879,11.4879,11.4879,11.4879,11.4879,11.4879,11.4879,11.4879,11.4879,11.4879,11.4879,11.4879,11.4879,11.4879,11.4879,11.4879,11.4879,11.4879,11.4879,11.4879,11.4879,11.4879,11.4774,11.4879,11.4879,11.4879,11.4879,11.4879,11.4879,11.4647,9.6395,9.6395,9.6395,9.6395,9.6395,9.6395,9.6395,9.6395,9.6395,9.6395,9.6395,9.6395,9.6395,9.6395,9.6395,9.6395,9.6395,9.6771,9.9778,10.2849,10.5603,10.8786,11.2146,11.4294,11.4879,11.4879,11.4879,11.4879,11.4879,11.4879,11.4879,11.4879,11.4879,11.4879,11.5112,11.5694,11.6217,11.6217,11.6159,11.5926,11.4937,11.4879,11.4879,11.4879,11.4879,11.4879,11.4879,11.4879,11.4879,11.4879,11.4879,11.4879,11.4879,11.4879,11.4879,11.4879,11.4879,11.4879,11.4879,11.4879,11.4879,11.4879,11.4879,11.4879,11.4647,11.4007,11.3192,11.1796,11.0633,10.9586,10.9295,10.9004,10.9295,11.0284,11.0808,11.1506,11.2843,11.3716,11.4356,11.4763,11.4821,11.4879,11.4879,11.4879,11.4879,11.4879,11.4879,11.4879,11.4879,11.4879,11.4879,11.4879,11.4879,11.4879,11.4879,11.4879,11.4879,11.4879,11.4879,11.4879,11.4879,11.4879,11.4879,11.4879,11.4879,11.4879,11.4669,11.4188,11.4458,11.4774,11.4879,11.4879,11.4879,11.4879,11.4588,9.6395,9.6395,9.6395,9.6395,9.6395,9.6395,9.6395,9.6395,9.6395,9.6395,9.6395,9.6395,9.6395,9.6395,9.6395,9.6395,9.6395,9.6395,10.0385,10.391,10.6462,10.951,11.2958,11.4774,11.4879,11.4879,11.4879,11.4879,11.4879,11.4879,11.4879,11.4879,11.4879,11.4879,11.5286,11.5984,11.6566,11.6741,11.6624,11.6159,11.517,11.4879,11.4879,11.4879,11.4879,11.4879,11.4879,11.4879,11.4879,11.4879,11.4879,11.4879,11.4879,11.4879,11.4879,11.4879,11.4879,11.4879,11.4879,11.4879,11.4879,11.4879,11.4879,11.4879,11.4821,11.3774,11.2436,11.1331,11.04,10.9819,10.9528,10.9702,11.04,11.1506,11.2378,11.296,11.3716,11.4298,11.4821,11.4821,11.4879,11.4879,11.4879,11.4879,11.4879,11.4879,11.4879,11.4879,11.4879,11.4879,11.4879,11.4879,11.4879,11.4879,11.4879,11.4879,11.4879,11.4879,11.4879,11.4879,11.4879,11.4774,11.4082,11.4774,11.4879,11.4669,11.4294,11.3763,11.387,11.4563,11.4879,11.4458,11.4669,11.4879,11.4298,9.6395,9.6395,9.6395,9.6395,9.6395,9.6395,9.6395,9.6395,9.6395,9.6395,9.6395,9.6444,9.6493,9.6639,9.6834,9.6981,9.6737,9.6792,10.0882,10.4356,10.6462,10.9843,11.3065,11.4879,11.4879,11.4879,11.4879,11.4879,11.4879,11.4879,11.4879,11.4879,11.4879,11.4937,11.5519,11.6624,11.7264,11.7671,11.7264,11.6508,11.5345,11.4879,11.4879,11.4879,11.4879,11.4879,11.4879,11.4879,11.4879,11.4879,11.4879,11.4879,11.4879,11.4879,11.4879,11.4879,11.4879,11.4879,11.4879,11.4879,11.4879,11.4879,11.4879,11.4879,11.4821,11.3716,11.2553,11.1506,11.0924,11.04,11.0342,11.0459,11.168,11.2669,11.3367,11.389,11.4298,11.4821,11.4879,11.4879,11.4879,11.4879,11.4879,11.4879,11.4879,11.4879,11.4879,11.4879,11.4879,11.4774,11.4879,11.4563,11.4563,11.4294,11.4294,11.3763,11.2685,11.2578,11.2038,11.247,11.3279,11.3279,11.2146,11.247,11.1821,11.3279,11.3976,11.1655,11.1001,11.3279,11.387,11.2254,11.1929,11.1712,11.152,9.6395,9.6395,9.6395,9.6395,9.6395,9.6395,9.6395,9.6395,9.6395,9.6395,9.6395,9.6493,9.6932,9.7567,9.8299,9.8591,9.8945,10.0455,10.3553,10.6282,10.872,11.1389,11.3936,11.4937,11.4937,11.4879,11.4879,11.4879,11.4879,11.4879,11.4879,11.4879,11.4879,11.5345,11.6333,11.7497,11.8602,11.9184,11.8602,11.7031,11.5286,11.4879,11.4879,11.4879,11.4879,11.4879,11.4879,11.4879,11.4879,11.4879,11.4879,11.4879,11.4879,11.4879,11.4879,11.4879,11.4879,11.4879,11.4879,11.4879,11.4879,11.4879,11.4879,11.4879,11.4705,11.3774,11.2669,11.2204,11.1622,11.1564,11.1855,11.2145,11.3076,11.3716,11.4239,11.453,11.4821,11.4879,11.4879,11.4879,11.4879,11.4879,11.4647,11.4763,11.4879,11.4879,11.4879,11.4879,11.4774,11.4669,11.4294,11.3493,11.29,11.1764,11.1655,11.1219,11.0395,10.9566,10.8337,10.8225,10.8729,10.8953,10.9622,10.8729,10.7548,10.8674,11.0175,10.8562,10.7207,10.8841,10.9899,10.9065,10.8729,10.7829,10.7394,9.6395,9.6395,9.6395,9.6395,9.6395,9.6395,9.6395,9.6395,9.6395,9.6395,9.6493,9.6834,9.742,9.8103,9.9177,9.9714,10.0293,10.2211,10.5077,10.7974,11.0775,11.3291,11.522,11.5694,11.5228,11.5112,11.4879,11.4996,11.4879,11.4879,11.4879,11.4879,11.4937,11.5519,11.6682,11.8078,11.9416,11.9998,11.9358,11.7497,11.5577,11.4879,11.4879,11.4879,11.4879,11.4879,11.4879,11.4879,11.4879,11.4879,11.4879,11.4879,11.4879,11.4879,11.4879,11.4879,11.4879,11.4879,11.4879,11.4879,11.4879,11.4879,11.4879,11.4821,11.4647,11.3774,11.2843,11.2262,11.1855,11.2145,11.2727,11.3483,11.4181,11.453,11.4705,11.4879,11.4879,11.4879,11.4879,11.4879,11.4879,11.4356,11.3949,11.403,11.4062,11.3408,11.2647,11.1893,11.1571,11.24,11.247,11.1816,11.0283,10.9121,10.8898,10.8225,10.7039,10.7093,10.5834,10.5372,10.5194,10.5426,10.6691,10.6462,10.5256,10.5024,10.5434,10.5087,10.4676,10.514,10.5657,10.6577,10.7148,10.6064,10.4606,9.6395,9.6395,9.6395,9.6646,9.6971,9.7096,9.722,9.7717,9.7469,9.7145,9.8758,9.8605,9.9323,10.0297,10.1063,10.0477,10.138,10.3926,10.7132,10.9673,11.3016,11.5538,11.6643,11.6915,11.6333,11.5054,11.5112,11.5054,11.4937,11.4879,11.4879,11.4879,11.4996,11.5519,11.6799,11.8137,11.9416,12.0231,11.9416,11.7729,11.5868,11.5112,11.4937,11.4879,11.4879,11.4879,11.4879,11.4879,11.4879,11.4879,11.4879,11.4879,11.4879,11.4879,11.4879,11.4879,11.4879,11.4879,11.4879,11.4879,11.4879,11.4879,11.4588,11.4647,11.4123,11.3251,11.2204,11.1215,11.2436,11.3251,11.36,11.4239,11.4705,11.4879,11.4879,11.4879,11.4879,11.4879,11.4879,11.4879,11.4879,11.4239,11.2997,11.3205,11.2917,11.15,10.9973,10.8284,10.746,10.8899,10.9455,10.784,10.6436,10.636,10.6179,10.4676,10.4209,10.4908,10.3975,10.3269,10.273,10.2255,10.3557,10.3675,10.3623,10.3151,10.2203,10.1845,10.2203,10.2255,10.2016,10.3204,10.4845,10.4283,10.302,9.6395,9.6395,9.6395,9.7915,9.9849,10.0092,10.1418,10.3033,10.1178,10.1882,10.4647,10.3239,10.4198,10.6798,10.5852,10.3835,10.2768,10.7415,10.9445,11.1457,11.5337,11.7209,11.7389,11.7439,11.7206,11.5519,11.5752,11.5868,11.5112,11.4879,11.4879,11.4879,11.4879,11.5519,11.6799,11.8137,11.9416,11.994,11.9474,11.8718,11.7555,11.6101,11.4879,11.4879,11.4879,11.4879,11.4879,11.4879,11.4879,11.4879,11.4879,11.4879,11.4879,11.4879,11.4879,11.4879,11.4879,11.4879,11.4879,11.4879,11.4879,11.4647,11.3949,11.3483,11.3076,11.2436,11.1796,11.2669,11.3658,11.4356,11.4356,11.4705,11.4879,11.4879,11.4879,11.4879,11.4879,11.4879,11.4879,11.4879,11.4879,11.3867,11.2024,11.1614,10.8702,10.7173,10.6521,10.47,10.2304,10.4108,10.5418,10.394,10.3055,10.3242,10.273,10.1058,10.1298,10.1897,10.1298,10.0627,9.99,9.9341,9.8851,9.9096,9.9412,10.0264,9.8482,9.7668,9.8728,9.9218,9.8482,9.8728,9.9849,9.9888,9.957,9.6395,9.6395,9.6395,9.8286,10.0817,10.1058,10.3229,10.6005,10.5003,10.5756,10.6949,10.5929,10.6304,10.7311,10.5758,10.4002,10.4612,10.8832,11.1526,11.3119,11.7547,11.994,11.9067,11.866,11.7497,11.6508,11.6333,11.6101,11.4996,11.4879,11.4879,11.4879,11.4879,11.5519,11.6799,11.802,11.9125,11.9649,11.9707,11.9125,11.7671,11.6682,11.5403,11.5112,11.4879,11.4879,11.4879,11.4879,11.4879,11.4879,11.4879,11.4879,11.4879,11.4879,11.4879,11.4879,11.4879,11.4879,11.4879,11.4879,11.4588,11.4065,11.3425,11.2785,11.2029,11.1622,11.168,11.2843,11.4065,11.4879,11.4879,11.4879,11.4879,11.4879,11.4879,11.4879,11.4879,11.4879,11.4879,11.4879,11.3351,11.1477,11.0189,10.7481,10.4708,10.3446,10.2943,10.0271,9.7121,9.8884,10.1101,9.974,9.8594,9.8908,9.9096,9.8286,9.8409,9.8532,9.8162,9.7717,9.722,9.7593,9.702,9.6395,9.6395,9.7469,9.652,9.652,9.652,9.6646,9.6971,9.7047,9.6499,9.5809,9.5669,9.6395,9.6395,9.6395,9.8755,10.1864,10.2104,10.5161,10.8765,10.899,10.9525,11.0901,10.8376,10.756,10.7683,10.5377,10.3805,10.5417,10.9531,11.2591,11.3691,11.8568,12.1103,11.9823,11.9067,11.802,11.709,11.6741,11.6101,11.517,11.4879,11.4879,11.4879,11.4879,11.5286,11.645,11.7671,11.8369,11.8544,11.9358,11.8893,11.7497,11.6624,11.6101,11.4996,11.4879,11.4879,11.4879,11.4879,11.4879,11.4879,11.4879,11.4879,11.4879,11.4879,11.4879,11.4879,11.4879,11.4879,11.4821,11.4705,11.3949,11.3251,11.2669,11.1971,11.1157,11.0924,11.1389,11.2553,11.36,11.4647,11.4821,11.4879,11.4879,11.4879,11.4879,11.4879,11.4879,11.4774,11.4669,11.3435,11.0845,10.8482,10.602,10.3505,10.0873,9.9281,9.8402,9.5991,9.4072,9.5227,9.6908,9.6073,9.4833,9.5565,9.6151,9.6102,9.6374,9.6775,9.6699,9.6249,9.6395,9.6395,9.6395,9.6395,9.6395,9.6395,9.6395,9.6395,9.6395,9.6395,9.6395,9.6472,9.5907,9.5419,9.454,9.6395,9.6395,9.6395,10.0335,10.6005,10.6411,11.0254,11.5892,11.4267,11.4714,11.7378,11.2791,11.1693,11.3433,10.9279,10.7006,10.7778,11.0714,11.2506,11.3326,11.8742,12.0364,11.9533,11.8718,11.768,11.6915,11.6624,11.6043,11.517,11.4879,11.4879,11.4879,11.4879,11.5112,11.5461,11.645,11.7206,11.738,11.8602,11.8544,11.709,11.6857,11.6275,11.5286,11.4996,11.4879,11.4879,11.4879,11.4879,11.4879,11.4879,11.4879,11.4879,11.4879,11.4879,11.4879,11.4763,11.4705,11.453,11.3832,11.3134,11.3018,11.2029,11.0749,11.011,11.0342,11.104,11.1796,11.2843,11.4007,11.4763,11.4879,11.4879,11.4879,11.4879,11.4879,11.4879,11.4879,11.3493,11.1702,10.9107,10.5971,10.3114,9.9486,9.703,9.4994,9.3688,9.2443,9.1911,9.2157,9.3301,9.3099,9.4052,9.4882,9.5175,9.5224,9.5809,9.6156,9.6254,9.6151,9.6395,9.6395,9.6395,9.6395,9.6395,9.6395,9.6395,9.6395,9.6395,9.6395,9.62,9.5663,9.5273,9.4931,9.3711,9.6395,9.6395,9.6395,10.063,10.686,10.7671,11.2117,11.8094,11.6357,11.7435,11.9654,11.4839,11.319,11.4406,11.0087,10.6669,10.594,10.6928,10.9308,11.3569,11.8682,12.0818,11.9823,11.7796,11.5427,11.3765,11.49,11.5413,11.5054,11.4879,11.4879,11.4879,11.4879,11.4879,11.5054,11.6217,11.6392,11.6392,11.8253,11.8776,11.7322,11.738,11.7206,11.6159,11.5228,11.4879,11.4879,11.4879,11.4879,11.4879,11.4879,11.4879,11.4879,11.4879,11.4879,11.4763,11.4356,11.389,11.36,11.2727,11.168,11.0982,11.0459,10.9453,10.8888,10.9935,11.0808,11.1389,11.2727,11.4181,11.4821,11.4879,11.4879,11.4879,11.4879,11.4879,11.4879,11.4879,11.3706,11.0606,10.7128,10.3767,9.9841,9.5521,9.3001,9.27,9.1352,9.1234,9.0587,9.1026,9.1563,9.2051,9.3174,9.3906,9.415,9.4492,9.5029,9.5517,9.5809,9.6249,9.6395,9.6395,9.6395,9.6395,9.6395,9.6395,9.6395,9.6346,9.6346,9.5956,9.5419,9.4882,9.4345,9.3711,9.2686,9.8089,9.7469,9.8411,10.2396,10.747,10.902,11.3861,12.0712,11.7489,11.8514,12.04,11.5665,11.2944,11.2629,10.9331,10.594,10.3322,10.3638,10.586,11.2029,11.81,11.976,11.8826,11.7746,11.4147,11.1991,11.378,11.4583,11.4246,11.4188,11.4611,11.4188,11.4188,11.4879,11.4996,11.581,11.581,11.5694,11.8369,11.8835,11.738,11.7962,11.802,11.6741,11.5519,11.4937,11.4879,11.4879,11.4188,11.3386,11.3115,11.2836,11.2121,11.2656,11.2802,11.2611,11.2279,11.2553,11.232,11.1389,11.0168,10.9528,10.9453,10.8871,10.7899,11.0051,11.1331,11.1855,11.3425,11.4647,11.4879,11.4879,11.4879,11.4879,11.4879,11.4669,11.3812,11.2885,11.0603,10.7569,10.3698,10.0007,9.663,9.2389,9.1046,9.0333,9.005,9.005,9.0343,9.0733,9.0977,9.1075,9.2051,9.2832,9.3027,9.3223,9.415,9.5077,9.5809,9.6395,9.6395,9.6395,9.6395,9.6395,9.6346,9.6395,9.6395,9.6298,9.5712,9.5175,9.4638,9.3906,9.3174,9.2442,9.1493,10.3151,10.0868,10.4675,10.7448,10.9468,11.3372,11.7148,12.108,11.8621,11.9253,12.0458,11.5545,11.2629,11.2506,10.9003,10.5889,10.2887,10.2753,10.5337,10.8988,11.289,11.4766,11.4998,11.6568,11.4918,11.1175,11.4593,11.414,11.3022,11.3976,11.3386,11.2685,11.3976,11.4774,11.4996,11.5054,11.5054,11.5403,11.7671,11.8078,11.738,11.7846,11.7904,11.6741,11.5577,11.4937,11.4879,11.4669,11.2356,10.7093,10.9232,10.8732,10.6241,10.8117,10.8702,10.8498,11.0156,11.1215,11.104,11.011,10.9337,10.9063,10.9162,10.9162,10.9353,11.0866,11.2378,11.2494,11.4007,11.4763,11.4879,11.4879,11.4879,11.4879,11.4669,11.3386,11.0885,10.7347,10.3994,10.0841,9.8673,9.5685,9.302,9.0949,9.005,9.005,9.005,9.005,9.0197,9.0392,9.0441,9.0489,9.1075,9.1758,9.1856,9.2002,9.3369,9.4589,9.537,9.6005,9.6005,9.6249,9.6346,9.6249,9.6005,9.5956,9.6005,9.5565,9.498,9.4394,9.3662,9.2832,9.2051,9.1298,9.1005,10.1178,9.8532,10.0284,10.3239,10.6869,11.0645,11.513,11.8677,11.8205,11.8439,11.8439,11.4703,11.164,10.971,10.8366,10.5889,10.3105,10.2753,10.473,10.7905,11.1274,11.1175,11.0049,11.258,11.2188,10.8335,11.1231,11.2653,11.3065,11.4188,11.4188,11.3057,11.4294,11.4879,11.4879,11.4879,11.4879,11.5228,11.6566,11.738,11.6857,11.738,11.7206,11.6741,11.5577,11.4879,11.4879,11.4879,11.135,10.5856,10.4861,10.4977,10.3486,10.5804,10.715,10.6915,10.8801,10.9935,10.9702,10.8772,10.8132,10.8074,10.8074,10.8423,10.9353,11.0691,11.232,11.296,11.4181,11.4763,11.4879,11.4879,11.4879,11.4611,11.3279,11.0663,10.6957,10.4841,10.2427,9.94,9.7108,9.5048,9.2038,9.0685,9.0148,9.005,9.005,9.005,9.005,9.005,9.0099,9.0148,9.0538,9.0782,9.0929,9.1417,9.2539,9.3564,9.4443,9.5224,9.5517,9.5956,9.6102,9.6151,9.5712,9.5321,9.498,9.4589,9.4004,9.332,9.2686,9.1905,9.1173,9.0441,9.0441,10.0455,9.7891,9.9255,10.155,10.4909,10.9787,11.3658,11.6151,11.6262,11.6143,11.561,11.2821,10.9962,10.7855,10.7727,10.5889,10.3505,10.2753,10.4334,10.6567,10.9103,10.7604,10.5616,10.7287,10.7341,10.5608,10.8013,11.0095,11.1443,11.2706,11.2889,11.2171,11.3023,11.4472,11.4879,11.4879,11.4879,11.5054,11.6159,11.6799,11.6741,11.6566,11.6333,11.5994,11.3851,11.3042,11.3728,11.2515,10.8326,10.2839,10.1786,10.0835,9.9615,10.186,10.3558,10.4248,10.615,10.7798,10.8282,10.7841,10.7376,10.7318,10.7434,10.7841,10.9063,11.0284,11.1564,11.2843,11.4123,11.4879,11.4879,11.4879,11.4879,11.4342,11.059,10.6519,10.3118,10.1493,9.9695,9.6783,9.5186,9.3421,9.1518,9.0489,9.005,9.005,9.005,9.005,9.005,9.005,9.005,9.005,9.005,9.005,9.0197,9.088,9.1612,9.2686,9.3467,9.4199,9.4687,9.5175,9.5565,9.5614,9.4638,9.4345,9.4004,9.3467,9.2832,9.2149,9.1612,9.1124,9.0343,9.005,9.0099,10.3623,10.1676,10.6178,10.6121,10.5239,11.2467,11.4462,11.3257,11.3081,11.3027,11.2222,10.9574,10.7777,10.7496,10.6727,10.5277,10.3189,10.2643,10.2895,10.3343,10.3727,10.4135,10.322,10.3997,10.3613,10.2766,10.5201,10.5418,10.4599,10.8799,10.9027,10.63,11.0276,11.3391,11.3399,11.4553,11.3899,11.3745,11.522,11.5906,11.612,11.5143,11.4563,11.4389,11.0254,10.8799,10.9637,10.5796,10.2785,10.2121,9.9038,9.631,9.3653,9.4932,9.7769,9.9438,10.1874,10.4461,10.6685,10.6924,10.6964,10.7318,10.7434,10.7841,10.9179,11.04,11.1564,11.2843,11.389,11.4647,11.4588,11.432,11.411,11.3678,10.7456,10.2316,9.8535,9.5076,9.3616,9.2394,9.1185,9.0265,9.048,9.0197,9.005,9.005,9.005,9.005,9.005,9.005,9.005,9.005,9.005,9.005,9.005,9.0636,9.0977,9.1856,9.2442,9.3027,9.3515,9.4052,9.454,9.3906,9.3223,9.3223,9.2979,9.2295,9.1612,9.1222,9.0831,9.0294,9.005,9.005,9.005,10.0938,9.8459,10.032,10.0778,10.1207,10.5981,10.841,10.8829,11.0092,10.9832,10.8403,10.656,10.4664,10.3027,10.264,10.1913,10.1017,10.0885,10.0885,10.0935,10.0992,10.1658,10.2546,10.0627,9.9282,9.9549,10.055,10.1451,10.2455,10.6163,10.6601,10.4047,10.694,10.8561,10.712,10.7067,10.7067,10.7122,10.7676,10.8662,10.9685,10.8214,10.7934,10.9219,10.7791,10.6433,10.5029,9.8451,9.5455,9.6475,9.4476,9.2339,9.1155,9.3231,9.5198,9.6341,9.8578,10.1548,10.4133,10.4696,10.5257,10.7138,10.8016,10.9004,11.0051,11.0575,11.1564,11.2553,11.252,11.2436,11.2127,11.103,10.9013,10.7284,10.2439,9.9341,9.7634,9.4051,9.1584,9.0733,9.0294,9.0099,9.005,9.005,9.005,9.005,9.005,9.005,9.005,9.005,9.005,9.005,9.005,9.005,9.005,9.0245,9.0538,9.0831,9.1222,9.1661,9.1807,9.2246,9.2735,9.21,9.1661,9.1612,9.1758,9.1075,9.0733,9.0538,9.0294,9.005,9.005,9.005,9.005,9.8359,9.6569,9.6737,9.7176,9.7898,10.1826,10.3384,10.3902,10.6766,10.6537,10.4359,10.3297,10.1778,10.0053,9.9665,9.9714,9.9568,9.8201,9.8006,9.8347,9.7518,9.789,9.86,9.6037,9.4775,9.5444,9.6185,9.7853,9.9997,10.2741,10.296,10.1531,10.3342,10.3778,10.2896,10.2509,10.2509,10.2509,10.2509,10.3283,10.4923,10.3177,10.285,10.4424,10.3447,10.1487,9.8541,9.3956,9.199,9.2906,9.1117,9.005,9.0235,9.1875,9.326,9.4338,9.6236,9.8524,10.113,10.1757,10.2849,10.5371,10.6762,10.7986,10.9602,10.9285,10.9248,10.9938,10.9153,10.8336,10.8021,10.6484,10.3997,10.0268,9.722,9.5207,9.459,9.2717,9.0949,9.0148,9.005,9.005,9.005,9.005,9.005,9.005,9.005,9.005,9.005,9.005,9.005,9.005,9.005,9.005,9.005,9.0148,8.966,8.9269,8.9611,9.0001,8.9806,8.9953,9.0392,9.0343,9.0001,8.9953,9.0197,9.0148,9.005,8.9855,9.0001,9.005,9.005,9.005,9.005,9.6472,9.6346,9.7518,9.7078,9.6994,10.1251,10.1708,9.9521,10.266,10.2639,10.055,9.9906,9.979,9.947,9.9128,9.9421,9.8591,9.5468,9.4784,9.6102,9.3662,9.2953,9.3903,9.1878,9.0969,9.1076,9.3121,9.4379,9.4871,9.7484,9.8017,9.7073,9.908,10.0612,10.2014,10.1242,10.1737,10.1407,10.1131,10.1795,10.2236,10.0609,9.9964,10.0077,9.6852,9.3791,9.0849,9.2678,9.2513,9.0585,9.0001,9.0001,9.0001,9.0235,9.1298,9.3487,9.4225,9.5684,9.8147,9.8578,9.9914,10.2436,10.3167,10.4483,10.6316,10.581,10.5072,10.5036,10.3881,10.2792,10.2848,10.2021,9.9716,9.5189,9.262,9.0978,9.0597,9.0099,9.005,9.005,9.005,9.005,9.005,9.005,9.005,9.005,9.005,9.005,9.005,9.005,9.005,9.005,9.005,8.9855,8.9904,8.9855,8.8635,8.7659,8.7951,8.7903,8.761,8.7805,8.8293,8.8439,8.8098,8.8439,8.8684,8.922,8.9123,8.9074,8.9806,9.0001,8.9904,8.9855,8.9904,9.4882,9.4296,9.454,9.4492,9.4419,9.606,9.6753,9.7135,9.7692,9.8259,9.8329,9.7762,9.7469,9.7371,9.6737,9.6395,9.6102,9.4199,9.3467,9.4052,9.3125,9.2783,9.2881,9.1758,9.1005,9.1096,9.1346,9.1414,9.176,9.4225,9.4318,9.2374,9.4902,9.562,9.4159,9.3979,9.3979,9.403,9.403,9.5125,9.6381,9.4602,9.4222,9.5475,9.3121,9.0885,9.0118,9.0885,9.0885,9.0118,9.005,9.005,9.005,9.005,9.0468,9.1232,9.1414,9.2577,9.5181,9.5736,9.6895,9.9701,10.0835,10.1594,10.2446,10.2243,10.1978,10.1653,10.0571,9.9814,9.916,9.632,9.3382,9.1728,9.0585,9.0001,9.005,9.005,9.005,9.005,9.005,9.005,9.005,9.005,9.005,9.005,9.005,9.005,9.005,9.005,9.005,9.0001,8.9953,8.9562,8.8928,8.8244,8.7122,8.6292,8.6243,8.5657,8.5316,8.5804,8.6146,8.6292,8.6487,8.6878,8.7366,8.8,8.8049,8.7805,8.8439,8.894,8.8756,8.9183,8.931,9.376,9.3125,9.3125,9.293,9.2637,9.2979,9.3711,9.4687,9.4736,9.5614,9.6639,9.659,9.6395,9.6298,9.4492,9.3857,9.4004,9.2637,9.2393,9.3027,9.2344,9.2246,9.2442,9.1514,9.1026,9.0977,9.0343,9.005,9.0235,9.176,9.176,9.0585,9.1875,9.1875,9.0352,9.005,9.005,9.005,9.005,9.0885,9.2449,9.1001,9.0768,9.2513,9.0885,9.005,9.005,9.005,9.005,9.005,9.005,9.005,9.005,9.005,9.005,9.005,9.005,9.0768,9.2399,9.2741,9.4,9.6728,9.7854,9.8612,9.9432,9.8884,9.8224,9.7897,9.6603,9.5514,9.4683,9.2234,9.005,9.0001,9.0001,9.005,9.005,9.005,9.005,9.005,9.005,9.005,9.005,9.005,9.005,9.005,9.005,9.005,9.0001,8.9611,8.9367,8.9416,8.9123,8.8488,8.7415,8.6536,8.5853,8.5072,8.4584,8.4242,8.4047,8.4584,8.4779,8.4974,8.5023,8.5316,8.5462,8.6097,8.7024,8.6926,8.7463,8.7657,8.6639,8.8009,8.8377,9.3076,9.3027,9.2979,9.2344,9.1612,9.2491,9.2442,9.21,9.376,9.4638,9.4931,9.5712,9.62,9.5907,9.3125,9.2198,9.2735,9.1075,9.1173,9.2491,9.0977,9.0587,9.1417,9.0538,9.005,9.0148,9.005,9.005,9.005,9.0118,9.005,9.005,9.0118,9.0118,9.005,9.005,9.005,9.005,9.005,9.0001,9.0118,9.0118,9.0001,9.0235,9.0001,9.005,9.005,9.005,9.005,9.005,9.005,9.005,9.005,9.005,9.005,9.005,9.005,9.0001,9.0118,9.0235,9.1298,9.36,9.4215,9.5233,9.7163,9.5559,9.4379,9.4164,9.2155,9.0652,9.0536,9.0352,9.0001,9.005,9.005,9.005,9.005,9.005,9.005,9.005,9.005,9.005,9.005,9.005,9.0001,8.9855,8.9904,8.9757,8.9513,8.8879,8.8439,8.8147,8.7561,8.639,8.5365,8.5072,8.4633,8.4144,8.39,8.3608,8.3559,8.3559,8.3608,8.3705,8.3949,8.4047,8.3852,8.4388,8.5302,8.6292,8.6829,8.6247,8.5028,8.6581,8.6572,9.1883,9.1905,9.1173,9.0733,9.0489,9.0782,9.1173,9.171,9.2198,9.293,9.3564,9.3906,9.4004,9.3808,9.2393,9.1758,9.1856,9.0636,9.0343,9.0733,9.0294,9.0197,9.0392,9.0148,9.005,9.005,9.005,9.005,9.005,9.005,9.005,9.005,9.005,9.005,9.005,9.005,9.005,9.005,9.005,9.005,9.005,9.005,9.005,9.005,9.005,9.005,9.005,9.005,9.005,9.005,9.005,9.005,9.005,9.005,9.005,9.005,9.005,9.005,9.005,9.005,9.0352,9.1001,9.1183,9.1529,9.2055,9.1645,9.1232,9.1232,9.0468,9.005,9.005,9.005,9.005,9.005,9.005,9.005,9.005,9.005,9.005,9.005,8.9953,9.005,9.0001,8.9904,8.9611,8.8976,8.883,8.8635,8.7805,8.7463,8.717,8.717,8.6926,8.595,8.4388,8.4047,8.3949,8.3559,8.3559,8.3559,8.3559,8.3559,8.3559,8.1823,8.3075,8.3341,8.2468,8.3111,8.412,8.5205,8.5873,8.5714,8.2738,8.3503,8.3115,9.0977,9.088,9.0294,9.005,9.005,9.005,9.0392,9.1026,9.1417,9.1954,9.2442,9.2051,9.1856,9.1856,9.127,9.0977,9.0929,9.0294,9.005,9.005,9.005,9.005,9.005,9.005,9.005,9.005,9.005,9.005,9.005,9.005,9.005,9.005,9.005,9.005,9.005,9.005,9.005,9.005,9.005,9.005,9.005,9.005,9.005,9.005,9.005,9.005,9.005,9.005,9.005,9.005,9.005,9.005,9.005,9.005,9.005,9.005,9.005,9.005,9.005,9.005,9.005,9.005,9.005,9.005,9.005,9.005,9.005,9.005,9.0001,9.005,9.005,9.005,9.005,9.005,9.005,9.005,9.005,9.005,9.005,9.0001,8.966,8.9367,8.9318,8.8976,8.8439,8.7951,8.7756,8.7561,8.6926,8.6341,8.6146,8.6048,8.5657,8.4877,8.3949,8.3559,8.3559,8.3559,8.3559,8.2748,8.2152,8.1712,8.1113,7.9734,7.9352,7.9352,8.0021,7.9892,7.9827,7.9976,8.1041,8.0349,7.8159,7.8234,7.7345,9.005,9.005,9.005,9.005,9.005,9.005,9.005,9.0197,9.1026,9.1347,9.1368,9.0441,9.0099,9.005,9.0099,9.0099,9.005,9.005,9.005,9.005,9.005,9.005,9.005,9.005,9.005,9.005,9.005,9.005,9.005,9.005,9.005,9.005,9.005,9.005,9.005,9.005,9.005,9.005,9.005,9.005,9.005,9.005,9.005,9.005,9.005,9.005,9.005,9.005,9.005,9.005,9.005,9.005,9.005,9.005,9.005,9.005,9.005,9.005,9.005,9.005,9.005,9.005,9.005,9.005,9.005,8.9953,8.9855,8.9806,8.9855,8.9806,8.9855,8.9953,8.9953,8.9806,8.9757,8.9806,8.9611,8.9708,8.9757,8.9708,8.8732,8.8293,8.8147,8.7561,8.6926,8.6926,8.678,8.6438,8.6097,8.5462,8.5023,8.4828,8.4291,8.3656,8.3608,8.3559,8.3559,8.3559,8.3559,8.2748,8.1003,7.9845,7.8342,7.7732,7.548,7.5074,7.4773,7.4039,7.4412,7.5151,7.4367,7.2489,6.9378,7.0712,7.0882,9.005,9.005,9.005,9.005,9.005,9.005,9.005,9.005,9.0245,9.0392,9.0343,9.0148,9.005,9.005,9.005,9.005,9.005,9.005,9.005,9.005,9.005,9.005,9.005,9.005,9.005,9.005,9.005,9.005,9.005,9.005,9.005,9.005,9.005,9.005,9.005,9.005,9.005,9.005,9.005,9.005,9.005,9.005,9.005,9.005,9.005,9.005,9.005,9.005,9.005,9.005,9.005,9.005,9.005,9.005,9.005,9.005,9.005,9.005,9.005,9.005,9.005,9.005,9.005,9.0001,8.9953,8.9269,8.8781,8.8781,8.8684,8.8732,8.883,8.9416,8.966,8.8879,8.8781,8.8488,8.7659,8.7512,8.7463,8.7463,8.7268,8.7122,8.7073,8.6878,8.6634,8.6487,8.5999,8.5169,8.4437,8.4096,8.39,8.3852,8.3705,8.3559,8.3559,8.3559,8.345,8.3559,8.3401,8.2384,8.1569,7.991,7.8409,7.694,7.4948,7.307,7.3054,7.2645,7.2097,7.1759,7.1543,7.1308,6.9775,6.9423,6.681,9.005,9.005,9.005,9.005,9.005,9.005,9.005,9.005,9.005,9.005,9.005,9.005,9.005,9.005,9.005,9.005,9.005,9.005,9.005,9.005,9.005,9.005,9.005,9.005,9.005,9.005,9.005,9.005,9.005,9.005,9.005,9.005,9.005,9.005,9.005,9.005,9.005,9.005,9.0538,9.0733,9.0733,9.0733,9.0782,9.0733,9.0245,9.005,9.005,9.005,9.005,9.005,9.005,9.005,9.005,9.005,9.005,9.005,9.005,9.005,9.005,9.005,9.005,9.005,9.005,8.9416,8.7903,8.7268,8.6731,8.6243,8.6194,8.639,8.6878,8.7415,8.7756,8.7659,8.7659,8.7415,8.6829,8.6731,8.6731,8.6682,8.6341,8.5999,8.5999,8.556,8.5267,8.5218,8.4828,8.4242,8.3656,8.3559,8.3559,8.3559,8.3559,8.3559,8.3559,8.2481,8.1555,8.1445,8.0025,7.8368,7.66,7.4981,7.2994,7.158,6.9789,6.846,6.8188,6.7851,6.7604,6.748,6.7233,6.6904,6.6822,6.5445,6.3074,9.005,9.005,9.005,9.005,9.005,9.005,9.005,9.005,9.005,9.005,9.005,9.005,9.005,9.005,9.005,9.005,9.005,9.005,9.005,9.005,9.005,9.005,9.005,9.005,9.005,9.005,9.005,9.005,9.005,9.005,9.005,9.005,9.005,9.005,9.005,9.005,9.005,9.005,9.0929,9.1417,9.1298,9.1417,9.1466,9.1444,9.0587,9.0099,9.0245,9.0099,9.005,9.0245,9.0099,9.005,9.0001,8.9855,8.9708,8.9562,8.9562,8.9562,8.9562,8.9562,8.9562,8.9562,8.9562,8.8244,8.5218,8.4779,8.4291,8.3461,8.3412,8.3705,8.4584,8.5023,8.5609,8.6146,8.6277,8.6438,8.6194,8.6146,8.6146,8.6097,8.5462,8.4925,8.4877,8.4193,8.3754,8.3656,8.3754,8.3608,8.3559,8.3184,8.3075,8.345,8.3559,8.3353,8.23,8.0435,7.8869,7.8041,7.5205,7.2872,7.0824,6.9173,6.7309,6.4137,6.3708,6.3045,6.281,6.2264,6.2583,6.2739,6.2277,6.1663,6.1854,6.1165,6.0365,9.005,9.005,9.005,9.005,9.005,9.005,9.005,9.005,0.0,0.0,0.0,9.005,9.005,9.005,9.005,9.005,9.005,9.005,9.005,9.005,9.005,9.005,9.005,9.005,9.005,9.005,9.005,9.005,9.005,9.005,9.005,9.005,9.005,9.005,9.005,9.005,9.005,9.005,9.0197,9.0294,9.0294,9.0294,9.0733,9.1444,9.0587,9.0441,9.1152,9.0489,9.0441,9.127,9.0489,9.005,9.0001,8.9172,8.8293,8.7415,8.7317,8.7317,8.7317,8.7317,8.7317,8.7317,8.7317,8.6341,8.3998,8.313,8.2543,8.2348,8.2348,8.2397,8.2592,8.4047,8.4877,8.4193,8.4877,8.5023,8.4242,8.4096,8.4035,8.4096,8.3889,8.3852,8.3852,8.3705,8.3559,8.3559,8.3293,8.3559,8.3293,8.1507,8.1019,8.2929,8.3049,8.2204,7.9679,7.8034,7.6626,7.3621,7.2376,7.1867,7.0929,6.8928,6.7064,6.5679,6.3436,6.1891,6.1428,6.1011,6.0517,6.0479,6.0365,6.0251,6.0251,6.0138,6.0062,9.005,0.0,9.005,9.005,0.0,9.005,9.005,9.005,9.005,9.005,9.005,9.005,9.005,9.005,9.005,9.005,9.005,9.005,9.005,9.005,9.005,9.005,9.005,9.005,9.005,9.005,9.005,9.005,9.005,9.005,9.005,9.005,9.005,9.0294,9.0831,9.0294,9.005,9.005,9.0538,9.0831,9.0831,9.0831,9.1075,9.1563,9.0587,0.0,0.0,0.0,0.0,0.0,0.0,0.0,0.0,0.0,0.0,8.678,8.6731,8.6731,8.6731,8.6731,8.6536,8.5999,8.595,8.5023,8.2983,8.1265,8.0337,8.0289,7.9801,7.9855,8.0289,8.1265,8.1899,8.1948,8.2387,8.2534,8.1881,8.1047,8.1118,8.2298,8.1816,8.1885,8.3293,8.3559,8.2966,8.1445,8.1224,8.1224,8.1066,8.0796,8.09,8.2465,8.1323,7.8985,7.7059,7.4684,7.1344,6.9677,6.779,6.6523,6.6369,6.4837,6.3534,6.342,6.2044,6.0669,6.0631,6.0327,6.0062,6.0062,6.0062,6.0062,6.0062,6.0062,6.0062,9.005,9.005,9.005,9.005,9.0001,8.9806,8.9708,8.9708,8.9513,8.9367,8.9416,8.9416,8.9416,8.9416,8.9416,8.9416,8.9416,8.9416,8.9416,8.9367,8.9416,8.9367,8.9416,8.9416,8.9416,8.9416,8.9416,8.9416,8.9416,8.9416,8.9416,8.9416,8.9367,8.9806,9.0587,0.0,0.0,0.0,9.0392,9.0733,9.0685,9.0567,9.0782,9.0977,8.9953,0.0,8.8488,8.8195,8.7756,8.7073,8.6829,0.0,0.0,0.0,0.0,0.0,0.0,0.0,0.0,0.0,0.0,0.0,8.3328,8.2216,8.0242,7.8733,7.7747,7.7373,7.7046,7.7159,7.7712,7.8317,7.9014,7.9843,7.9669,7.9451,7.9345,7.7616,7.7304,7.998,7.894,7.8785,8.1176,8.1823,8.0734,7.8455,7.8567,7.8317,7.6849,7.7674,7.9154,7.9861,7.726,7.5097,7.4281,7.0009,6.7192,6.5507,6.2968,6.1394,6.1318,6.0593,6.0175,6.0213,6.0062,6.0062,6.0062,6.0062,6.0062,6.0062,6.0062,5.9986,5.9834,5.9758,5.9758,9.005,9.005,9.005,9.005,8.9953,8.9025,8.8635,8.8537,8.761,8.717,8.717,8.717,8.717,8.717,8.717,8.717,8.717,8.717,8.717,8.717,8.717,8.717,8.717,8.7122,8.717,8.717,8.717,8.717,8.717,8.717,8.717,8.717,8.717,8.7219,8.7366,8.7219,8.7659,8.8586,8.7756,8.7366,8.7366,8.7366,8.7805,8.8732,8.7756,8.7561,8.8342,8.7463,8.7366,8.8098,8.7268,8.6731,8.6731,8.5853,8.3494,0.0,7.8911,0.0,0.0,0.0,0.0,0.0,0.0,0.0,0.0,7.3867,7.3953,7.2313,7.4359,7.5483,7.4669,7.7085,7.8824,7.8868,7.7564,7.6546,7.6392,7.4162,7.291,7.4175,7.4014,7.4184,7.5417,7.5453,7.5453,7.5091,7.6645,7.5947,7.0357,6.9479,7.0774,7.2778,7.2579,7.1234,6.8282,6.6664,6.4774,6.1771,6.0555,6.0213,6.0251,6.0138,6.0062,6.0062,6.0062,6.0062,6.0062,6.0062,6.0062,6.0062,5.9986,5.9682,5.9075,5.8885,5.8619,9.005,9.005,9.005,8.9318,8.8195,8.7707,8.7512,8.7463,8.6862,8.6731,8.6731,8.6731,8.6731,8.6731,8.6731,8.6731,8.6731,8.6731,8.6731,8.6731,8.6731,8.6731,8.6731,8.6731,8.6731,8.6731,8.6731,8.6731,8.6731,8.6731,8.6731,8.6731,8.6731,8.6438,8.5901,8.5853,8.6097,8.6585,8.6682,8.6731,8.6731,8.6731,8.6975,8.7463,8.7024,8.6682,8.6585,8.6146,8.5804,8.5706,8.5218,8.4681,8.4096,8.2138,8.0478,0.0,0.0,0.0,0.0,0.0,0.0,0.0,0.0,0.0,0.0,0.0,7.3968,7.1511,7.3313,7.3204,6.9903,7.2649,7.3811,7.1878,7.1858,7.1462,7.0551,6.8838,6.8241,6.9901,6.9537,6.9902,7.1973,7.2566,7.2192,7.0522,7.1438,7.0982,6.7832,6.8158,6.9204,7.0598,7.0381,6.8813,6.5505,6.3722,6.2068,6.044,6.0062,6.0062,6.0062,6.0062,6.0062,6.0062,6.0062,6.0062,6.0062,6.0062,6.0062,5.9948,5.9302,5.8543,5.8087,5.8011,5.7974,8.922,8.9104,8.7656,8.6464,8.555,8.5261,8.5665,8.6341,8.6097,8.5999,8.5999,8.5999,8.5503,8.478,8.4054,8.4197,8.5165,8.4924,8.5278,8.5999,8.5999,8.5999,8.595,8.5999,8.5999,8.5999,8.6243,8.6243,8.5999,8.6243,8.6341,8.6228,8.5262,8.4394,8.3735,8.3816,8.4198,8.4779,8.556,8.595,8.5999,8.5755,8.5609,8.5609,8.5365,8.4974,8.4388,8.4388,8.3998,8.3217,8.2578,8.1769,8.0599,7.7929,0.0,0.0,0.0,0.0,0.0,0.0,0.0,0.0,0.0,7.1507,6.8319,0.0,7.2491,0.0,7.1698,7.1124,6.6743,6.9296,0.0,0.0,6.7128,6.7072,6.582,6.41,6.3658,6.5643,6.4915,6.5184,6.7784,6.8701,6.8144,6.5315,6.4782,6.4863,6.5064,6.6473,6.7463,6.7522,6.6948,6.5831,6.3605,6.1414,6.0175,6.0062,6.0062,6.0062,6.0062,6.0062,6.0062,6.0062,5.991,5.972,5.972,5.953,5.9416,5.934,5.8429,5.755,5.7322,5.7176,5.71,8.7024,8.6474,8.085,8.0169,8.242,8.1398,8.2549,8.5218,8.4242,8.3803,8.3803,8.3803,8.2172,7.9407,7.6479,0.0,8.059,7.9937,8.1129,8.3803,8.3803,8.3803,8.3803,8.3803,8.3803,8.3803,8.4779,8.473,8.3852,8.4779,8.5267,8.5107,8.122,7.9314,7.9426,8.0148,8.1597,8.3705,8.3754,8.3803,8.3803,8.2934,8.2397,8.2339,8.1362,8.1208,8.225,8.2192,8.225,8.2046,7.9581,7.7602,7.6517,0.0,0.0,0.0,0.0,0.0,0.0,0.0,0.0,0.0,0.0,0.0,0.0,0.0,0.0,0.0,6.8301,0.0,6.7044,6.96,0.0,0.0,0.0,6.4655,6.4532,6.1332,5.952,6.0623,0.0,0.0,6.0777,6.1624,6.1164,5.8602,5.8296,5.8564,5.9329,5.9739,5.9931,6.1115,6.0816,6.0703,6.0816,6.0364,6.0062,6.0062,6.0062,6.0062,6.0062,6.0024,6.0024,5.9986,5.934,5.8809,5.8809,5.8163,5.767,5.767,5.7518,5.7176,5.6493,5.6303,5.6113,8.1508,7.8917,7.6603,7.6253,7.7301,7.69,7.8439,8.1302,8.0262,7.9946,8.0055,7.9283,7.7645,7.5361,7.3612,0.0,0.0,0.0,7.613,7.8999,7.8999,7.9909,8.15,8.1606,8.1606,8.1606,8.2046,8.2046,8.1606,8.2046,8.1044,7.8847,0.0,0.0,7.7104,7.8576,7.9883,8.0782,8.259,8.3559,8.3559,8.1392,7.9067,7.6763,7.56,7.5342,7.5755,7.5755,7.5755,7.5755,7.4769,7.339,0.0,0.0,0.0,0.0,0.0,0.0,0.0,0.0,0.0,0.0,0.0,5.9863,5.771,0.0,0.0,0.0,6.1826,6.1019,5.9817,6.3115,0.0,0.0,0.0,0.0,0.0,0.0,0.0,5.9188,5.8505,5.8125,5.8429,5.8315,5.786,5.6835,5.7138,5.7703,5.8007,0.0,5.8809,5.9188,5.9682,6.0062,6.0062,6.0062,6.0062,6.0062,6.0062,6.0062,6.0024,5.9568,5.9264,5.915,5.8543,5.8083,5.7974,5.6873,5.5961,5.5961,5.5999,5.5885,5.5582,5.5468,5.5392,7.5213,0.0,0.0,0.0,0.0,7.2337,7.4,7.6821,7.6027,7.5819,7.6039,7.5153,0.0,0.0,0.0,0.0,0.0,0.0,7.3151,7.5961,7.6867,7.8347,8.0233,8.0233,8.0233,8.0233,8.0574,8.021,7.8981,7.7622,7.5388,7.2468,0.0,0.0,0.0,0.0,7.737,7.7435,8.0025,8.0974,8.0212,7.8026,7.5407,7.2347,7.1037,7.0622,7.0994,7.0884,7.1015,7.1278,7.0288,0.0,0.0,0.0,0.0,0.0,0.0,0.0,0.0,0.0,0.0,0.0,0.0,0.0,0.0,0.0,0.0,0.0,0.0,0.0,5.5905,5.8496,5.9295,0.0,0.0,0.0,0.0,0.0,0.0,0.0,0.0,0.0,5.7442,5.6759,5.6113,0.0,0.0,5.6873,5.71,5.7822,5.8429,5.8657,5.9454,0.0,6.0062,6.0062,6.0062,6.0062,6.0062,5.9948,5.972,5.8923,5.8353,5.8353,5.767,5.7062,5.6759,5.5206,5.3865,5.3791,5.3791,5.3791,5.3895,5.4558,5.5012,0.0,0.0,0.0,0.0,0.0,0.0,0.0,0.0,7.187,7.187,0.0,7.1783,0.0,0.0,0.0,0.0,0.0,7.0314,0.0,0.0,7.8511,8.0128,8.008,8.008,8.0233,8.0282,8.1208,7.9787,7.593,7.1276,0.0,0.0,0.0,0.0,0.0,0.0,7.3821,7.3448,7.5253,7.4925,7.2357,7.2025,7.1366,7.0229,6.8396,6.7873,6.8915,6.9003,6.9397,7.0141,6.6813,0.0,0.0,0.0,0.0,0.0,0.0,0.0,0.0,0.0,0.0,0.0,0.0,0.0,0.0,0.0,0.0,0.0,0.0,0.0,0.0,5.7729,0.0,0.0,0.0,0.0,0.0,0.0,0.0,0.0,0.0,0.0,5.7258,5.6721,5.5923,5.5126,0.0,0.0,0.0,0.0,5.7822,5.8581,5.9454,6.0062,6.0062,6.0062,6.0024,6.0024,0.0,0.0,5.8773,5.8049,5.7518,5.7518,5.6835,5.5999,5.5136,5.2637,5.0946,5.084,5.084,5.084,5.1052,5.2706,5.4558,0.0,0.0,0.0,0.0,0.0,0.0,0.0,0.0,0.0,6.7809,0.0,6.7222,0.0,0.0,0.0,0.0,0.0,0.0,0.0,0.0,6.9445,7.0847,7.26,7.2645,7.2645,0.0,7.307,7.1008,0.0,0.0,0.0,0.0,0.0,0.0,0.0,0.0,7.0217,7.0072,7.1628,7.1996,7.0972,6.8436,6.6729,6.5738,6.3061,6.1812,6.2201,6.2311,6.2641,0.0,0.0,0.0,0.0,0.0,0.0,0.0,0.0,0.0,0.0,0.0,0.0,0.0,0.0,0.0,0.0,0.0,0.0,0.0,0.0,0.0,0.0,0.0,5.4563,0.0,0.0,0.0,0.0,0.0,0.0,0.0,0.0,0.0,5.4202,5.4757,5.5316,5.505,5.5012,5.5088,5.5392,0.0,0.0,0.0,0.0,0.0,0.0,0.0,5.8591,5.6639,5.5829,5.4836,5.2579,5.3173,5.3912,5.3912,0.0,0.0,5.0025,4.8461,4.7817,4.7817,4.7817,4.7817,4.7817,4.8568,4.9351,0.0,0.0,0.0,0.0,0.0,0.0,0.0,0.0,0.0,6.3578,6.3482,0.0,0.0,0.0,0.0,0.0,0.0,0.0,0.0,0.0,0.0,0.0,6.7742,6.7699,0.0,0.0,0.0,0.0,0.0,0.0,0.0,0.0,0.0,0.0,0.0,0.0,6.6814,6.5799,6.7222,6.7455,6.6182,6.3617,6.207,6.1468,5.9065,5.8011,5.8277,0.0,0.0,0.0,0.0,0.0,0.0,0.0,0.0,0.0,0.0,0.0,0.0,0.0,0.0,0.0,0.0,0.0,0.0,0.0,0.0,0.0,0.0,0.0,0.0,0.0,5.2241,0.0,0.0,0.0,0.0,0.0,0.0,0.0,0.0,0.0,0.0,0.0,5.3878,5.3618,5.4454,5.5012,5.5012,5.6189,5.7024,0.0,0.0,0.0,0.0,0.0,0.0,0.0,0.0,0.0,0.0,0.0,0.0,0.0,0.0,5.0876,4.6955,4.5437,4.4784,4.4784,0.0,0.0,0.0,0.0,0.0,0.0,0.0,0.0,0.0,0.0,0.0,0.0,0.0,0.0,0.0,5.8657,0.0,0.0,5.7703,0.0,0.0,0.0,0.0,0.0,0.0,0.0,0.0,0.0,0.0,0.0,0.0,0.0,0.0,0.0,0.0,0.0,0.0,0.0,0.0,0.0,0.0,6.3664,6.0175,6.2022,6.1213,5.7844,5.755,5.755,5.7474,5.6645,5.6607,5.7296,0.0,0.0,0.0,0.0,0.0,0.0,0.0,0.0,0.0,0.0,0.0,0.0,0.0,0.0,0.0,0.0,0.0,0.0,0.0,0.0,0.0,0.0,0.0,0.0,0.0,0.0,5.0001,5.1384,5.2976,0.0,0.0,0.0,0.0,0.0,0.0,0.0,0.0,0.0,5.0769,5.3162,5.4908,5.4946,5.5523,5.609,5.6265,5.7523,5.8319,5.767,5.8125,5.7358,0.0,0.0,0.0,0.0,0.0,0.0,0.0,0.0,0.0,0.0,0.0,0.0,0.0,0.0,0.0,0.0,0.0,0.0,0.0,0.0,0.0,0.0,0.0,0.0,0.0,0.0,0.0,0.0,0.0,0.0,0.0,0.0,0.0,0.0,0.0,0.0,0.0,0.0,0.0,0.0,0.0,0.0,0.0,0.0,0.0,0.0,0.0,0.0,0.0,0.0,0.0,0.0,0.0,0.0,6.0505,6.0024,5.8848,5.7653,5.6607,5.6037,5.5734,5.5734,5.5506,5.4746,0.0,0.0,0.0,0.0,0.0,0.0,0.0,0.0,0.0,0.0,0.0,0.0,0.0,0.0,0.0,0.0,0.0,0.0,0.0,0.0,0.0,0.0,0.0,0.0,0.0,0.0,0.0,0.0,4.9271,5.014,4.8886,0.0,0.0,0.0,0.0,0.0,0.0,0.0,0.0,0.0,0.0,5.2149,5.2509,5.3225,5.4311,5.5984,5.5807,5.5911,5.7267,5.7176,5.5865,5.2752,0.0,0.0,0.0,0.0,0.0,0.0,0.0,0.0,0.0,0.0,0.0,0.0,0.0,0.0,0.0,0.0,0.0,0.0,0.0,0.0,0.0,0.0,0.0,0.0,0.0,0.0,0.0,0.0,0.0,0.0,0.0,0.0,0.0,0.0,0.0,0.0,0.0,0.0,0.0,0.0,0.0,0.0,0.0,0.0,0.0,0.0,0.0,0.0,0.0,0.0,0.0,0.0,0.0,5.8505,5.9037,5.7176,5.6037,5.5734,5.524,5.5012,5.5012,5.5012,5.3994,0.0,0.0,0.0,0.0,0.0,0.0,0.0,0.0,0.0,0.0,0.0,0.0,0.0,0.0,0.0,0.0,0.0,0.0,0.0,0.0,0.0,0.0,0.0,0.0,0.0,0.0,0.0,0.0,4.95,4.9404,4.6783,0.0,0.0,0.0,0.0,0.0,0.0,0.0,0.0,0.0,0.0,5.0804,5.1187,5.1642,0.0,0.0,5.3839,5.351,5.5726,5.5885,5.4428,5.0359,4.9336,0.0,0.0,0.0,0.0,0.0,0.0,0.0,0.0,0.0,0.0,0.0,0.0,0.0,0.0,0.0,0.0,0.0,0.0,0.0,0.0,0.0,0.0,0.0,0.0,0.0,0.0,0.0,0.0,0.0,0.0,0.0,0.0,0.0,0.0,0.0,0.0,0.0,0.0,0.0,0.0,0.0,0.0,0.0,0.0,0.0,0.0,0.0,0.0,0.0,0.0,0.0,0.0,5.7328,5.7474,5.6569,5.5772,5.505,5.5012,5.5012,5.5012,5.5012,5.411,0.0,0.0,0.0,0.0,0.0,0.0,0.0,0.0,0.0,0.0,0.0,0.0,0.0,0.0,0.0,0.0,0.0,0.0,0.0,0.0,0.0,0.0,0.0,0.0,0.0,0.0,0.0,0.0,0.0,0.0,0.0,0.0,0.0,0.0,0.0,0.0,0.0,0.0,0.0,0.0,0.0,5.0452,5.0523,5.0487,5.112,0.0,5.1743,5.112,5.3029,5.4031,5.2738,4.7171,0.0,0.0,0.0,0.0,0.0,0.0,0.0,0.0,0.0,0.0,0.0,0.0,0.0,0.0,0.0,0.0,0.0,0.0,0.0,0.0,0.0,0.0,0.0,0.0,0.0,0.0,0.0,0.0,0.0,0.0,0.0,0.0,0.0,0.0,0.0,0.0,0.0,0.0,0.0,0.0,0.0,0.0,0.0,0.0,0.0,0.0,0.0,0.0,0.0,0.0,0.0,0.0,0.0,0.0,5.6493,5.5734,5.5202,5.5012,5.5012,5.5012,5.5012,5.5012,0.0,0.0,0.0,0.0,0.0,0.0,0.0,0.0,0.0,0.0,0.0,0.0,0.0,0.0,0.0,0.0,0.0,0.0,0.0,0.0,0.0,0.0,0.0,0.0,0.0,0.0,0.0,4.4071,0.0,0.0,0.0,0.0,0.0,0.0,0.0,0.0,0.0,0.0,0.0,0.0,0.0,0.0,4.7233,4.9125,4.8125,4.7906,0.0,0.0,4.7353,4.8012,4.9612,4.9753,0.0,0.0,0.0,0.0,0.0,0.0,0.0,0.0,0.0,0.0,0.0,0.0,0.0,0.0,0.0,0.0,0.0,0.0,0.0,0.0,0.0,0.0,0.0,0.0,0.0,0.0,0.0,0.0,0.0,0.0,0.0,0.0,0.0,0.0,0.0,0.0,0.0,0.0,0.0,0.0,0.0,0.0,0.0,0.0,0.0,0.0,0.0,0.0,0.0,0.0,0.0,0.0,0.0,0.0,5.4614,5.6576,5.4651,5.3952,5.4908,5.5012,5.4454,5.3126,5.3126,5.0658,0.0,0.0,0.0,0.0,0.0,0.0,0.0,0.0,0.0,0.0,0.0,0.0,0.0,0.0,0.0,0.0,0.0,0.0,0.0,0.0,0.0,0.0,0.0,0.0,0.0,0.0,0.0,0.0,0.0,0.0,0.0,0.0,0.0,0.0,0.0,0.0,0.0,0.0,0.0,0.0,0.0,0.0,4.7248,4.6239,0.0,0.0,0.0,4.5407,4.6889,0.0,0.0,0.0,0.0,0.0,0.0,0.0,0.0,0.0,0.0,0.0,0.0,0.0,0.0,0.0,0.0,0.0,0.0,0.0,0.0,0.0,0.0,0.0,0.0,0.0,0.0,0.0,0.0,0.0,0.0,0.0,0.0,0.0,0.0,0.0,0.0,0.0,0.0,0.0,0.0,0.0,0.0,0.0,0.0,0.0,0.0,0.0,0.0,0.0,0.0,0.0,0.0,0.0,0.0,0.0,0.0,0.0,5.6602,5.3623,5.2901,5.4842,5.4662,5.3372,5.084,5.0416,4.7866,0.0,0.0,0.0,0.0,0.0,0.0,0.0,0.0,0.0,0.0,0.0,0.0,0.0,0.0,0.0,0.0,0.0,0.0,0.0,0.0,0.0,0.0,0.0,0.0,0.0,0.0,0.0,0.0,0.0,0.0,0.0,0.0,0.0,0.0,0.0,0.0,0.0,0.0,0.0,0.0,0.0,4.6993,4.5483,4.5054,4.4802,0.0,0.0,4.4148,4.6515,4.713,0.0,0.0,0.0,0.0,0.0,0.0,0.0,0.0,0.0,0.0,0.0,0.0,0.0,0.0,0.0,0.0,0.0,0.0,0.0,0.0,0.0,0.0,0.0,0.0,0.0,0.0,0.0,0.0,0.0,0.0,0.0,0.0,0.0,0.0,0.0,0.0,0.0,0.0,0.0,0.0,0.0,0.0,0.0,0.0,0.0,0.0,0.0,0.0,0.0,0.0,0.0,0.0,0.0,0.0,0.0,0.0,5.2757,5.3717,5.4538,5.4908,5.2811,5.1264,5.0734,4.8461,4.5609,0.0,0.0,0.0,0.0,0.0,0.0,0.0,0.0,0.0,0.0,0.0,0.0,0.0,0.0,0.0,0.0,0.0,0.0,0.0,0.0,0.0,0.0,0.0,0.0,0.0,0.0,0.0,0.0,0.0,0.0,0.0,0.0,0.0,0.0,0.0,0.0,0.0,0.0,0.0,0.0,0.0,4.4666,4.6211,4.4696,0.0,0.0,0.0,0.0,3.918,4.0826,0.0,0.0,0.0,0.0,0.0,0.0,0.0,0.0,0.0,0.0,0.0,0.0,0.0,0.0,0.0,0.0,0.0,0.0,0.0,0.0,0.0,0.0,0.0,0.0,0.0,0.0,0.0,0.0,0.0,0.0,0.0,0.0,0.0,0.0,0.0,0.0,0.0,0.0,0.0,0.0,0.0,0.0,0.0,0.0,0.0,0.0,0.0,0.0,0.0,0.0,0.0,0.0,0.0,0.0,0.0,0.0,5.355,5.3508,5.3213,5.2916,5.1511,4.9423,4.6598,4.4659,4.2367,0.0,0.0,0.0,0.0,0.0,0.0,0.0,0.0,0.0,0.0,0.0,0.0,0.0,0.0,0.0,0.0,0.0,0.0,0.0,0.0,0.0,0.0,0.0,0.0,0.0,0.0,0.0,0.0,0.0,0.0,0.0,0.0,0.0,0.0,0.0,0.0,0.0,0.0,0.0,0.0,4.2991,4.3464,4.477,0.0,0.0,0.0,0.0,0.0,0.0,3.9443,4.005,0.0,0.0,0.0,0.0,0.0,0.0,0.0,0.0,0.0,0.0,0.0,0.0,0.0,0.0,0.0,0.0,0.0,0.0,0.0,0.0,0.0,0.0,0.0,0.0,0.0,0.0,0.0,0.0,0.0,0.0,0.0,0.0,0.0,0.0,0.0,0.0,0.0,0.0,0.0,0.0,0.0,0.0,0.0,0.0,0.0,0.0,0.0,0.0,0.0,0.0,0.0,0.0,0.0,0.0,0.0,5.4091,5.1999,5.0571,4.9991,4.953,4.689,4.2115,4.0856,3.9102,3.6571,0.0,0.0,0.0,0.0,0.0,0.0,0.0,0.0,0.0,0.0,0.0,0.0,0.0,0.0,0.0,0.0,0.0,0.0,0.0,0.0,0.0,0.0,0.0,0.0,0.0,0.0,0.0,0.0,0.0,0.0,0.0,0.0,0.0,0.0,0.0,0.0,0.0,0.0,0.0,4.1891,4.2187,0.0,0.0,0.0,0.0,0.0,0.0,0.0,0.0,3.9998,0.0,0.0,0.0,0.0,0.0,0.0,0.0,0.0,0.0,0.0,0.0,0.0,0.0,0.0,0.0,0.0,0.0,0.0,0.0,0.0,0.0,0.0,0.0,0.0,0.0,0.0,0.0,0.0,0.0,0.0,0.0,0.0,0.0,0.0,0.0,0.0,0.0,0.0,0.0,0.0,0.0,0.0,0.0,0.0,0.0,0.0,0.0,0.0,0.0,0.0,0.0,0.0,0.0,0.0,0.0,0.0,4.7127,4.7561,4.6879,4.4566,4.2684,4.1391,3.875,3.6741,3.5265,0.0,0.0,0.0,0.0,0.0,0.0,0.0,0.0,0.0,0.0,0.0,0.0,0.0,0.0,0.0,0.0,0.0,0.0,0.0,0.0,0.0,0.0,0.0,0.0,0.0,0.0,0.0,0.0,0.0,0.0,0.0,0.0,0.0,0.0,0.0,0.0,0.0,0.0,3.551,3.7417,0.0,0.0,0.0,0.0,0.0,0.0,0.0,0.0,3.7725,0.0,0.0,0.0,0.0,0.0,0.0,0.0,0.0,0.0,0.0,0.0,0.0,0.0,0.0,0.0,0.0,0.0,0.0,0.0,0.0,0.0,0.0,0.0,0.0,0.0,0.0,0.0,0.0,0.0,0.0,0.0,0.0,0.0,0.0,0.0,0.0,0.0,0.0,0.0,0.0,0.0,0.0,0.0,0.0,0.0,0.0,0.0,0.0,0.0,0.0,0.0,0.0,0.0,0.0,0.0,0.0,0.0,0.0,4.5784,4.405,4.2731,4.1009,3.8914,3.6826,3.5475,0.0,0.0,0.0,0.0,0.0,0.0,0.0,0.0,0.0,0.0,0.0,0.0,0.0,0.0,0.0,0.0,0.0,0.0,0.0,0.0,0.0,0.0,0.0,0.0,0.0,0.0,0.0,0.0,0.0,0.0,0.0,0.0,0.0,0.0,0.0,0.0,0.0,0.0,0.0,0.0,0.0,0.0,0.0,0.0,0.0,0.0,0.0,0.0,0.0,0.0,0.0,0.0,0.0,0.0,0.0,0.0,0.0,0.0,0.0,0.0,0.0,0.0,0.0,0.0,0.0,0.0,0.0,0.0,0.0,0.0,0.0,0.0,0.0,0.0,0.0,0.0,0.0,0.0,0.0,0.0,0.0,0.0,0.0,0.0,0.0,0.0,0.0,0.0,0.0,0.0,0.0,0.0,0.0,0.0,0.0,0.0,0.0,0.0,0.0,0.0,0.0,0.0,0.0,0.0,0.0,0.0,0.0,0.0,4.3551,4.1102,4.096,3.9547,3.6618,3.5628,3.493,0.0,0.0,0.0,0.0,0.0,0.0,0.0,0.0,0.0,0.0,0.0,0.0,0.0,0.0,0.0,0.0,0.0,0.0,0.0,0.0,0.0,0.0,0.0,0.0,0.0,0.0,0.0,0.0,0.0,0.0,0.0,0.0,0.0,0.0,0.0,0.0,0.0,0.0,0.0,0.0,0.0,0.0,0.0,0.0,0.0,0.0,0.0,0.0,3.5395,0.0,0.0,0.0,0.0,0.0,0.0,0.0,0.0,0.0,0.0,0.0,0.0,0.0,0.0,0.0,0.0,0.0,0.0,0.0,0.0,0.0,0.0,0.0,0.0,0.0,0.0,0.0,0.0,0.0,0.0,0.0,0.0,0.0,0.0,0.0,0.0,0.0,0.0,0.0,0.0,0.0,0.0,0.0,0.0,0.0,0.0,0.0,0.0,0.0,0.0,0.0,0.0,0.0,0.0,0.0,0.0,0.0,0.0,0.0,3.9453,3.822,3.7556,3.6921,3.6046,3.5917,3.5319,0.0,0.0,0.0,0.0,0.0,0.0,0.0,0.0,0.0,0.0,0.0,0.0,0.0,0.0,0.0,0.0,0.0,0.0,0.0,0.0,0.0,0.0,0.0,0.0,0.0,0.0,0.0,0.0,0.0,0.0,0.0,0.0,0.0,0.0,0.0,0.0,0.0,0.0,0.0,0.0,0.0,0.0,0.0,0.0,0.0,0.0,0.0,0.0,0.0,0.0,0.0,0.0,0.0,0.0,0.0,0.0,0.0,0.0,0.0,0.0,0.0,0.0,0.0,0.0,0.0,0.0,0.0,0.0,0.0,0.0,0.0,0.0,0.0,0.0,0.0,0.0,0.0,0.0,0.0,0.0,0.0,0.0,0.0,0.0,0.0,0.0,0.0,0.0,0.0,0.0,0.0,0.0,0.0,0.0,0.0,0.0,0.0,0.0,0.0,0.0,0.0,0.0,0.0,0.0,0.0,0.0,0.0,0.0,3.7968,3.7163,3.6903,3.667,3.6436,3.5449,3.467,0.0,0.0,0.0,0.0,0.0,0.0,0.0,0.0,0.0,0.0,0.0,0.0,0.0,0.0,0.0,0.0,0.0,0.0,0.0,0.0,0.0,0.0,0.0,0.0,0.0,0.0,0.0,0.0,0.0,0.0,0.0,0.0,0.0,0.0,0.0,0.0,0.0,0.0,0.0,0.0,0.0,0.0,0.0,0.0,0.0,0.0,0.0,0.0,0.0,0.0,0.0,0.0,0.0,0.0,0.0,0.0,0.0,0.0,0.0,0.0,0.0,0.0,0.0,0.0,0.0,0.0,0.0,0.0,0.0,0.0,0.0,0.0,0.0,0.0,0.0,0.0,0.0,0.0,0.0,0.0,0.0,0.0,0.0,0.0,0.0,0.0,0.0,0.0,0.0,0.0,0.0,0.0,0.0,0.0,0.0,0.0,0.0,0.0,0.0,0.0,0.0,0.0,0.0,0.0,0.0,0.0,0.0,0.0,0.0,3.7215,3.6644,3.6223,3.6306,3.5085,3.441,0.0,0.0,0.0,0.0,0.0,0.0,0.0,0.0,0.0,0.0,0.0,0.0,0.0,0.0,0.0,0.0,0.0,0.0,0.0,0.0,0.0,0.0,0.0,0.0,0.0,0.0,0.0,0.0,0.0,0.0,0.0,0.0,0.0,0.0,0.0,0.0,0.0,0.0,0.0,0.0,0.0,0.0,0.0,0.0,0.0,0.0,0.0,0.0,0.0,0.0,0.0,0.0,0.0,0.0,0.0,0.0,0.0,0.0,0.0,0.0,0.0,0.0,0.0,0.0,0.0,0.0,0.0,0.0,0.0,0.0,0.0,0.0,0.0,0.0,0.0,0.0,0.0,0.0,0.0,0.0,0.0,0.0,0.0,0.0,0.0,0.0,0.0,0.0,0.0,0.0,0.0,0.0,0.0,0.0,0.0,0.0,0.0,0.0,0.0,0.0,0.0,0.0,0.0,0.0,0.0,0.0,0.0,0.0,0.0,3.8384,3.6171,3.511,3.511,3.498,3.4929,0.0,0.0,0.0,0.0,0.0,0.0,0.0,0.0,0.0,0.0,0.0,0.0,0.0,0.0,0.0,0.0,0.0,0.0,0.0,0.0,0.0,0.0,0.0,0.0,0.0,0.0,0.0,0.0,0.0,0.0,0.0,0.0,0.0,0.0,0.0,0.0,0.0,0.0,0.0,0.0,0.0,0.0,0.0,0.0,0.0,0.0,0.0,0.0,0.0,0.0,0.0,0.0,0.0,0.0,0.0,0.0,0.0,0.0,0.0,0.0,0.0,0.0,0.0,0.0,0.0,0.0,0.0,0.0,0.0,0.0,0.0,0.0,0.0,0.0,0.0,0.0,0.0,0.0,0.0,0.0,0.0,0.0,0.0,0.0,0.0,0.0,0.0,0.0,0.0,0.0,0.0,0.0,0.0,0.0,0.0,0.0,0.0,0.0,0.0,0.0,0.0,0.0,0.0,0.0,0.0,0.0,0.0,0.0,0.0,3.8384,3.6955,3.6042,3.6042,3.5343,3.498,3.4849,0.0,0.0,0.0,0.0,0.0,0.0,0.0,0.0,0.0,0.0,0.0,0.0,0.0,0.0,0.0,0.0,0.0,0.0,0.0,0.0,0.0,0.0,0.0,0.0,0.0,0.0,0.0,0.0,0.0,0.0,0.0,0.0,0.0,0.0,0.0,0.0,0.0,0.0,0.0,0.0,0.0,0.0,0.0,0.0,0.0,0.0,0.0,0.0,0.0,0.0,0.0,0.0,0.0,0.0,0.0,0.0,0.0,0.0,0.0,0.0,0.0,0.0,0.0,0.0,0.0,0.0,0.0,0.0,0.0,0.0,0.0,0.0,0.0,0.0,0.0,0.0,0.0,0.0,0.0,0.0,0.0,0.0,0.0,0.0,0.0,0.0,0.0,0.0,0.0,0.0,0.0,0.0,0.0,0.0,0.0,0.0,0.0,0.0,0.0,0.0,0.0,0.0,0.0,0.0,0.0,0.0,0.0,0.0,3.7657,3.6566,3.6072,3.612,3.5369,3.4534,0.0,0.0,0.0,0.0,0.0,0.0,0.0,0.0,0.0,0.0,0.0,0.0,0.0,0.0,0.0,0.0,0.0,0.0,0.0,0.0,0.0,0.0,0.0,0.0,0.0,0.0,0.0,0.0,0.0,0.0,0.0,0.0,0.0,0.0,0.0,0.0,0.0,0.0,0.0,0.0,0.0,0.0,0.0,0.0,0.0,0.0,0.0,0.0,0.0,0.0,0.0,0.0,0.0,0.0,0.0,0.0,0.0,0.0,0.0,0.0,0.0,0.0,0.0,0.0,0.0,0.0,0.0,0.0,0.0,0.0,0.0,0.0,0.0,0.0,0.0,0.0,0.0,0.0,0.0,0.0,0.0,0.0,0.0,0.0,0.0,0.0,0.0,0.0,0.0,0.0,0.0,0.0,0.0,0.0,0.0,0.0,0.0,0.0,0.0,0.0,0.0,0.0,0.0,0.0,0.0,0.0,0.0,0.0,3.7111,3.6046,3.4956,3.4722,3.498,3.4927,3.3665,0.0,0.0,0.0,0.0,0.0,0.0,0.0,0.0,0.0,0.0,0.0,0.0,0.0,0.0,0.0,0.0,0.0,0.0,0.0,0.0,0.0,0.0,0.0,0.0,0.0,0.0,0.0,0.0,0.0,0.0,0.0,0.0,0.0,0.0,0.0,0.0,0.0,0.0,0.0,0.0,0.0,0.0,0.0,0.0,0.0,0.0,0.0,0.0,0.0,0.0,0.0,0.0,0.0,0.0,0.0,0.0,0.0,0.0,0.0,0.0,0.0,0.0,0.0,0.0,0.0,0.0,0.0,0.0,0.0,0.0,0.0,0.0,0.0,0.0,0.0,0.0,0.0,0.0,0.0,0.0,0.0,0.0,0.0,0.0,0.0,0.0,0.0,0.0,0.0,0.0,0.0,0.0,0.0,0.0,0.0,0.0,0.0,0.0,0.0,0.0,0.0,0.0,0.0,0.0,0.0,0.0,0.0,0.0,0.0,3.7657,0.0,3.68,0.0,3.3957,3.2338,0.0,0.0,0.0,0.0,0.0,0.0,0.0,0.0,0.0,0.0,0.0,0.0,0.0,0.0,0.0,0.0,0.0,0.0,0.0,0.0,0.0,0.0,0.0,0.0,0.0,0.0,0.0,0.0,0.0,0.0,0.0,0.0,0.0,0.0,0.0,0.0,0.0,0.0,0.0,0.0,0.0,0.0,0.0,0.0,0.0,0.0,0.0,0.0,0.0,0.0,0.0,0.0,0.0,0.0,0.0,0.0,0.0,0.0,0.0,0.0,0.0,0.0,0.0,0.0,0.0,0.0,0.0,0.0,0.0,0.0,0.0,0.0,0.0,0.0,0.0,0.0,0.0,0.0,0.0,0.0,0.0,0.0,0.0,0.0,0.0,0.0,0.0,0.0,0.0,0.0,0.0,0.0,0.0,0.0,0.0,0.0,0.0,0.0,0.0,0.0,0.0,0.0,0.0,0.0,0.0,0.0,0.0,0.0,0.0,3.7241,3.7267,3.6903,3.6011,3.3487,3.1298,0.0,0.0,0.0,0.0,0.0,0.0,0.0,0.0,0.0,0.0,0.0,0.0,0.0,0.0,0.0,0.0,0.0,0.0,0.0,0.0,0.0,0.0,0.0,0.0,0.0,0.0,0.0,0.0,0.0,0.0,0.0,0.0,0.0,0.0,0.0,0.0,0.0,0.0,0.0,0.0,0.0,0.0,0.0,0.0,0.0,0.0,0.0,0.0,0.0,0.0,0.0,0.0,0.0,0.0,0.0,0.0,0.0,0.0,0.0,0.0,0.0,0.0,0.0,0.0,0.0,0.0,0.0,0.0,0.0,0.0,0.0,0.0,0.0,0.0,0.0,0.0,0.0,0.0,0.0,0.0,0.0,0.0,0.0,0.0,0.0,0.0,0.0,0.0,0.0,0.0,0.0,0.0,0.0,0.0,0.0,0.0,0.0,0.0,0.0,0.0,0.0,0.0,0.0,0.0,0.0,0.0,0.0,0.0,0.0,0.0,3.5058,3.5058,3.5136,3.3441,3.0675,0.0,0.0,0.0,0.0,0.0,0.0,0.0,0.0,0.0,0.0,0.0,0.0,0.0,0.0,0.0,0.0,0.0,0.0,0.0,0.0,0.0,0.0,0.0,0.0,0.0,0.0,0.0,0.0,0.0,0.0,0.0,0.0,0.0,0.0,0.0,0.0,0.0,0.0,0.0,0.0,0.0,0.0,0.0,0.0,0.0,0.0,0.0,0.0,0.0,0.0,0.0,0.0,0.0,0.0,0.0,0.0,0.0,0.0,0.0,0.0,0.0,0.0,0.0,0.0,0.0,0.0,0.0,0.0,0.0,0.0,0.0,0.0,0.0,0.0,0.0,0.0,0.0,0.0,0.0,0.0,0.0,0.0,0.0,0.0,0.0,0.0,0.0,0.0,0.0,0.0,0.0,0.0,0.0,0.0,0.0,0.0,0.0,0.0,0.0,0.0,0.0,0.0,0.0,0.0,0.0,0.0,0.0,0.0,0.0,0.0,3.5709,3.5891,3.6063,3.3439,2.9322,2.366,0.0,0.0,0.0,0.0,0.0,0.0,0.0,0.0,0.0,0.0,0.0,0.0,0.0,0.0,0.0,0.0,0.0,0.0,0.0,0.0,0.0,0.0,0.0,0.0,0.0,0.0,0.0,0.0,0.0,0.0,0.0,0.0,0.0,0.0,0.0,0.0,0.0,0.0,0.0,0.0,0.0,0.0,0.0,0.0,0.0,0.0,0.0,0.0,0.0,0.0,0.0,0.0,0.0,0.0,0.0,0.0,0.0,0.0,0.0,0.0,0.0,0.0,0.0,0.0,0.0,0.0,0.0,0.0,0.0,0.0,0.0,0.0,0.0,0.0,0.0,0.0,0.0,0.0,0.0,0.0,0.0,0.0,0.0,0.0,0.0,0.0,0.0,0.0,0.0,0.0,0.0,0.0,0.0,0.0,0.0,0.0,0.0,0.0,0.0,0.0,0.0,0.0,0.0,0.0,0.0,0.0,0.0,0.0,0.0,0.0,3.5735,3.5964,3.4297,3.0478,0.0,0.0,0.0,0.0,0.0,0.0,0.0,0.0,0.0,0.0,0.0,0.0,0.0,0.0,0.0,0.0,0.0,0.0,0.0,0.0,0.0,0.0,0.0,0.0,0.0,0.0,0.0,0.0,0.0,0.0,0.0,0.0,0.0,0.0,0.0,0.0,0.0,0.0,0.0,0.0,0.0,0.0,0.0,0.0,0.0,0.0,0.0,0.0,0.0,0.0,0.0,0.0,0.0,0.0,0.0,0.0,0.0,0.0,0.0,0.0,0.0,0.0,0.0,0.0,0.0,0.0,0.0,0.0,0.0,0.0,0.0,0.0,0.0,0.0,0.0,0.0,0.0,0.0,0.0,0.0,0.0,0.0,0.0,0.0,0.0,0.0,0.0,0.0,0.0,0.0,0.0,0.0,0.0,0.0,0.0,0.0,0.0,0.0,0.0,0.0,0.0,0.0,0.0,0.0,0.0,0.0,0.0,0.0,0.0,0.0,0.0,3.5058,3.5058,3.5173,0.0,2.7394,0.0,0.0,0.0,0.0,0.0,0.0,0.0,0.0,0.0,0.0,0.0,0.0,0.0,0.0,0.0,0.0,0.0,0.0,0.0,0.0,0.0,0.0,0.0,0.0,0.0,0.0,0.0,0.0,0.0,0.0,0.0,0.0,0.0,0.0,0.0,0.0,0.0,0.0,0.0,0.0,0.0,0.0,0.0,0.0,0.0,0.0,0.0,0.0,0.0,0.0,0.0,0.0,0.0,0.0,0.0,0.0,0.0,0.0,0.0,0.0,0.0,0.0,0.0,0.0,0.0,0.0,0.0,0.0,0.0,0.0,0.0,0.0,0.0,0.0,0.0,0.0,0.0,0.0,0.0,0.0,0.0,0.0,0.0,0.0,0.0,0.0,0.0,0.0,0.0,0.0,0.0,0.0,0.0,0.0,0.0,0.0,0.0,0.0,0.0,0.0,0.0,0.0,0.0,0.0,0.0,0.0,0.0,0.0,0.0,0.0,0.0,0.0,3.1939,3.0041,3.0328,0.0,0.0,0.0,0.0,0.0,0.0,0.0,0.0,0.0,0.0,0.0,0.0,0.0,0.0,0.0,0.0,0.0,0.0,0.0,0.0,0.0,0.0,0.0,0.0,0.0,0.0,0.0,0.0,0.0,0.0,0.0,0.0,0.0,0.0,0.0,0.0,0.0,0.0,0.0,0.0,0.0,0.0,0.0,0.0,0.0,0.0,0.0,0.0,0.0,0.0,0.0,0.0,0.0,0.0,0.0,0.0,0.0,0.0,0.0,0.0,0.0,0.0,0.0,0.0,0.0,0.0,0.0,0.0,0.0,0.0,0.0,0.0,0.0,0.0,0.0,0.0,0.0,0.0,0.0,0.0,0.0,0.0,0.0,0.0,0.0,0.0,0.0,0.0,0.0,0.0,0.0,0.0,0.0,0.0,0.0,0.0,0.0,0.0,0.0,0.0,0.0,0.0,0.0,0.0,0.0,0.0,0.0,0.0,0.0,0.0,3.3594,3.3211,2.952,2.8574,3.0695,0.0,0.0,0.0,0.0,0.0,0.0,0.0,0.0,0.0,0.0,0.0,0.0,0.0,0.0,0.0,0.0,0.0,0.0,0.0,0.0,0.0,0.0,0.0,0.0,0.0,0.0,0.0,0.0,0.0,0.0,0.0,0.0,0.0,0.0,0.0,0.0,0.0,0.0,0.0,0.0,0.0,0.0,0.0,0.0,0.0,0.0,0.0,0.0,0.0,0.0,0.0,0.0,0.0,0.0,0.0,0.0,0.0,0.0,0.0,0.0,0.0,0.0,0.0,0.0,0.0,0.0,0.0,0.0,0.0,0.0,0.0,0.0,0.0,0.0,0.0,0.0,0.0,0.0,0.0,0.0,0.0,0.0,0.0,0.0,0.0,0.0,0.0,0.0,0.0,0.0,0.0,0.0,0.0,0.0,0.0,0.0,0.0,0.0,0.0,0.0,0.0,0.0,0.0,0.0,0.0,0.0,0.0,0.0,0.0,0.0,0.0,0.0,0.0,0.0,2.8741,0.0,0.0,0.0,0.0,0.0,0.0,0.0,0.0,0.0,0.0,0.0,0.0,0.0,0.0,0.0,0.0,0.0,0.0,0.0,0.0,0.0,0.0,0.0,0.0,0.0,0.0,0.0,0.0,0.0,0.0,0.0,0.0,0.0,0.0,0.0,0.0,0.0,0.0,0.0,0.0,0.0,0.0,0.0,0.0,0.0,0.0,0.0,0.0,0.0,0.0,0.0,0.0,0.0,0.0,0.0,0.0,0.0,0.0,0.0,0.0,0.0,0.0,0.0,0.0,0.0,0.0,0.0,0.0,0.0,0.0,0.0,0.0,0.0,0.0,0.0,0.0,0.0,0.0,0.0,0.0,0.0,0.0,0.0,0.0,0.0,0.0,0.0,0.0,0.0,0.0,0.0,0.0,0.0,0.0,0.0,0.0,0.0,0.0,0.0,0.0,0.0,0.0,0.0,0.0,0.0,0.0,0.0,0.0,0.0,0.0,0.0,0.0,0.0,0.0,0.0,0.0,0.0,0.0,0.0,0.0,0.0,0.0,0.0,0.0,0.0,0.0,0.0,0.0,0.0,0.0,0.0,0.0,0.0,0.0,0.0,0.0,0.0,0.0,0.0,0.0,0.0,0.0,0.0,0.0,0.0,0.0,0.0,0.0,0.0,0.0,0.0,0.0,0.0,0.0,0.0,0.0,0.0,0.0,0.0,0.0,0.0,0.0,0.0,0.0,0.0,0.0,0.0,0.0,0.0,0.0,0.0,0.0,0.0,0.0,0.0,0.0,0.0,0.0,0.0,0.0,0.0,0.0,0.0,0.0,0.0,0.0,0.0,0.0,0.0,0.0,0.0,0.0,0.0,0.0,0.0,0.0,0.0,0.0,0.0,0.0,0.0,0.0,0.0,0.0,0.0,0.0,0.0,0.0,0.0,0.0,0.0,0.0,0.0,0.0,0.0,0.0,0.0,0.0,0.0,0.0,0.0,0.0,0.0,0.0,0.0,0.0,0.0,0.0,0.0,0.0,0.0,0.0,0.0,0.0,0.0,0.0,0.0,0.0,0.0,0.0,0.0,0.0,0.0,0.0,0.0,0.0,0.0,0.0,0.0,0.0,0.0,0.0,0.0,0.0,0.0,0.0,0.0,0.0,0.0,0.0,0.0,0.0,0.0,0.0,0.0,0.0,0.0,0.0,0.0,0.0,0.0,0.0,0.0,0.0,0.0,0.0,0.0,0.0,0.0,0.0,0.0,0.0,0.0,0.0,0.0,0.0,0.0,0.0,0.0,0.0,0.0,0.0,0.0,0.0,0.0,0.0,0.0,0.0,0.0,0.0,0.0,0.0,0.0,0.0,0.0,0.0,0.0,0.0,0.0,0.0,0.0,0.0,0.0,0.0,0.0,0.0,0.0,0.0,0.0,0.0,0.0,0.0,0.0,0.0,0.0,0.0,0.0,0.0,0.0,0.0,0.0,0.0,0.0,0.0,0.0,0.0,0.0,0.0,0.0,0.0,0.0,0.0,0.0,0.0,0.0,0.0,0.0,0.0,0.0,0.0,0.0,0.0,0.0,0.0,0.0,0.0,0.0,0.0,0.0,0.0,0.0,0.0,0.0,0.0,0.0,0.0,0.0,0.0,0.0,0.0,0.0,0.0,0.0,0.0,0.0,0.0,0.0,0.0,0.0,0.0,0.0,0.0,0.0,0.0,0.0,0.0,0.0,0.0,0.0,0.0,0.0,0.0,0.0,0.0,0.0,0.0,0.0,0.0,0.0,0.0,0.0,0.0,0.0,0.0,0.0,0.0,0.0,0.0,0.0,0.0,0.0,0.0,0.0,0.0,0.0,0.0,0.0,0.0,0.0,0.0,0.0,0.0,0.0,0.0,0.0,0.0,0.0,0.0,0.0,0.0,0.0,0.0,0.0,0.0,0.0,0.0,0.0,0.0,0.0,0.0,0.0,0.0,0.0,0.0,0.0,0.0,0.0,0.0,0.0,0.0,0.0,0.0,0.0,0.0,0.0,0.0,0.0,0.0,0.0,0.0,0.0,0.0,0.0,0.0,0.0,0.0,0.0,0.0,0.0,0.0,0.0,0.0,0.0,0.0,0.0,0.0,0.0,0.0,0.0,0.0,0.0,0.0,0.0,0.0,0.0,0.0,0.0,0.0,0.0,0.0,0.0,0.0,0.0,0.0,0.0,0.0,0.0,0.0,0.0,0.0,0.0,0.0,0.0,0.0,0.0,0.0,0.0,0.0,0.0,0.0,0.0,0.0,0.0,0.0,0.0,0.0,0.0,0.0,0.0,0.0,0.0,0.0,0.0,0.0,0.0,0.0,0.0,0.0,0.0,0.0,0.0,0.0,0.0,0.0,0.0,0.0,0.0,0.0,0.0,0.0,0.0,0.0,0.0,0.0,0.0,0.0,0.0,0.0,0.0,0.0,0.0,0.0,0.0,0.0,0.0,0.0,0.0,0.0,0.0,0.0,0.0,0.0,0.0,0.0,0.0,0.0,0.0,0.0,0.0,0.0,0.0,0.0,0.0,0.0,0.0,0.0,0.0,0.0,0.0,0.0,0.0,0.0,0.0,0.0,0.0,0.0,0.0,0.0,0.0,0.0,0.0,0.0,0.0,0.0,0.0,0.0,0.0,0.0,0.0,0.0,0.0,0.0,0.0,0.0,0.0,0.0,0.0,0.0,0.0,0.0,0.0,0.0,0.0,0.0,0.0,0.0,0.0,0.0,0.0,0.0,0.0,0.0,0.0,0.0,0.0,0.0,0.0,0.0,0.0,0.0,0.0,0.0,0.0,0.0,0.0,0.0,0.0,0.0,0.0,0.0,0.0,0.0,0.0,0.0,0.0,0.0,0.0,0.0,0.0,0.0,0.0,0.0,0.0,0.0,0.0,0.0,0.0,0.0,0.0,0.0,0.0,0.0,0.0,0.0,0.0,0.0,0.0,0.0,0.0,0.0,0.0,0.0,0.0,0.0,0.0,0.0,0.0,0.0,0.0,0.0,0.0,0.0,0.0,0.0,0.0,0.0,0.0,0.0,0.0,0.0,0.0,0.0,0.0,0.0,0.0,0.0,0.0,0.0,0.0,0.0,0.0,0.0,0.0,0.0,0.0,0.0,0.0,0.0,0.0,0.0,0.0,0.0,0.0,0.0,0.0,0.0,0.0,0.0,0.0,0.0,0.0,0.0,0.0,0.0,0.0,0.0,0.0,0.0,0.0,0.0,0.0,0.0,0.0,0.0,0.0,0.0,0.0,0.0,0.0,0.0,0.0,0.0,0.0,0.0,0.0,0.0,0.0,0.0,0.0,0.0,0.0,0.0,0.0,0.0,0.0,0.0,0.0,0.0,0.0,0.0,0.0,0.0,0.0,0.0,0.0,0.0,0.0,0.0,0.0,0.0,0.0,0.0,0.0,0.0,0.0,0.0,0.0,0.0,0.0,0.0,0.0,0.0,0.0,0.0,0.0,0.0,0.0,0.0,0.0,0.0,0.0,0.0,0.0,0.0,0.0,0.0,0.0,0.0,0.0,0.0,0.0,0.0,0.0,0.0,0.0,0.0,0.0,0.0,0.0,0.0,0.0,0.0,0.0,0.0,0.0,0.0,0.0,0.0,0.0,0.0,0.0,0.0,0.0,0.0,0.0,0.0,0.0,0.0,0.0,0.0,0.0,0.0,0.0,0.0,0.0,0.0,0.0,0.0,0.0,0.0,0.0,0.0,0.0,0.0,0.0,0.0,0.0,0.0,0.0,0.0,0.0,0.0,0.0,0.0,0.0,0.0,0.0,0.0,0.0,0.0,0.0,0.0,0.0,0.0,0.0,0.0,0.0,0.0,0.0,0.0,0.0,0.0,0.0,0.0,0.0,0.0,0.0,0.0,0.0,0.0,0.0,0.0,0.0,0.0,0.0,0.0,0.0,0.0,0.0,0.0,0.0,0.0,0.0,0.0,0.0,0.0,0.0,0.0,0.0,0.0,0.0,0.0,0.0,0.0,0.0,0.0,0.0,0.0,0.0,0.0,0.0,0.0,0.0,0.0,0.0,0.0,0.0,0.0,0.0,0.0,0.0,0.0,0.0,0.0,0.0,0.0,0.0,0.0,0.0,0.0,0.0,0.0,0.0,0.0,0.0,0.0,0.0,0.0,0.0,0.0,0.0,0.0,0.0,0.0,0.0,0.0,0.0,0.0,0.0,0.0,0.0,0.0,0.0,0.0,0.0,0.0,0.0,0.0,0.0,0.0,0.0,0.0,0.0,0.0,0.0,0.0,0.0,0.0,0.0,0.0,0.0,0.0,0.0,0.0,0.0,0.0,0.0,0.0,0.0,0.0,0.0,0.0,0.0,0.0,0.0,0.0,0.0,0.0]}]]]